<?xml version="1.0" encoding="UTF-8" standalone="no" ?>
<gpx xmlns="http://www.topografix.com/GPX/1/1" xmlns:xsi="http://www.w3.org/2001/XMLSchema-instance" xsi:schemaLocation="http://www.topografix.com/GPX/1/1 http://www.topografix.com/GPX/1/1/gpx.xsd" version="1.1" creator="VisuGPX - https://www.visugpx.com">
  <metadata>
    <name>Le Plomb du Cantal</name>
    <desc><![CDATA[Circuit au départ de la station de Super-Lioran, vers le sommet du Plomb du Cantal en passant par le Rocher du Cerf, le pied de l'Aiguillon et celui du Puy du Rocher. retour par le buron des Gardes.]]></desc>
  </metadata>
  <trk>
    <name><![CDATA[JUIL-10-19 15:38:29]]></name>
    <trkseg>
      <trkpt lat="45.08387" lon="2.749">
        <ele>1157.08</ele>
        <time>2019-07-10T07:23:12Z</time>
      </trkpt>
      <trkpt lat="45.08388" lon="2.74897">
        <ele>1156.6</ele>
        <time>2019-07-10T07:23:23Z</time>
      </trkpt>
      <trkpt lat="45.08383" lon="2.74892">
        <ele>1160.93</ele>
        <time>2019-07-10T07:23:33Z</time>
      </trkpt>
      <trkpt lat="45.08382" lon="2.74892">
        <ele>1164.77</ele>
        <time>2019-07-10T07:23:35Z</time>
      </trkpt>
      <trkpt lat="45.08381" lon="2.74892">
        <ele>1168.62</ele>
        <time>2019-07-10T07:23:37Z</time>
      </trkpt>
      <trkpt lat="45.0838" lon="2.74893">
        <ele>1171.5</ele>
        <time>2019-07-10T07:23:39Z</time>
      </trkpt>
      <trkpt lat="45.0838" lon="2.74893">
        <ele>1175.83</ele>
        <time>2019-07-10T07:23:41Z</time>
      </trkpt>
      <trkpt lat="45.0838" lon="2.74893">
        <ele>1179.19</ele>
        <time>2019-07-10T07:23:43Z</time>
      </trkpt>
      <trkpt lat="45.08379" lon="2.74892">
        <ele>1183.04</ele>
        <time>2019-07-10T07:23:45Z</time>
      </trkpt>
      <trkpt lat="45.08379" lon="2.74892">
        <ele>1187.85</ele>
        <time>2019-07-10T07:23:48Z</time>
      </trkpt>
      <trkpt lat="45.08378" lon="2.74892">
        <ele>1191.21</ele>
        <time>2019-07-10T07:23:50Z</time>
      </trkpt>
      <trkpt lat="45.08378" lon="2.74892">
        <ele>1195.54</ele>
        <time>2019-07-10T07:23:53Z</time>
      </trkpt>
      <trkpt lat="45.08378" lon="2.74892">
        <ele>1198.42</ele>
        <time>2019-07-10T07:23:56Z</time>
      </trkpt>
      <trkpt lat="45.08378" lon="2.74892">
        <ele>1201.79</ele>
        <time>2019-07-10T07:23:59Z</time>
      </trkpt>
      <trkpt lat="45.08378" lon="2.74892">
        <ele>1205.15</ele>
        <time>2019-07-10T07:24:02Z</time>
      </trkpt>
      <trkpt lat="45.08378" lon="2.74892">
        <ele>1209</ele>
        <time>2019-07-10T07:24:06Z</time>
      </trkpt>
      <trkpt lat="45.08378" lon="2.74892">
        <ele>1212.84</ele>
        <time>2019-07-10T07:24:11Z</time>
      </trkpt>
      <trkpt lat="45.08378" lon="2.74892">
        <ele>1215.72</ele>
        <time>2019-07-10T07:24:16Z</time>
      </trkpt>
      <trkpt lat="45.08378" lon="2.74892">
        <ele>1218.61</ele>
        <time>2019-07-10T07:24:21Z</time>
      </trkpt>
      <trkpt lat="45.08378" lon="2.74892">
        <ele>1219.57</ele>
        <time>2019-07-10T07:24:23Z</time>
      </trkpt>
      <trkpt lat="45.08378" lon="2.74892">
        <ele>1221.49</ele>
        <time>2019-07-10T07:24:26Z</time>
      </trkpt>
      <trkpt lat="45.08378" lon="2.74893">
        <ele>1222.45</ele>
        <time>2019-07-10T07:24:30Z</time>
      </trkpt>
      <trkpt lat="45.08379" lon="2.74895">
        <ele>1225.82</ele>
        <time>2019-07-10T07:24:39Z</time>
      </trkpt>
      <trkpt lat="45.08379" lon="2.74895">
        <ele>1229.66</ele>
        <time>2019-07-10T07:24:51Z</time>
      </trkpt>
      <trkpt lat="45.08381" lon="2.74898">
        <ele>1231.11</ele>
        <time>2019-07-10T07:25:14Z</time>
      </trkpt>
      <trkpt lat="45.08381" lon="2.749">
        <ele>1231.59</ele>
        <time>2019-07-10T07:25:55Z</time>
      </trkpt>
      <trkpt lat="45.08381" lon="2.74901">
        <ele>1232.07</ele>
        <time>2019-07-10T07:26:24Z</time>
      </trkpt>
      <trkpt lat="45.08381" lon="2.74902">
        <ele>1232.07</ele>
        <time>2019-07-10T07:26:59Z</time>
      </trkpt>
      <trkpt lat="45.0838" lon="2.74903">
        <ele>1232.07</ele>
        <time>2019-07-10T07:27:30Z</time>
      </trkpt>
      <trkpt lat="45.0838" lon="2.74907">
        <ele>1232.07</ele>
        <time>2019-07-10T07:28:08Z</time>
      </trkpt>
      <trkpt lat="45.08379" lon="2.74912">
        <ele>1231.59</ele>
        <time>2019-07-10T07:28:11Z</time>
      </trkpt>
      <trkpt lat="45.08376" lon="2.74921">
        <ele>1232.07</ele>
        <time>2019-07-10T07:28:16Z</time>
      </trkpt>
      <trkpt lat="45.08374" lon="2.74929">
        <ele>1232.55</ele>
        <time>2019-07-10T07:28:21Z</time>
      </trkpt>
      <trkpt lat="45.08375" lon="2.74949">
        <ele>1233.03</ele>
        <time>2019-07-10T07:28:32Z</time>
      </trkpt>
      <trkpt lat="45.08375" lon="2.74961">
        <ele>1233.03</ele>
        <time>2019-07-10T07:28:39Z</time>
      </trkpt>
      <trkpt lat="45.08373" lon="2.74966">
        <ele>1233.51</ele>
        <time>2019-07-10T07:28:43Z</time>
      </trkpt>
      <trkpt lat="45.08371" lon="2.74967">
        <ele>1233.03</ele>
        <time>2019-07-10T07:28:46Z</time>
      </trkpt>
      <trkpt lat="45.08362" lon="2.74966">
        <ele>1233.51</ele>
        <time>2019-07-10T07:28:56Z</time>
      </trkpt>
      <trkpt lat="45.08351" lon="2.74968">
        <ele>1234.47</ele>
        <time>2019-07-10T07:29:07Z</time>
      </trkpt>
      <trkpt lat="45.08341" lon="2.74969">
        <ele>1235.43</ele>
        <time>2019-07-10T07:29:18Z</time>
      </trkpt>
      <trkpt lat="45.08338" lon="2.74969">
        <ele>1235.43</ele>
        <time>2019-07-10T07:29:22Z</time>
      </trkpt>
      <trkpt lat="45.08336" lon="2.74966">
        <ele>1235.91</ele>
        <time>2019-07-10T07:29:26Z</time>
      </trkpt>
      <trkpt lat="45.0832" lon="2.74971">
        <ele>1236.39</ele>
        <time>2019-07-10T07:29:39Z</time>
      </trkpt>
      <trkpt lat="45.08315" lon="2.74971">
        <ele>1237.35</ele>
        <time>2019-07-10T07:29:43Z</time>
      </trkpt>
      <trkpt lat="45.0831" lon="2.74969">
        <ele>1237.83</ele>
        <time>2019-07-10T07:29:47Z</time>
      </trkpt>
      <trkpt lat="45.083" lon="2.74969">
        <ele>1238.32</ele>
        <time>2019-07-10T07:29:59Z</time>
      </trkpt>
      <trkpt lat="45.08291" lon="2.74967">
        <ele>1238.32</ele>
        <time>2019-07-10T07:30:08Z</time>
      </trkpt>
      <trkpt lat="45.08282" lon="2.74964">
        <ele>1239.76</ele>
        <time>2019-07-10T07:30:19Z</time>
      </trkpt>
      <trkpt lat="45.08272" lon="2.74968">
        <ele>1240.24</ele>
        <time>2019-07-10T07:30:28Z</time>
      </trkpt>
      <trkpt lat="45.08261" lon="2.74965">
        <ele>1240.24</ele>
        <time>2019-07-10T07:30:40Z</time>
      </trkpt>
      <trkpt lat="45.08259" lon="2.74964">
        <ele>1240.72</ele>
        <time>2019-07-10T07:30:42Z</time>
      </trkpt>
      <trkpt lat="45.08257" lon="2.74963">
        <ele>1240.24</ele>
        <time>2019-07-10T07:30:44Z</time>
      </trkpt>
      <trkpt lat="45.08242" lon="2.7496">
        <ele>1240.72</ele>
        <time>2019-07-10T07:30:59Z</time>
      </trkpt>
      <trkpt lat="45.08228" lon="2.74959">
        <ele>1241.68</ele>
        <time>2019-07-10T07:31:13Z</time>
      </trkpt>
      <trkpt lat="45.08223" lon="2.7496">
        <ele>1241.68</ele>
        <time>2019-07-10T07:31:17Z</time>
      </trkpt>
      <trkpt lat="45.08219" lon="2.74958">
        <ele>1242.16</ele>
        <time>2019-07-10T07:31:21Z</time>
      </trkpt>
      <trkpt lat="45.08207" lon="2.74957">
        <ele>1242.64</ele>
        <time>2019-07-10T07:31:34Z</time>
      </trkpt>
      <trkpt lat="45.08197" lon="2.7496">
        <ele>1242.16</ele>
        <time>2019-07-10T07:31:50Z</time>
      </trkpt>
      <trkpt lat="45.08196" lon="2.74959">
        <ele>1243.12</ele>
        <time>2019-07-10T07:32:29Z</time>
      </trkpt>
      <trkpt lat="45.08196" lon="2.7496">
        <ele>1241.2</ele>
        <time>2019-07-10T07:32:50Z</time>
      </trkpt>
      <trkpt lat="45.08196" lon="2.74961">
        <ele>1242.16</ele>
        <time>2019-07-10T07:33:05Z</time>
      </trkpt>
      <trkpt lat="45.08198" lon="2.74963">
        <ele>1242.64</ele>
        <time>2019-07-10T07:33:31Z</time>
      </trkpt>
      <trkpt lat="45.08198" lon="2.74966">
        <ele>1242.16</ele>
        <time>2019-07-10T07:33:50Z</time>
      </trkpt>
      <trkpt lat="45.08197" lon="2.74971">
        <ele>1242.16</ele>
        <time>2019-07-10T07:34:04Z</time>
      </trkpt>
      <trkpt lat="45.08198" lon="2.74975">
        <ele>1241.68</ele>
        <time>2019-07-10T07:34:07Z</time>
      </trkpt>
      <trkpt lat="45.08198" lon="2.74979">
        <ele>1242.16</ele>
        <time>2019-07-10T07:34:09Z</time>
      </trkpt>
      <trkpt lat="45.082" lon="2.74985">
        <ele>1242.64</ele>
        <time>2019-07-10T07:34:13Z</time>
      </trkpt>
      <trkpt lat="45.08198" lon="2.75001">
        <ele>1243.6</ele>
        <time>2019-07-10T07:34:27Z</time>
      </trkpt>
      <trkpt lat="45.08198" lon="2.75017">
        <ele>1244.56</ele>
        <time>2019-07-10T07:34:40Z</time>
      </trkpt>
      <trkpt lat="45.08199" lon="2.75029">
        <ele>1245.04</ele>
        <time>2019-07-10T07:34:48Z</time>
      </trkpt>
      <trkpt lat="45.08203" lon="2.75041">
        <ele>1245.53</ele>
        <time>2019-07-10T07:34:57Z</time>
      </trkpt>
      <trkpt lat="45.08202" lon="2.75047">
        <ele>1246.01</ele>
        <time>2019-07-10T07:35:02Z</time>
      </trkpt>
      <trkpt lat="45.08202" lon="2.75056">
        <ele>1246.49</ele>
        <time>2019-07-10T07:35:08Z</time>
      </trkpt>
      <trkpt lat="45.08205" lon="2.75072">
        <ele>1247.45</ele>
        <time>2019-07-10T07:35:21Z</time>
      </trkpt>
      <trkpt lat="45.08204" lon="2.75074">
        <ele>1246.97</ele>
        <time>2019-07-10T07:35:23Z</time>
      </trkpt>
      <trkpt lat="45.08204" lon="2.75082">
        <ele>1247.93</ele>
        <time>2019-07-10T07:35:29Z</time>
      </trkpt>
      <trkpt lat="45.08202" lon="2.75088">
        <ele>1247.93</ele>
        <time>2019-07-10T07:35:33Z</time>
      </trkpt>
      <trkpt lat="45.08203" lon="2.75095">
        <ele>1248.89</ele>
        <time>2019-07-10T07:35:38Z</time>
      </trkpt>
      <trkpt lat="45.08201" lon="2.75104">
        <ele>1249.37</ele>
        <time>2019-07-10T07:35:45Z</time>
      </trkpt>
      <trkpt lat="45.08201" lon="2.75117">
        <ele>1249.85</ele>
        <time>2019-07-10T07:35:58Z</time>
      </trkpt>
      <trkpt lat="45.08202" lon="2.75132">
        <ele>1251.29</ele>
        <time>2019-07-10T07:36:11Z</time>
      </trkpt>
      <trkpt lat="45.08202" lon="2.75149">
        <ele>1252.25</ele>
        <time>2019-07-10T07:36:24Z</time>
      </trkpt>
      <trkpt lat="45.08202" lon="2.75165">
        <ele>1253.22</ele>
        <time>2019-07-10T07:36:37Z</time>
      </trkpt>
      <trkpt lat="45.082" lon="2.75172">
        <ele>1254.18</ele>
        <time>2019-07-10T07:36:44Z</time>
      </trkpt>
      <trkpt lat="45.08198" lon="2.75185">
        <ele>1255.14</ele>
        <time>2019-07-10T07:36:55Z</time>
      </trkpt>
      <trkpt lat="45.08197" lon="2.7519">
        <ele>1255.62</ele>
        <time>2019-07-10T07:36:59Z</time>
      </trkpt>
      <trkpt lat="45.08199" lon="2.752">
        <ele>1255.62</ele>
        <time>2019-07-10T07:37:11Z</time>
      </trkpt>
      <trkpt lat="45.082" lon="2.75204">
        <ele>1255.62</ele>
        <time>2019-07-10T07:37:14Z</time>
      </trkpt>
      <trkpt lat="45.08201" lon="2.75213">
        <ele>1256.58</ele>
        <time>2019-07-10T07:37:21Z</time>
      </trkpt>
      <trkpt lat="45.08202" lon="2.75215">
        <ele>1256.1</ele>
        <time>2019-07-10T07:37:23Z</time>
      </trkpt>
      <trkpt lat="45.08204" lon="2.75224">
        <ele>1258.02</ele>
        <time>2019-07-10T07:37:31Z</time>
      </trkpt>
      <trkpt lat="45.0821" lon="2.75234">
        <ele>1258.5</ele>
        <time>2019-07-10T07:37:43Z</time>
      </trkpt>
      <trkpt lat="45.08211" lon="2.75236">
        <ele>1259.46</ele>
        <time>2019-07-10T07:37:46Z</time>
      </trkpt>
      <trkpt lat="45.08216" lon="2.75246">
        <ele>1260.43</ele>
        <time>2019-07-10T07:37:57Z</time>
      </trkpt>
      <trkpt lat="45.08219" lon="2.75254">
        <ele>1261.39</ele>
        <time>2019-07-10T07:38:07Z</time>
      </trkpt>
      <trkpt lat="45.08223" lon="2.75262">
        <ele>1262.83</ele>
        <time>2019-07-10T07:38:19Z</time>
      </trkpt>
      <trkpt lat="45.08226" lon="2.7527">
        <ele>1265.23</ele>
        <time>2019-07-10T07:38:28Z</time>
      </trkpt>
      <trkpt lat="45.08229" lon="2.75278">
        <ele>1266.19</ele>
        <time>2019-07-10T07:38:38Z</time>
      </trkpt>
      <trkpt lat="45.08234" lon="2.75286">
        <ele>1268.12</ele>
        <time>2019-07-10T07:38:50Z</time>
      </trkpt>
      <trkpt lat="45.08237" lon="2.75294">
        <ele>1270.52</ele>
        <time>2019-07-10T07:39:01Z</time>
      </trkpt>
      <trkpt lat="45.0824" lon="2.75303">
        <ele>1271.48</ele>
        <time>2019-07-10T07:39:11Z</time>
      </trkpt>
      <trkpt lat="45.08243" lon="2.75315">
        <ele>1272.92</ele>
        <time>2019-07-10T07:39:23Z</time>
      </trkpt>
      <trkpt lat="45.08244" lon="2.75328">
        <ele>1274.85</ele>
        <time>2019-07-10T07:39:36Z</time>
      </trkpt>
      <trkpt lat="45.08244" lon="2.75332">
        <ele>1275.33</ele>
        <time>2019-07-10T07:39:40Z</time>
      </trkpt>
      <trkpt lat="45.08246" lon="2.75335">
        <ele>1275.81</ele>
        <time>2019-07-10T07:39:43Z</time>
      </trkpt>
      <trkpt lat="45.08245" lon="2.75338">
        <ele>1275.81</ele>
        <time>2019-07-10T07:39:46Z</time>
      </trkpt>
      <trkpt lat="45.08247" lon="2.75346">
        <ele>1277.25</ele>
        <time>2019-07-10T07:39:54Z</time>
      </trkpt>
      <trkpt lat="45.08247" lon="2.75359">
        <ele>1278.69</ele>
        <time>2019-07-10T07:40:07Z</time>
      </trkpt>
      <trkpt lat="45.08247" lon="2.75373">
        <ele>1280.13</ele>
        <time>2019-07-10T07:40:19Z</time>
      </trkpt>
      <trkpt lat="45.08247" lon="2.75375">
        <ele>1280.61</ele>
        <time>2019-07-10T07:40:21Z</time>
      </trkpt>
      <trkpt lat="45.08246" lon="2.75385">
        <ele>1280.13</ele>
        <time>2019-07-10T07:40:31Z</time>
      </trkpt>
      <trkpt lat="45.08245" lon="2.75396">
        <ele>1281.09</ele>
        <time>2019-07-10T07:40:41Z</time>
      </trkpt>
      <trkpt lat="45.08244" lon="2.75409">
        <ele>1282.54</ele>
        <time>2019-07-10T07:40:52Z</time>
      </trkpt>
      <trkpt lat="45.08245" lon="2.75421">
        <ele>1283.98</ele>
        <time>2019-07-10T07:41:03Z</time>
      </trkpt>
      <trkpt lat="45.08244" lon="2.75422">
        <ele>1284.46</ele>
        <time>2019-07-10T07:41:04Z</time>
      </trkpt>
      <trkpt lat="45.08243" lon="2.75433">
        <ele>1285.42</ele>
        <time>2019-07-10T07:41:14Z</time>
      </trkpt>
      <trkpt lat="45.08244" lon="2.75446">
        <ele>1286.38</ele>
        <time>2019-07-10T07:41:24Z</time>
      </trkpt>
      <trkpt lat="45.0824" lon="2.75452">
        <ele>1286.86</ele>
        <time>2019-07-10T07:41:30Z</time>
      </trkpt>
      <trkpt lat="45.08239" lon="2.75468">
        <ele>1287.34</ele>
        <time>2019-07-10T07:41:44Z</time>
      </trkpt>
      <trkpt lat="45.08239" lon="2.75481">
        <ele>1288.78</ele>
        <time>2019-07-10T07:41:55Z</time>
      </trkpt>
      <trkpt lat="45.08237" lon="2.75492">
        <ele>1289.27</ele>
        <time>2019-07-10T07:42:06Z</time>
      </trkpt>
      <trkpt lat="45.08236" lon="2.75499">
        <ele>1290.23</ele>
        <time>2019-07-10T07:42:14Z</time>
      </trkpt>
      <trkpt lat="45.08235" lon="2.75513">
        <ele>1291.67</ele>
        <time>2019-07-10T07:42:26Z</time>
      </trkpt>
      <trkpt lat="45.08233" lon="2.75526">
        <ele>1293.11</ele>
        <time>2019-07-10T07:42:38Z</time>
      </trkpt>
      <trkpt lat="45.0823" lon="2.75539">
        <ele>1295.03</ele>
        <time>2019-07-10T07:42:50Z</time>
      </trkpt>
      <trkpt lat="45.0823" lon="2.75552">
        <ele>1295.99</ele>
        <time>2019-07-10T07:43:03Z</time>
      </trkpt>
      <trkpt lat="45.08229" lon="2.75561">
        <ele>1296.96</ele>
        <time>2019-07-10T07:43:13Z</time>
      </trkpt>
      <trkpt lat="45.08228" lon="2.75569">
        <ele>1298.4</ele>
        <time>2019-07-10T07:43:26Z</time>
      </trkpt>
      <trkpt lat="45.08228" lon="2.75578">
        <ele>1300.32</ele>
        <time>2019-07-10T07:43:38Z</time>
      </trkpt>
      <trkpt lat="45.08226" lon="2.75588">
        <ele>1301.76</ele>
        <time>2019-07-10T07:43:51Z</time>
      </trkpt>
      <trkpt lat="45.08228" lon="2.75598">
        <ele>1304.65</ele>
        <time>2019-07-10T07:44:05Z</time>
      </trkpt>
      <trkpt lat="45.08226" lon="2.75608">
        <ele>1306.57</ele>
        <time>2019-07-10T07:44:19Z</time>
      </trkpt>
      <trkpt lat="45.08223" lon="2.75617">
        <ele>1308.97</ele>
        <time>2019-07-10T07:44:31Z</time>
      </trkpt>
      <trkpt lat="45.08223" lon="2.75623">
        <ele>1314.26</ele>
        <time>2019-07-10T07:44:39Z</time>
      </trkpt>
      <trkpt lat="45.08223" lon="2.75624">
        <ele>1310.41</ele>
        <time>2019-07-10T07:44:40Z</time>
      </trkpt>
      <trkpt lat="45.08224" lon="2.75633">
        <ele>1311.38</ele>
        <time>2019-07-10T07:44:50Z</time>
      </trkpt>
      <trkpt lat="45.08224" lon="2.75637">
        <ele>1312.82</ele>
        <time>2019-07-10T07:44:54Z</time>
      </trkpt>
      <trkpt lat="45.08222" lon="2.75649">
        <ele>1314.26</ele>
        <time>2019-07-10T07:45:07Z</time>
      </trkpt>
      <trkpt lat="45.08222" lon="2.75651">
        <ele>1314.74</ele>
        <time>2019-07-10T07:45:09Z</time>
      </trkpt>
      <trkpt lat="45.08222" lon="2.75659">
        <ele>1316.66</ele>
        <time>2019-07-10T07:45:20Z</time>
      </trkpt>
      <trkpt lat="45.08222" lon="2.75668">
        <ele>1318.1</ele>
        <time>2019-07-10T07:45:31Z</time>
      </trkpt>
      <trkpt lat="45.08221" lon="2.75677">
        <ele>1319.55</ele>
        <time>2019-07-10T07:45:43Z</time>
      </trkpt>
      <trkpt lat="45.08218" lon="2.75689">
        <ele>1321.95</ele>
        <time>2019-07-10T07:45:56Z</time>
      </trkpt>
      <trkpt lat="45.08216" lon="2.75701">
        <ele>1323.87</ele>
        <time>2019-07-10T07:46:08Z</time>
      </trkpt>
      <trkpt lat="45.08214" lon="2.75704">
        <ele>1324.83</ele>
        <time>2019-07-10T07:46:18Z</time>
      </trkpt>
      <trkpt lat="45.08209" lon="2.75711">
        <ele>1326.28</ele>
        <time>2019-07-10T07:46:27Z</time>
      </trkpt>
      <trkpt lat="45.08206" lon="2.75712">
        <ele>1325.8</ele>
        <time>2019-07-10T07:46:33Z</time>
      </trkpt>
      <trkpt lat="45.08198" lon="2.75716">
        <ele>1327.72</ele>
        <time>2019-07-10T07:46:43Z</time>
      </trkpt>
      <trkpt lat="45.08194" lon="2.75728">
        <ele>1329.16</ele>
        <time>2019-07-10T07:46:55Z</time>
      </trkpt>
      <trkpt lat="45.08194" lon="2.75727">
        <ele>1330.12</ele>
        <time>2019-07-10T07:47:01Z</time>
      </trkpt>
      <trkpt lat="45.0818" lon="2.75737">
        <ele>1331.56</ele>
        <time>2019-07-10T07:47:19Z</time>
      </trkpt>
      <trkpt lat="45.08165" lon="2.75749">
        <ele>1332.52</ele>
        <time>2019-07-10T07:47:32Z</time>
      </trkpt>
      <trkpt lat="45.08155" lon="2.75757">
        <ele>1333.49</ele>
        <time>2019-07-10T07:47:44Z</time>
      </trkpt>
      <trkpt lat="45.08149" lon="2.75763">
        <ele>1334.45</ele>
        <time>2019-07-10T07:47:54Z</time>
      </trkpt>
      <trkpt lat="45.08136" lon="2.7577">
        <ele>1335.89</ele>
        <time>2019-07-10T07:48:09Z</time>
      </trkpt>
      <trkpt lat="45.0813" lon="2.75774">
        <ele>1336.37</ele>
        <time>2019-07-10T07:48:18Z</time>
      </trkpt>
      <trkpt lat="45.08122" lon="2.75778">
        <ele>1337.33</ele>
        <time>2019-07-10T07:48:27Z</time>
      </trkpt>
      <trkpt lat="45.08114" lon="2.75785">
        <ele>1339.73</ele>
        <time>2019-07-10T07:48:40Z</time>
      </trkpt>
      <trkpt lat="45.08109" lon="2.75791">
        <ele>1340.7</ele>
        <time>2019-07-10T07:48:51Z</time>
      </trkpt>
      <trkpt lat="45.08104" lon="2.75794">
        <ele>1342.14</ele>
        <time>2019-07-10T07:49:00Z</time>
      </trkpt>
      <trkpt lat="45.081" lon="2.75798">
        <ele>1344.06</ele>
        <time>2019-07-10T07:49:11Z</time>
      </trkpt>
      <trkpt lat="45.08097" lon="2.75805">
        <ele>1345.98</ele>
        <time>2019-07-10T07:49:21Z</time>
      </trkpt>
      <trkpt lat="45.08096" lon="2.75805">
        <ele>1346.46</ele>
        <time>2019-07-10T07:49:22Z</time>
      </trkpt>
      <trkpt lat="45.0809" lon="2.75815">
        <ele>1347.91</ele>
        <time>2019-07-10T07:49:34Z</time>
      </trkpt>
      <trkpt lat="45.08089" lon="2.75825">
        <ele>1349.35</ele>
        <time>2019-07-10T07:49:46Z</time>
      </trkpt>
      <trkpt lat="45.08085" lon="2.75833">
        <ele>1351.75</ele>
        <time>2019-07-10T07:49:56Z</time>
      </trkpt>
      <trkpt lat="45.08078" lon="2.75836">
        <ele>1353.19</ele>
        <time>2019-07-10T07:50:08Z</time>
      </trkpt>
      <trkpt lat="45.08077" lon="2.75838">
        <ele>1353.67</ele>
        <time>2019-07-10T07:50:23Z</time>
      </trkpt>
      <trkpt lat="45.08077" lon="2.75838">
        <ele>1353.67</ele>
        <time>2019-07-10T07:50:53Z</time>
      </trkpt>
      <trkpt lat="45.08079" lon="2.75838">
        <ele>1354.63</ele>
        <time>2019-07-10T07:51:11Z</time>
      </trkpt>
      <trkpt lat="45.0808" lon="2.75838">
        <ele>1354.15</ele>
        <time>2019-07-10T07:51:57Z</time>
      </trkpt>
      <trkpt lat="45.0808" lon="2.75838">
        <ele>1355.12</ele>
        <time>2019-07-10T07:52:32Z</time>
      </trkpt>
      <trkpt lat="45.0808" lon="2.75838">
        <ele>1354.63</ele>
        <time>2019-07-10T07:53:21Z</time>
      </trkpt>
      <trkpt lat="45.08083" lon="2.75835">
        <ele>1354.63</ele>
        <time>2019-07-10T07:53:43Z</time>
      </trkpt>
      <trkpt lat="45.08084" lon="2.75837">
        <ele>1355.12</ele>
        <time>2019-07-10T07:54:03Z</time>
      </trkpt>
      <trkpt lat="45.08083" lon="2.75838">
        <ele>1355.12</ele>
        <time>2019-07-10T07:54:50Z</time>
      </trkpt>
      <trkpt lat="45.08088" lon="2.75841">
        <ele>1357.04</ele>
        <time>2019-07-10T07:55:00Z</time>
      </trkpt>
      <trkpt lat="45.08093" lon="2.75846">
        <ele>1358.96</ele>
        <time>2019-07-10T07:55:15Z</time>
      </trkpt>
      <trkpt lat="45.08103" lon="2.75851">
        <ele>1360.88</ele>
        <time>2019-07-10T07:55:31Z</time>
      </trkpt>
      <trkpt lat="45.08116" lon="2.75852">
        <ele>1361.84</ele>
        <time>2019-07-10T07:55:42Z</time>
      </trkpt>
      <trkpt lat="45.08129" lon="2.75852">
        <ele>1361.84</ele>
        <time>2019-07-10T07:55:56Z</time>
      </trkpt>
      <trkpt lat="45.0813" lon="2.75853">
        <ele>1361.36</ele>
        <time>2019-07-10T07:55:58Z</time>
      </trkpt>
      <trkpt lat="45.08133" lon="2.75854">
        <ele>1361.36</ele>
        <time>2019-07-10T07:56:02Z</time>
      </trkpt>
      <trkpt lat="45.08138" lon="2.75855">
        <ele>1361.84</ele>
        <time>2019-07-10T07:56:07Z</time>
      </trkpt>
      <trkpt lat="45.0815" lon="2.75854">
        <ele>1362.81</ele>
        <time>2019-07-10T07:56:19Z</time>
      </trkpt>
      <trkpt lat="45.08157" lon="2.75856">
        <ele>1363.29</ele>
        <time>2019-07-10T07:56:29Z</time>
      </trkpt>
      <trkpt lat="45.08169" lon="2.75858">
        <ele>1363.29</ele>
        <time>2019-07-10T07:56:41Z</time>
      </trkpt>
      <trkpt lat="45.08177" lon="2.75857">
        <ele>1363.77</ele>
        <time>2019-07-10T07:56:50Z</time>
      </trkpt>
      <trkpt lat="45.08181" lon="2.75856">
        <ele>1364.25</ele>
        <time>2019-07-10T07:56:54Z</time>
      </trkpt>
      <trkpt lat="45.08191" lon="2.75855">
        <ele>1365.21</ele>
        <time>2019-07-10T07:57:07Z</time>
      </trkpt>
      <trkpt lat="45.08194" lon="2.75855">
        <ele>1365.69</ele>
        <time>2019-07-10T07:57:10Z</time>
      </trkpt>
      <trkpt lat="45.08196" lon="2.75855">
        <ele>1366.17</ele>
        <time>2019-07-10T07:57:12Z</time>
      </trkpt>
      <trkpt lat="45.08205" lon="2.75856">
        <ele>1367.61</ele>
        <time>2019-07-10T07:57:23Z</time>
      </trkpt>
      <trkpt lat="45.08214" lon="2.75861">
        <ele>1366.65</ele>
        <time>2019-07-10T07:57:35Z</time>
      </trkpt>
      <trkpt lat="45.08226" lon="2.75862">
        <ele>1368.09</ele>
        <time>2019-07-10T07:57:49Z</time>
      </trkpt>
      <trkpt lat="45.08237" lon="2.75861">
        <ele>1369.54</ele>
        <time>2019-07-10T07:58:02Z</time>
      </trkpt>
      <trkpt lat="45.08245" lon="2.75861">
        <ele>1370.02</ele>
        <time>2019-07-10T07:58:10Z</time>
      </trkpt>
      <trkpt lat="45.08247" lon="2.7586">
        <ele>1370.02</ele>
        <time>2019-07-10T07:58:12Z</time>
      </trkpt>
      <trkpt lat="45.08256" lon="2.75859">
        <ele>1370.5</ele>
        <time>2019-07-10T07:58:23Z</time>
      </trkpt>
      <trkpt lat="45.08261" lon="2.75861">
        <ele>1371.94</ele>
        <time>2019-07-10T07:58:35Z</time>
      </trkpt>
      <trkpt lat="45.08258" lon="2.75869">
        <ele>1372.9</ele>
        <time>2019-07-10T07:58:46Z</time>
      </trkpt>
      <trkpt lat="45.08248" lon="2.75878">
        <ele>1374.34</ele>
        <time>2019-07-10T07:58:59Z</time>
      </trkpt>
      <trkpt lat="45.08245" lon="2.75882">
        <ele>1374.82</ele>
        <time>2019-07-10T07:59:03Z</time>
      </trkpt>
      <trkpt lat="45.0824" lon="2.75889">
        <ele>1375.3</ele>
        <time>2019-07-10T07:59:13Z</time>
      </trkpt>
      <trkpt lat="45.08234" lon="2.75893">
        <ele>1375.78</ele>
        <time>2019-07-10T07:59:22Z</time>
      </trkpt>
      <trkpt lat="45.08221" lon="2.75899">
        <ele>1376.26</ele>
        <time>2019-07-10T07:59:35Z</time>
      </trkpt>
      <trkpt lat="45.08212" lon="2.75898">
        <ele>1376.75</ele>
        <time>2019-07-10T07:59:46Z</time>
      </trkpt>
      <trkpt lat="45.08206" lon="2.75895">
        <ele>1378.19</ele>
        <time>2019-07-10T08:00:00Z</time>
      </trkpt>
      <trkpt lat="45.08193" lon="2.75901">
        <ele>1378.67</ele>
        <time>2019-07-10T08:00:13Z</time>
      </trkpt>
      <trkpt lat="45.08189" lon="2.75904">
        <ele>1378.67</ele>
        <time>2019-07-10T08:00:20Z</time>
      </trkpt>
      <trkpt lat="45.0818" lon="2.75909">
        <ele>1379.63</ele>
        <time>2019-07-10T08:00:31Z</time>
      </trkpt>
      <trkpt lat="45.08176" lon="2.75911">
        <ele>1380.11</ele>
        <time>2019-07-10T08:00:34Z</time>
      </trkpt>
      <trkpt lat="45.08168" lon="2.75918">
        <ele>1381.07</ele>
        <time>2019-07-10T08:00:46Z</time>
      </trkpt>
      <trkpt lat="45.0816" lon="2.75924">
        <ele>1382.99</ele>
        <time>2019-07-10T08:00:58Z</time>
      </trkpt>
      <trkpt lat="45.08154" lon="2.75927">
        <ele>1383.96</ele>
        <time>2019-07-10T08:01:08Z</time>
      </trkpt>
      <trkpt lat="45.08145" lon="2.75937">
        <ele>1384.92</ele>
        <time>2019-07-10T08:01:20Z</time>
      </trkpt>
      <trkpt lat="45.08153" lon="2.75942">
        <ele>1386.84</ele>
        <time>2019-07-10T08:01:32Z</time>
      </trkpt>
      <trkpt lat="45.08157" lon="2.75942">
        <ele>1388.28</ele>
        <time>2019-07-10T08:01:44Z</time>
      </trkpt>
      <trkpt lat="45.08163" lon="2.7594">
        <ele>1389.72</ele>
        <time>2019-07-10T08:01:55Z</time>
      </trkpt>
      <trkpt lat="45.08169" lon="2.75941">
        <ele>1390.68</ele>
        <time>2019-07-10T08:02:05Z</time>
      </trkpt>
      <trkpt lat="45.08172" lon="2.75942">
        <ele>1391.65</ele>
        <time>2019-07-10T08:02:18Z</time>
      </trkpt>
      <trkpt lat="45.08178" lon="2.75944">
        <ele>1393.57</ele>
        <time>2019-07-10T08:02:29Z</time>
      </trkpt>
      <trkpt lat="45.08186" lon="2.75946">
        <ele>1395.01</ele>
        <time>2019-07-10T08:02:39Z</time>
      </trkpt>
      <trkpt lat="45.0819" lon="2.75947">
        <ele>1395.97</ele>
        <time>2019-07-10T08:02:48Z</time>
      </trkpt>
      <trkpt lat="45.08197" lon="2.75952">
        <ele>1397.41</ele>
        <time>2019-07-10T08:02:57Z</time>
      </trkpt>
      <trkpt lat="45.08201" lon="2.75954">
        <ele>1398.37</ele>
        <time>2019-07-10T08:03:05Z</time>
      </trkpt>
      <trkpt lat="45.08205" lon="2.75956">
        <ele>1399.34</ele>
        <time>2019-07-10T08:03:08Z</time>
      </trkpt>
      <trkpt lat="45.08211" lon="2.75961">
        <ele>1400.3</ele>
        <time>2019-07-10T08:03:20Z</time>
      </trkpt>
      <trkpt lat="45.08217" lon="2.75967">
        <ele>1402.22</ele>
        <time>2019-07-10T08:03:32Z</time>
      </trkpt>
      <trkpt lat="45.08226" lon="2.75971">
        <ele>1403.66</ele>
        <time>2019-07-10T08:03:45Z</time>
      </trkpt>
      <trkpt lat="45.08234" lon="2.75973">
        <ele>1404.62</ele>
        <time>2019-07-10T08:03:57Z</time>
      </trkpt>
      <trkpt lat="45.08237" lon="2.75975">
        <ele>1404.62</ele>
        <time>2019-07-10T08:04:03Z</time>
      </trkpt>
      <trkpt lat="45.08246" lon="2.75974">
        <ele>1406.07</ele>
        <time>2019-07-10T08:04:15Z</time>
      </trkpt>
      <trkpt lat="45.08253" lon="2.75976">
        <ele>1407.03</ele>
        <time>2019-07-10T08:04:25Z</time>
      </trkpt>
      <trkpt lat="45.0826" lon="2.75974">
        <ele>1407.99</ele>
        <time>2019-07-10T08:04:34Z</time>
      </trkpt>
      <trkpt lat="45.08265" lon="2.75974">
        <ele>1409.43</ele>
        <time>2019-07-10T08:04:45Z</time>
      </trkpt>
      <trkpt lat="45.08271" lon="2.75973">
        <ele>1410.39</ele>
        <time>2019-07-10T08:04:55Z</time>
      </trkpt>
      <trkpt lat="45.08282" lon="2.75972">
        <ele>1410.87</ele>
        <time>2019-07-10T08:05:08Z</time>
      </trkpt>
      <trkpt lat="45.08292" lon="2.75969">
        <ele>1412.31</ele>
        <time>2019-07-10T08:05:19Z</time>
      </trkpt>
      <trkpt lat="45.08299" lon="2.75964">
        <ele>1414.72</ele>
        <time>2019-07-10T08:05:30Z</time>
      </trkpt>
      <trkpt lat="45.08307" lon="2.75961">
        <ele>1414.72</ele>
        <time>2019-07-10T08:05:42Z</time>
      </trkpt>
      <trkpt lat="45.08315" lon="2.75957">
        <ele>1416.16</ele>
        <time>2019-07-10T08:05:56Z</time>
      </trkpt>
      <trkpt lat="45.08325" lon="2.75953">
        <ele>1416.64</ele>
        <time>2019-07-10T08:06:07Z</time>
      </trkpt>
      <trkpt lat="45.08333" lon="2.7595">
        <ele>1418.08</ele>
        <time>2019-07-10T08:06:19Z</time>
      </trkpt>
      <trkpt lat="45.08341" lon="2.75947">
        <ele>1419.52</ele>
        <time>2019-07-10T08:06:29Z</time>
      </trkpt>
      <trkpt lat="45.08342" lon="2.75946">
        <ele>1420</ele>
        <time>2019-07-10T08:06:32Z</time>
      </trkpt>
      <trkpt lat="45.08345" lon="2.75945">
        <ele>1420.49</ele>
        <time>2019-07-10T08:06:36Z</time>
      </trkpt>
      <trkpt lat="45.08351" lon="2.75939">
        <ele>1421.93</ele>
        <time>2019-07-10T08:06:47Z</time>
      </trkpt>
      <trkpt lat="45.08357" lon="2.75935">
        <ele>1423.37</ele>
        <time>2019-07-10T08:06:58Z</time>
      </trkpt>
      <trkpt lat="45.08359" lon="2.75933">
        <ele>1423.85</ele>
        <time>2019-07-10T08:07:02Z</time>
      </trkpt>
      <trkpt lat="45.08364" lon="2.75929">
        <ele>1424.81</ele>
        <time>2019-07-10T08:07:13Z</time>
      </trkpt>
      <trkpt lat="45.0837" lon="2.75925">
        <ele>1426.73</ele>
        <time>2019-07-10T08:07:24Z</time>
      </trkpt>
      <trkpt lat="45.08378" lon="2.75915">
        <ele>1428.66</ele>
        <time>2019-07-10T08:07:36Z</time>
      </trkpt>
      <trkpt lat="45.08384" lon="2.75907">
        <ele>1429.62</ele>
        <time>2019-07-10T08:07:49Z</time>
      </trkpt>
      <trkpt lat="45.08389" lon="2.75899">
        <ele>1431.06</ele>
        <time>2019-07-10T08:07:59Z</time>
      </trkpt>
      <trkpt lat="45.08394" lon="2.75891">
        <ele>1432.5</ele>
        <time>2019-07-10T08:08:10Z</time>
      </trkpt>
      <trkpt lat="45.08401" lon="2.75883">
        <ele>1433.46</ele>
        <time>2019-07-10T08:08:20Z</time>
      </trkpt>
      <trkpt lat="45.08406" lon="2.75879">
        <ele>1434.91</ele>
        <time>2019-07-10T08:08:30Z</time>
      </trkpt>
      <trkpt lat="45.08412" lon="2.75876">
        <ele>1435.39</ele>
        <time>2019-07-10T08:08:39Z</time>
      </trkpt>
      <trkpt lat="45.08414" lon="2.75873">
        <ele>1435.87</ele>
        <time>2019-07-10T08:08:57Z</time>
      </trkpt>
      <trkpt lat="45.08414" lon="2.75873">
        <ele>1435.87</ele>
        <time>2019-07-10T08:09:22Z</time>
      </trkpt>
      <trkpt lat="45.08416" lon="2.75871">
        <ele>1435.87</ele>
        <time>2019-07-10T08:11:16Z</time>
      </trkpt>
      <trkpt lat="45.08416" lon="2.75871">
        <ele>1435.87</ele>
        <time>2019-07-10T08:11:59Z</time>
      </trkpt>
      <trkpt lat="45.08421" lon="2.75866">
        <ele>1436.35</ele>
        <time>2019-07-10T08:12:15Z</time>
      </trkpt>
      <trkpt lat="45.08426" lon="2.75861">
        <ele>1436.35</ele>
        <time>2019-07-10T08:12:22Z</time>
      </trkpt>
      <trkpt lat="45.08434" lon="2.75856">
        <ele>1437.79</ele>
        <time>2019-07-10T08:12:32Z</time>
      </trkpt>
      <trkpt lat="45.08435" lon="2.75854">
        <ele>1437.79</ele>
        <time>2019-07-10T08:12:34Z</time>
      </trkpt>
      <trkpt lat="45.08444" lon="2.7585">
        <ele>1439.23</ele>
        <time>2019-07-10T08:12:48Z</time>
      </trkpt>
      <trkpt lat="45.08453" lon="2.75846">
        <ele>1440.19</ele>
        <time>2019-07-10T08:12:59Z</time>
      </trkpt>
      <trkpt lat="45.08456" lon="2.75845">
        <ele>1439.71</ele>
        <time>2019-07-10T08:13:02Z</time>
      </trkpt>
      <trkpt lat="45.08468" lon="2.75844">
        <ele>1440.19</ele>
        <time>2019-07-10T08:13:16Z</time>
      </trkpt>
      <trkpt lat="45.08479" lon="2.75841">
        <ele>1440.19</ele>
        <time>2019-07-10T08:13:29Z</time>
      </trkpt>
      <trkpt lat="45.0849" lon="2.75841">
        <ele>1439.71</ele>
        <time>2019-07-10T08:13:41Z</time>
      </trkpt>
      <trkpt lat="45.08499" lon="2.75842">
        <ele>1439.23</ele>
        <time>2019-07-10T08:13:53Z</time>
      </trkpt>
      <trkpt lat="45.08507" lon="2.75841">
        <ele>1438.27</ele>
        <time>2019-07-10T08:14:05Z</time>
      </trkpt>
      <trkpt lat="45.08516" lon="2.75837">
        <ele>1437.79</ele>
        <time>2019-07-10T08:14:18Z</time>
      </trkpt>
      <trkpt lat="45.08526" lon="2.75834">
        <ele>1436.83</ele>
        <time>2019-07-10T08:14:30Z</time>
      </trkpt>
      <trkpt lat="45.08538" lon="2.75828">
        <ele>1436.35</ele>
        <time>2019-07-10T08:14:44Z</time>
      </trkpt>
      <trkpt lat="45.08547" lon="2.75821">
        <ele>1436.83</ele>
        <time>2019-07-10T08:14:56Z</time>
      </trkpt>
      <trkpt lat="45.08547" lon="2.7582">
        <ele>1436.83</ele>
        <time>2019-07-10T08:14:58Z</time>
      </trkpt>
      <trkpt lat="45.08551" lon="2.75818">
        <ele>1436.35</ele>
        <time>2019-07-10T08:15:04Z</time>
      </trkpt>
      <trkpt lat="45.08556" lon="2.7582">
        <ele>1438.27</ele>
        <time>2019-07-10T08:15:18Z</time>
      </trkpt>
      <trkpt lat="45.08563" lon="2.75818">
        <ele>1439.71</ele>
        <time>2019-07-10T08:15:24Z</time>
      </trkpt>
      <trkpt lat="45.08573" lon="2.7581">
        <ele>1440.67</ele>
        <time>2019-07-10T08:15:36Z</time>
      </trkpt>
      <trkpt lat="45.08579" lon="2.75801">
        <ele>1442.11</ele>
        <time>2019-07-10T08:15:48Z</time>
      </trkpt>
      <trkpt lat="45.08584" lon="2.75803">
        <ele>1443.56</ele>
        <time>2019-07-10T08:16:00Z</time>
      </trkpt>
      <trkpt lat="45.08585" lon="2.7581">
        <ele>1444.52</ele>
        <time>2019-07-10T08:16:09Z</time>
      </trkpt>
      <trkpt lat="45.08588" lon="2.7582">
        <ele>1445.96</ele>
        <time>2019-07-10T08:16:20Z</time>
      </trkpt>
      <trkpt lat="45.08592" lon="2.75826">
        <ele>1447.4</ele>
        <time>2019-07-10T08:16:31Z</time>
      </trkpt>
      <trkpt lat="45.0859" lon="2.75836">
        <ele>1448.84</ele>
        <time>2019-07-10T08:16:44Z</time>
      </trkpt>
      <trkpt lat="45.08586" lon="2.75843">
        <ele>1449.81</ele>
        <time>2019-07-10T08:16:53Z</time>
      </trkpt>
      <trkpt lat="45.08579" lon="2.75851">
        <ele>1451.73</ele>
        <time>2019-07-10T08:17:04Z</time>
      </trkpt>
      <trkpt lat="45.08577" lon="2.75859">
        <ele>1453.65</ele>
        <time>2019-07-10T08:17:18Z</time>
      </trkpt>
      <trkpt lat="45.08571" lon="2.75864">
        <ele>1454.13</ele>
        <time>2019-07-10T08:17:32Z</time>
      </trkpt>
      <trkpt lat="45.08567" lon="2.7587">
        <ele>1455.57</ele>
        <time>2019-07-10T08:17:42Z</time>
      </trkpt>
      <trkpt lat="45.08561" lon="2.75878">
        <ele>1457.5</ele>
        <time>2019-07-10T08:17:53Z</time>
      </trkpt>
      <trkpt lat="45.08558" lon="2.75882">
        <ele>1457.5</ele>
        <time>2019-07-10T08:17:57Z</time>
      </trkpt>
      <trkpt lat="45.08556" lon="2.75883">
        <ele>1458.46</ele>
        <time>2019-07-10T08:17:59Z</time>
      </trkpt>
      <trkpt lat="45.08552" lon="2.75888">
        <ele>1457.5</ele>
        <time>2019-07-10T08:18:08Z</time>
      </trkpt>
      <trkpt lat="45.0855" lon="2.75892">
        <ele>1457.98</ele>
        <time>2019-07-10T08:18:19Z</time>
      </trkpt>
      <trkpt lat="45.08545" lon="2.75892">
        <ele>1458.46</ele>
        <time>2019-07-10T08:18:29Z</time>
      </trkpt>
      <trkpt lat="45.08538" lon="2.75895">
        <ele>1459.42</ele>
        <time>2019-07-10T08:18:39Z</time>
      </trkpt>
      <trkpt lat="45.0853" lon="2.75898">
        <ele>1459.42</ele>
        <time>2019-07-10T08:18:52Z</time>
      </trkpt>
      <trkpt lat="45.08528" lon="2.75897">
        <ele>1459.42</ele>
        <time>2019-07-10T08:19:03Z</time>
      </trkpt>
      <trkpt lat="45.08523" lon="2.75897">
        <ele>1458.46</ele>
        <time>2019-07-10T08:19:16Z</time>
      </trkpt>
      <trkpt lat="45.08515" lon="2.75897">
        <ele>1459.42</ele>
        <time>2019-07-10T08:19:27Z</time>
      </trkpt>
      <trkpt lat="45.0851" lon="2.75898">
        <ele>1460.38</ele>
        <time>2019-07-10T08:19:32Z</time>
      </trkpt>
      <trkpt lat="45.08498" lon="2.75897">
        <ele>1460.38</ele>
        <time>2019-07-10T08:19:44Z</time>
      </trkpt>
      <trkpt lat="45.08483" lon="2.75899">
        <ele>1462.3</ele>
        <time>2019-07-10T08:19:56Z</time>
      </trkpt>
      <trkpt lat="45.08474" lon="2.75904">
        <ele>1462.3</ele>
        <time>2019-07-10T08:20:12Z</time>
      </trkpt>
      <trkpt lat="45.08464" lon="2.75909">
        <ele>1462.3</ele>
        <time>2019-07-10T08:20:24Z</time>
      </trkpt>
      <trkpt lat="45.08455" lon="2.75913">
        <ele>1460.38</ele>
        <time>2019-07-10T08:20:37Z</time>
      </trkpt>
      <trkpt lat="45.08448" lon="2.75916">
        <ele>1458.94</ele>
        <time>2019-07-10T08:20:49Z</time>
      </trkpt>
      <trkpt lat="45.08444" lon="2.75922">
        <ele>1457.02</ele>
        <time>2019-07-10T08:21:01Z</time>
      </trkpt>
      <trkpt lat="45.08442" lon="2.75926">
        <ele>1455.09</ele>
        <time>2019-07-10T08:21:17Z</time>
      </trkpt>
      <trkpt lat="45.08439" lon="2.75929">
        <ele>1453.17</ele>
        <time>2019-07-10T08:21:30Z</time>
      </trkpt>
      <trkpt lat="45.0843" lon="2.7594">
        <ele>1451.25</ele>
        <time>2019-07-10T08:21:43Z</time>
      </trkpt>
      <trkpt lat="45.08422" lon="2.75944">
        <ele>1448.84</ele>
        <time>2019-07-10T08:21:57Z</time>
      </trkpt>
      <trkpt lat="45.08413" lon="2.75956">
        <ele>1448.36</ele>
        <time>2019-07-10T08:22:11Z</time>
      </trkpt>
      <trkpt lat="45.0841" lon="2.75962">
        <ele>1448.36</ele>
        <time>2019-07-10T08:22:24Z</time>
      </trkpt>
      <trkpt lat="45.08405" lon="2.7597">
        <ele>1446.92</ele>
        <time>2019-07-10T08:22:42Z</time>
      </trkpt>
      <trkpt lat="45.08399" lon="2.75983">
        <ele>1445.48</ele>
        <time>2019-07-10T08:22:55Z</time>
      </trkpt>
      <trkpt lat="45.08392" lon="2.7599">
        <ele>1444.52</ele>
        <time>2019-07-10T08:23:06Z</time>
      </trkpt>
      <trkpt lat="45.08386" lon="2.76003">
        <ele>1443.08</ele>
        <time>2019-07-10T08:23:17Z</time>
      </trkpt>
      <trkpt lat="45.08378" lon="2.76015">
        <ele>1443.08</ele>
        <time>2019-07-10T08:23:29Z</time>
      </trkpt>
      <trkpt lat="45.0837" lon="2.76026">
        <ele>1443.08</ele>
        <time>2019-07-10T08:23:42Z</time>
      </trkpt>
      <trkpt lat="45.08361" lon="2.76033">
        <ele>1441.63</ele>
        <time>2019-07-10T08:23:56Z</time>
      </trkpt>
      <trkpt lat="45.08351" lon="2.76033">
        <ele>1440.19</ele>
        <time>2019-07-10T08:24:11Z</time>
      </trkpt>
      <trkpt lat="45.08349" lon="2.76036">
        <ele>1439.23</ele>
        <time>2019-07-10T08:24:25Z</time>
      </trkpt>
      <trkpt lat="45.0834" lon="2.76039">
        <ele>1439.71</ele>
        <time>2019-07-10T08:24:36Z</time>
      </trkpt>
      <trkpt lat="45.08332" lon="2.76042">
        <ele>1441.15</ele>
        <time>2019-07-10T08:24:48Z</time>
      </trkpt>
      <trkpt lat="45.08324" lon="2.76044">
        <ele>1443.08</ele>
        <time>2019-07-10T08:25:01Z</time>
      </trkpt>
      <trkpt lat="45.08309" lon="2.76048">
        <ele>1443.56</ele>
        <time>2019-07-10T08:25:11Z</time>
      </trkpt>
      <trkpt lat="45.08306" lon="2.76051">
        <ele>1443.08</ele>
        <time>2019-07-10T08:25:17Z</time>
      </trkpt>
      <trkpt lat="45.08302" lon="2.76056">
        <ele>1444.04</ele>
        <time>2019-07-10T08:25:26Z</time>
      </trkpt>
      <trkpt lat="45.08289" lon="2.76063">
        <ele>1444.04</ele>
        <time>2019-07-10T08:25:35Z</time>
      </trkpt>
      <trkpt lat="45.0828" lon="2.76072">
        <ele>1445</ele>
        <time>2019-07-10T08:25:46Z</time>
      </trkpt>
      <trkpt lat="45.08269" lon="2.76083">
        <ele>1446.44</ele>
        <time>2019-07-10T08:26:00Z</time>
      </trkpt>
      <trkpt lat="45.08259" lon="2.76093">
        <ele>1447.4</ele>
        <time>2019-07-10T08:26:12Z</time>
      </trkpt>
      <trkpt lat="45.08251" lon="2.76097">
        <ele>1448.84</ele>
        <time>2019-07-10T08:26:24Z</time>
      </trkpt>
      <trkpt lat="45.08248" lon="2.76099">
        <ele>1449.81</ele>
        <time>2019-07-10T08:26:31Z</time>
      </trkpt>
      <trkpt lat="45.08244" lon="2.76103">
        <ele>1450.77</ele>
        <time>2019-07-10T08:26:36Z</time>
      </trkpt>
      <trkpt lat="45.08238" lon="2.76113">
        <ele>1452.69</ele>
        <time>2019-07-10T08:26:51Z</time>
      </trkpt>
      <trkpt lat="45.08237" lon="2.76121">
        <ele>1453.65</ele>
        <time>2019-07-10T08:27:04Z</time>
      </trkpt>
      <trkpt lat="45.08234" lon="2.76131">
        <ele>1455.09</ele>
        <time>2019-07-10T08:27:16Z</time>
      </trkpt>
      <trkpt lat="45.08225" lon="2.76134">
        <ele>1455.57</ele>
        <time>2019-07-10T08:27:25Z</time>
      </trkpt>
      <trkpt lat="45.08219" lon="2.7614">
        <ele>1457.02</ele>
        <time>2019-07-10T08:27:35Z</time>
      </trkpt>
      <trkpt lat="45.08212" lon="2.76147">
        <ele>1458.94</ele>
        <time>2019-07-10T08:27:48Z</time>
      </trkpt>
      <trkpt lat="45.08207" lon="2.76149">
        <ele>1461.34</ele>
        <time>2019-07-10T08:28:00Z</time>
      </trkpt>
      <trkpt lat="45.08204" lon="2.76151">
        <ele>1463.26</ele>
        <time>2019-07-10T08:28:08Z</time>
      </trkpt>
      <trkpt lat="45.08197" lon="2.76155">
        <ele>1465.19</ele>
        <time>2019-07-10T08:28:22Z</time>
      </trkpt>
      <trkpt lat="45.08191" lon="2.76158">
        <ele>1467.59</ele>
        <time>2019-07-10T08:28:35Z</time>
      </trkpt>
      <trkpt lat="45.08189" lon="2.76161">
        <ele>1469.03</ele>
        <time>2019-07-10T08:28:48Z</time>
      </trkpt>
      <trkpt lat="45.08188" lon="2.76168">
        <ele>1471.44</ele>
        <time>2019-07-10T08:29:02Z</time>
      </trkpt>
      <trkpt lat="45.08189" lon="2.76171">
        <ele>1472.4</ele>
        <time>2019-07-10T08:29:13Z</time>
      </trkpt>
      <trkpt lat="45.08184" lon="2.76172">
        <ele>1473.84</ele>
        <time>2019-07-10T08:29:25Z</time>
      </trkpt>
      <trkpt lat="45.0818" lon="2.76175">
        <ele>1473.84</ele>
        <time>2019-07-10T08:29:34Z</time>
      </trkpt>
      <trkpt lat="45.08174" lon="2.76184">
        <ele>1473.84</ele>
        <time>2019-07-10T08:29:47Z</time>
      </trkpt>
      <trkpt lat="45.08172" lon="2.76186">
        <ele>1472.88</ele>
        <time>2019-07-10T08:30:00Z</time>
      </trkpt>
      <trkpt lat="45.0817" lon="2.76189">
        <ele>1472.4</ele>
        <time>2019-07-10T08:30:45Z</time>
      </trkpt>
      <trkpt lat="45.08168" lon="2.7619">
        <ele>1471.44</ele>
        <time>2019-07-10T08:31:07Z</time>
      </trkpt>
      <trkpt lat="45.08168" lon="2.76191">
        <ele>1471.44</ele>
        <time>2019-07-10T08:31:08Z</time>
      </trkpt>
      <trkpt lat="45.08164" lon="2.76202">
        <ele>1472.88</ele>
        <time>2019-07-10T08:31:19Z</time>
      </trkpt>
      <trkpt lat="45.0816" lon="2.7621">
        <ele>1472.4</ele>
        <time>2019-07-10T08:31:31Z</time>
      </trkpt>
      <trkpt lat="45.08158" lon="2.76221">
        <ele>1471.44</ele>
        <time>2019-07-10T08:31:44Z</time>
      </trkpt>
      <trkpt lat="45.08157" lon="2.76228">
        <ele>1470.95</ele>
        <time>2019-07-10T08:31:49Z</time>
      </trkpt>
      <trkpt lat="45.08156" lon="2.76241">
        <ele>1472.4</ele>
        <time>2019-07-10T08:32:03Z</time>
      </trkpt>
      <trkpt lat="45.08154" lon="2.76251">
        <ele>1474.32</ele>
        <time>2019-07-10T08:32:15Z</time>
      </trkpt>
      <trkpt lat="45.08152" lon="2.76257">
        <ele>1475.28</ele>
        <time>2019-07-10T08:32:29Z</time>
      </trkpt>
      <trkpt lat="45.08149" lon="2.76262">
        <ele>1475.76</ele>
        <time>2019-07-10T08:32:39Z</time>
      </trkpt>
      <trkpt lat="45.08143" lon="2.76268">
        <ele>1475.28</ele>
        <time>2019-07-10T08:32:50Z</time>
      </trkpt>
      <trkpt lat="45.08138" lon="2.76276">
        <ele>1476.24</ele>
        <time>2019-07-10T08:33:01Z</time>
      </trkpt>
      <trkpt lat="45.08131" lon="2.7628">
        <ele>1476.72</ele>
        <time>2019-07-10T08:33:14Z</time>
      </trkpt>
      <trkpt lat="45.0813" lon="2.76281">
        <ele>1477.2</ele>
        <time>2019-07-10T08:33:16Z</time>
      </trkpt>
      <trkpt lat="45.08124" lon="2.76283">
        <ele>1477.2</ele>
        <time>2019-07-10T08:33:28Z</time>
      </trkpt>
      <trkpt lat="45.08116" lon="2.7629">
        <ele>1476.24</ele>
        <time>2019-07-10T08:33:40Z</time>
      </trkpt>
      <trkpt lat="45.08109" lon="2.76297">
        <ele>1477.68</ele>
        <time>2019-07-10T08:33:50Z</time>
      </trkpt>
      <trkpt lat="45.08105" lon="2.76304">
        <ele>1477.68</ele>
        <time>2019-07-10T08:34:00Z</time>
      </trkpt>
      <trkpt lat="45.081" lon="2.76309">
        <ele>1477.2</ele>
        <time>2019-07-10T08:34:13Z</time>
      </trkpt>
      <trkpt lat="45.08094" lon="2.76317">
        <ele>1476.24</ele>
        <time>2019-07-10T08:34:26Z</time>
      </trkpt>
      <trkpt lat="45.08093" lon="2.7632">
        <ele>1476.72</ele>
        <time>2019-07-10T08:34:36Z</time>
      </trkpt>
      <trkpt lat="45.08087" lon="2.76321">
        <ele>1475.76</ele>
        <time>2019-07-10T08:34:46Z</time>
      </trkpt>
      <trkpt lat="45.08085" lon="2.76317">
        <ele>1475.76</ele>
        <time>2019-07-10T08:35:00Z</time>
      </trkpt>
      <trkpt lat="45.08085" lon="2.76315">
        <ele>1475.28</ele>
        <time>2019-07-10T08:35:16Z</time>
      </trkpt>
      <trkpt lat="45.08085" lon="2.76314">
        <ele>1475.76</ele>
        <time>2019-07-10T08:36:04Z</time>
      </trkpt>
      <trkpt lat="45.08084" lon="2.76322">
        <ele>1477.2</ele>
        <time>2019-07-10T08:36:16Z</time>
      </trkpt>
      <trkpt lat="45.08081" lon="2.76324">
        <ele>1477.68</ele>
        <time>2019-07-10T08:36:31Z</time>
      </trkpt>
      <trkpt lat="45.08081" lon="2.76324">
        <ele>1478.16</ele>
        <time>2019-07-10T08:37:09Z</time>
      </trkpt>
      <trkpt lat="45.0808" lon="2.76324">
        <ele>1478.65</ele>
        <time>2019-07-10T08:38:28Z</time>
      </trkpt>
      <trkpt lat="45.08079" lon="2.76325">
        <ele>1478.65</ele>
        <time>2019-07-10T08:39:23Z</time>
      </trkpt>
      <trkpt lat="45.08079" lon="2.76325">
        <ele>1479.61</ele>
        <time>2019-07-10T08:39:42Z</time>
      </trkpt>
      <trkpt lat="45.08076" lon="2.76327">
        <ele>1480.57</ele>
        <time>2019-07-10T08:41:06Z</time>
      </trkpt>
      <trkpt lat="45.08068" lon="2.76331">
        <ele>1480.09</ele>
        <time>2019-07-10T08:41:19Z</time>
      </trkpt>
      <trkpt lat="45.08062" lon="2.76335">
        <ele>1480.57</ele>
        <time>2019-07-10T08:41:25Z</time>
      </trkpt>
      <trkpt lat="45.08059" lon="2.76336">
        <ele>1481.05</ele>
        <time>2019-07-10T08:41:29Z</time>
      </trkpt>
      <trkpt lat="45.0805" lon="2.76342">
        <ele>1482.49</ele>
        <time>2019-07-10T08:41:40Z</time>
      </trkpt>
      <trkpt lat="45.08044" lon="2.76351">
        <ele>1483.93</ele>
        <time>2019-07-10T08:41:51Z</time>
      </trkpt>
      <trkpt lat="45.08039" lon="2.76352">
        <ele>1485.85</ele>
        <time>2019-07-10T08:42:01Z</time>
      </trkpt>
      <trkpt lat="45.08033" lon="2.7636">
        <ele>1487.3</ele>
        <time>2019-07-10T08:42:15Z</time>
      </trkpt>
      <trkpt lat="45.08026" lon="2.76364">
        <ele>1488.26</ele>
        <time>2019-07-10T08:42:27Z</time>
      </trkpt>
      <trkpt lat="45.08021" lon="2.76366">
        <ele>1490.18</ele>
        <time>2019-07-10T08:42:38Z</time>
      </trkpt>
      <trkpt lat="45.08018" lon="2.76367">
        <ele>1492.1</ele>
        <time>2019-07-10T08:42:44Z</time>
      </trkpt>
      <trkpt lat="45.08012" lon="2.76373">
        <ele>1492.58</ele>
        <time>2019-07-10T08:42:56Z</time>
      </trkpt>
      <trkpt lat="45.08008" lon="2.76374">
        <ele>1495.95</ele>
        <time>2019-07-10T08:43:06Z</time>
      </trkpt>
      <trkpt lat="45.08001" lon="2.76379">
        <ele>1496.43</ele>
        <time>2019-07-10T08:43:17Z</time>
      </trkpt>
      <trkpt lat="45.07998" lon="2.76384">
        <ele>1497.87</ele>
        <time>2019-07-10T08:43:27Z</time>
      </trkpt>
      <trkpt lat="45.07997" lon="2.76387">
        <ele>1498.35</ele>
        <time>2019-07-10T08:43:44Z</time>
      </trkpt>
      <trkpt lat="45.07992" lon="2.76392">
        <ele>1500.27</ele>
        <time>2019-07-10T08:43:57Z</time>
      </trkpt>
      <trkpt lat="45.07987" lon="2.76398">
        <ele>1502.68</ele>
        <time>2019-07-10T08:44:10Z</time>
      </trkpt>
      <trkpt lat="45.07982" lon="2.76404">
        <ele>1505.08</ele>
        <time>2019-07-10T08:44:21Z</time>
      </trkpt>
      <trkpt lat="45.07975" lon="2.76408">
        <ele>1506.52</ele>
        <time>2019-07-10T08:44:33Z</time>
      </trkpt>
      <trkpt lat="45.07971" lon="2.76415">
        <ele>1507.97</ele>
        <time>2019-07-10T08:44:44Z</time>
      </trkpt>
      <trkpt lat="45.07967" lon="2.76423">
        <ele>1510.37</ele>
        <time>2019-07-10T08:44:57Z</time>
      </trkpt>
      <trkpt lat="45.07965" lon="2.76427">
        <ele>1511.81</ele>
        <time>2019-07-10T08:45:01Z</time>
      </trkpt>
      <trkpt lat="45.07962" lon="2.76431">
        <ele>1509.41</ele>
        <time>2019-07-10T08:45:09Z</time>
      </trkpt>
      <trkpt lat="45.07961" lon="2.76432">
        <ele>1512.77</ele>
        <time>2019-07-10T08:45:11Z</time>
      </trkpt>
      <trkpt lat="45.0796" lon="2.76433">
        <ele>1512.29</ele>
        <time>2019-07-10T08:45:12Z</time>
      </trkpt>
      <trkpt lat="45.07953" lon="2.76441">
        <ele>1512.77</ele>
        <time>2019-07-10T08:45:24Z</time>
      </trkpt>
      <trkpt lat="45.07948" lon="2.7645">
        <ele>1512.29</ele>
        <time>2019-07-10T08:45:37Z</time>
      </trkpt>
      <trkpt lat="45.07945" lon="2.76455">
        <ele>1515.66</ele>
        <time>2019-07-10T08:45:44Z</time>
      </trkpt>
      <trkpt lat="45.07939" lon="2.76464">
        <ele>1516.14</ele>
        <time>2019-07-10T08:45:56Z</time>
      </trkpt>
      <trkpt lat="45.07931" lon="2.76474">
        <ele>1516.62</ele>
        <time>2019-07-10T08:46:08Z</time>
      </trkpt>
      <trkpt lat="45.07926" lon="2.7648">
        <ele>1518.06</ele>
        <time>2019-07-10T08:46:21Z</time>
      </trkpt>
      <trkpt lat="45.07923" lon="2.76487">
        <ele>1520.94</ele>
        <time>2019-07-10T08:46:33Z</time>
      </trkpt>
      <trkpt lat="45.07919" lon="2.76494">
        <ele>1520.94</ele>
        <time>2019-07-10T08:46:46Z</time>
      </trkpt>
      <trkpt lat="45.07917" lon="2.76499">
        <ele>1522.39</ele>
        <time>2019-07-10T08:46:57Z</time>
      </trkpt>
      <trkpt lat="45.07916" lon="2.76505">
        <ele>1521.9</ele>
        <time>2019-07-10T08:47:04Z</time>
      </trkpt>
      <trkpt lat="45.07915" lon="2.76506">
        <ele>1525.27</ele>
        <time>2019-07-10T08:47:08Z</time>
      </trkpt>
      <trkpt lat="45.0791" lon="2.76507">
        <ele>1526.71</ele>
        <time>2019-07-10T08:47:19Z</time>
      </trkpt>
      <trkpt lat="45.07906" lon="2.76509">
        <ele>1527.67</ele>
        <time>2019-07-10T08:47:30Z</time>
      </trkpt>
      <trkpt lat="45.07902" lon="2.76513">
        <ele>1529.11</ele>
        <time>2019-07-10T08:47:43Z</time>
      </trkpt>
      <trkpt lat="45.07899" lon="2.76521">
        <ele>1530.08</ele>
        <time>2019-07-10T08:47:55Z</time>
      </trkpt>
      <trkpt lat="45.07895" lon="2.76527">
        <ele>1532.96</ele>
        <time>2019-07-10T08:48:06Z</time>
      </trkpt>
      <trkpt lat="45.07891" lon="2.76529">
        <ele>1535.84</ele>
        <time>2019-07-10T08:48:14Z</time>
      </trkpt>
      <trkpt lat="45.07885" lon="2.76536">
        <ele>1537.77</ele>
        <time>2019-07-10T08:48:27Z</time>
      </trkpt>
      <trkpt lat="45.07879" lon="2.76539">
        <ele>1539.69</ele>
        <time>2019-07-10T08:48:41Z</time>
      </trkpt>
      <trkpt lat="45.07879" lon="2.76539">
        <ele>1540.65</ele>
        <time>2019-07-10T08:48:43Z</time>
      </trkpt>
      <trkpt lat="45.07877" lon="2.7654">
        <ele>1542.09</ele>
        <time>2019-07-10T08:48:50Z</time>
      </trkpt>
      <trkpt lat="45.07875" lon="2.76542">
        <ele>1543.53</ele>
        <time>2019-07-10T08:48:56Z</time>
      </trkpt>
      <trkpt lat="45.0787" lon="2.76549">
        <ele>1544.01</ele>
        <time>2019-07-10T08:49:08Z</time>
      </trkpt>
      <trkpt lat="45.07867" lon="2.76553">
        <ele>1544.98</ele>
        <time>2019-07-10T08:49:18Z</time>
      </trkpt>
      <trkpt lat="45.07864" lon="2.76556">
        <ele>1546.9</ele>
        <time>2019-07-10T08:49:26Z</time>
      </trkpt>
      <trkpt lat="45.07859" lon="2.76561">
        <ele>1549.3</ele>
        <time>2019-07-10T08:49:34Z</time>
      </trkpt>
      <trkpt lat="45.07854" lon="2.76565">
        <ele>1550.26</ele>
        <time>2019-07-10T08:49:44Z</time>
      </trkpt>
      <trkpt lat="45.07852" lon="2.76566">
        <ele>1550.26</ele>
        <time>2019-07-10T08:49:49Z</time>
      </trkpt>
      <trkpt lat="45.07846" lon="2.76569">
        <ele>1552.67</ele>
        <time>2019-07-10T08:50:01Z</time>
      </trkpt>
      <trkpt lat="45.07842" lon="2.7657">
        <ele>1554.11</ele>
        <time>2019-07-10T08:50:10Z</time>
      </trkpt>
      <trkpt lat="45.07837" lon="2.76572">
        <ele>1555.55</ele>
        <time>2019-07-10T08:50:20Z</time>
      </trkpt>
      <trkpt lat="45.07833" lon="2.76574">
        <ele>1556.51</ele>
        <time>2019-07-10T08:50:31Z</time>
      </trkpt>
      <trkpt lat="45.07829" lon="2.76575">
        <ele>1555.55</ele>
        <time>2019-07-10T08:50:39Z</time>
      </trkpt>
      <trkpt lat="45.07829" lon="2.76575">
        <ele>1557.47</ele>
        <time>2019-07-10T08:50:42Z</time>
      </trkpt>
      <trkpt lat="45.07828" lon="2.76576">
        <ele>1556.03</ele>
        <time>2019-07-10T08:50:45Z</time>
      </trkpt>
      <trkpt lat="45.07823" lon="2.76577">
        <ele>1557.47</ele>
        <time>2019-07-10T08:50:59Z</time>
      </trkpt>
      <trkpt lat="45.07818" lon="2.76579">
        <ele>1557.95</ele>
        <time>2019-07-10T08:51:09Z</time>
      </trkpt>
      <trkpt lat="45.07813" lon="2.76584">
        <ele>1560.84</ele>
        <time>2019-07-10T08:51:20Z</time>
      </trkpt>
      <trkpt lat="45.07816" lon="2.76587">
        <ele>1561.32</ele>
        <time>2019-07-10T08:51:31Z</time>
      </trkpt>
      <trkpt lat="45.07818" lon="2.76591">
        <ele>1561.8</ele>
        <time>2019-07-10T08:51:42Z</time>
      </trkpt>
      <trkpt lat="45.07817" lon="2.76594">
        <ele>1558.43</ele>
        <time>2019-07-10T08:51:45Z</time>
      </trkpt>
      <trkpt lat="45.07818" lon="2.76596">
        <ele>1561.8</ele>
        <time>2019-07-10T08:51:47Z</time>
      </trkpt>
      <trkpt lat="45.07818" lon="2.76597">
        <ele>1561.32</ele>
        <time>2019-07-10T08:51:48Z</time>
      </trkpt>
      <trkpt lat="45.07817" lon="2.76604">
        <ele>1562.76</ele>
        <time>2019-07-10T08:51:59Z</time>
      </trkpt>
      <trkpt lat="45.07816" lon="2.76608">
        <ele>1568.53</ele>
        <time>2019-07-10T08:52:03Z</time>
      </trkpt>
      <trkpt lat="45.07813" lon="2.76613">
        <ele>1570.45</ele>
        <time>2019-07-10T08:52:15Z</time>
      </trkpt>
      <trkpt lat="45.07809" lon="2.76612">
        <ele>1571.41</ele>
        <time>2019-07-10T08:52:27Z</time>
      </trkpt>
      <trkpt lat="45.07804" lon="2.76609">
        <ele>1574.3</ele>
        <time>2019-07-10T08:52:39Z</time>
      </trkpt>
      <trkpt lat="45.07804" lon="2.76609">
        <ele>1574.78</ele>
        <time>2019-07-10T08:52:40Z</time>
      </trkpt>
      <trkpt lat="45.07798" lon="2.76607">
        <ele>1575.26</ele>
        <time>2019-07-10T08:52:52Z</time>
      </trkpt>
      <trkpt lat="45.07796" lon="2.76609">
        <ele>1576.22</ele>
        <time>2019-07-10T08:52:57Z</time>
      </trkpt>
      <trkpt lat="45.07791" lon="2.7661">
        <ele>1574.78</ele>
        <time>2019-07-10T08:53:08Z</time>
      </trkpt>
      <trkpt lat="45.07787" lon="2.76613">
        <ele>1577.18</ele>
        <time>2019-07-10T08:53:20Z</time>
      </trkpt>
      <trkpt lat="45.07787" lon="2.76621">
        <ele>1579.1</ele>
        <time>2019-07-10T08:53:32Z</time>
      </trkpt>
      <trkpt lat="45.07786" lon="2.76628">
        <ele>1579.58</ele>
        <time>2019-07-10T08:53:45Z</time>
      </trkpt>
      <trkpt lat="45.07788" lon="2.76631">
        <ele>1580.54</ele>
        <time>2019-07-10T08:53:51Z</time>
      </trkpt>
      <trkpt lat="45.0779" lon="2.76635">
        <ele>1580.54</ele>
        <time>2019-07-10T08:53:57Z</time>
      </trkpt>
      <trkpt lat="45.07788" lon="2.7664">
        <ele>1583.91</ele>
        <time>2019-07-10T08:54:04Z</time>
      </trkpt>
      <trkpt lat="45.07784" lon="2.76642">
        <ele>1587.27</ele>
        <time>2019-07-10T08:54:13Z</time>
      </trkpt>
      <trkpt lat="45.07779" lon="2.76637">
        <ele>1587.75</ele>
        <time>2019-07-10T08:54:25Z</time>
      </trkpt>
      <trkpt lat="45.07772" lon="2.76635">
        <ele>1591.12</ele>
        <time>2019-07-10T08:54:37Z</time>
      </trkpt>
      <trkpt lat="45.07767" lon="2.76633">
        <ele>1591.6</ele>
        <time>2019-07-10T08:54:50Z</time>
      </trkpt>
      <trkpt lat="45.0776" lon="2.76632">
        <ele>1593.52</ele>
        <time>2019-07-10T08:55:02Z</time>
      </trkpt>
      <trkpt lat="45.07756" lon="2.76633">
        <ele>1594</ele>
        <time>2019-07-10T08:55:11Z</time>
      </trkpt>
      <trkpt lat="45.07749" lon="2.76634">
        <ele>1594.48</ele>
        <time>2019-07-10T08:55:24Z</time>
      </trkpt>
      <trkpt lat="45.07742" lon="2.76638">
        <ele>1595.93</ele>
        <time>2019-07-10T08:55:37Z</time>
      </trkpt>
      <trkpt lat="45.07741" lon="2.76641">
        <ele>1597.85</ele>
        <time>2019-07-10T08:55:51Z</time>
      </trkpt>
      <trkpt lat="45.07744" lon="2.76644">
        <ele>1598.81</ele>
        <time>2019-07-10T08:56:01Z</time>
      </trkpt>
      <trkpt lat="45.07745" lon="2.76645">
        <ele>1599.29</ele>
        <time>2019-07-10T08:56:03Z</time>
      </trkpt>
      <trkpt lat="45.07746" lon="2.76653">
        <ele>1602.17</ele>
        <time>2019-07-10T08:56:14Z</time>
      </trkpt>
      <trkpt lat="45.07746" lon="2.7666">
        <ele>1605.54</ele>
        <time>2019-07-10T08:56:22Z</time>
      </trkpt>
      <trkpt lat="45.07746" lon="2.7666">
        <ele>1605.06</ele>
        <time>2019-07-10T08:56:23Z</time>
      </trkpt>
      <trkpt lat="45.07743" lon="2.76661">
        <ele>1606.5</ele>
        <time>2019-07-10T08:56:34Z</time>
      </trkpt>
      <trkpt lat="45.07743" lon="2.76661">
        <ele>1606.02</ele>
        <time>2019-07-10T08:56:36Z</time>
      </trkpt>
      <trkpt lat="45.0774" lon="2.76661">
        <ele>1607.94</ele>
        <time>2019-07-10T08:56:40Z</time>
      </trkpt>
      <trkpt lat="45.07738" lon="2.76663">
        <ele>1608.42</ele>
        <time>2019-07-10T08:56:47Z</time>
      </trkpt>
      <trkpt lat="45.07734" lon="2.76667">
        <ele>1609.38</ele>
        <time>2019-07-10T08:56:55Z</time>
      </trkpt>
      <trkpt lat="45.07733" lon="2.76667">
        <ele>1610.83</ele>
        <time>2019-07-10T08:57:06Z</time>
      </trkpt>
      <trkpt lat="45.0773" lon="2.76672">
        <ele>1611.79</ele>
        <time>2019-07-10T08:57:15Z</time>
      </trkpt>
      <trkpt lat="45.07726" lon="2.76674">
        <ele>1613.23</ele>
        <time>2019-07-10T08:57:25Z</time>
      </trkpt>
      <trkpt lat="45.07722" lon="2.76678">
        <ele>1615.15</ele>
        <time>2019-07-10T08:57:35Z</time>
      </trkpt>
      <trkpt lat="45.07718" lon="2.76681">
        <ele>1617.07</ele>
        <time>2019-07-10T08:57:46Z</time>
      </trkpt>
      <trkpt lat="45.07711" lon="2.76684">
        <ele>1619.96</ele>
        <time>2019-07-10T08:57:57Z</time>
      </trkpt>
      <trkpt lat="45.07711" lon="2.76685">
        <ele>1618.52</ele>
        <time>2019-07-10T08:57:59Z</time>
      </trkpt>
      <trkpt lat="45.07706" lon="2.7669">
        <ele>1621.4</ele>
        <time>2019-07-10T08:58:09Z</time>
      </trkpt>
      <trkpt lat="45.07706" lon="2.76691">
        <ele>1619.48</ele>
        <time>2019-07-10T08:58:13Z</time>
      </trkpt>
      <trkpt lat="45.07706" lon="2.76691">
        <ele>1619.96</ele>
        <time>2019-07-10T08:58:18Z</time>
      </trkpt>
      <trkpt lat="45.07706" lon="2.76691">
        <ele>1620.44</ele>
        <time>2019-07-10T08:58:28Z</time>
      </trkpt>
      <trkpt lat="45.07706" lon="2.76691">
        <ele>1619</ele>
        <time>2019-07-10T08:58:31Z</time>
      </trkpt>
      <trkpt lat="45.07705" lon="2.7669">
        <ele>1619.96</ele>
        <time>2019-07-10T08:58:52Z</time>
      </trkpt>
      <trkpt lat="45.07704" lon="2.76691">
        <ele>1620.92</ele>
        <time>2019-07-10T08:59:35Z</time>
      </trkpt>
      <trkpt lat="45.07704" lon="2.76691">
        <ele>1619.96</ele>
        <time>2019-07-10T09:00:27Z</time>
      </trkpt>
      <trkpt lat="45.07705" lon="2.76691">
        <ele>1619.96</ele>
        <time>2019-07-10T09:00:53Z</time>
      </trkpt>
      <trkpt lat="45.07705" lon="2.76691">
        <ele>1619.96</ele>
        <time>2019-07-10T09:01:30Z</time>
      </trkpt>
      <trkpt lat="45.07705" lon="2.76691">
        <ele>1619.48</ele>
        <time>2019-07-10T09:05:19Z</time>
      </trkpt>
      <trkpt lat="45.07705" lon="2.76691">
        <ele>1619.48</ele>
        <time>2019-07-10T09:07:05Z</time>
      </trkpt>
      <trkpt lat="45.07705" lon="2.76693">
        <ele>1621.4</ele>
        <time>2019-07-10T09:07:53Z</time>
      </trkpt>
      <trkpt lat="45.07705" lon="2.76702">
        <ele>1622.36</ele>
        <time>2019-07-10T09:08:04Z</time>
      </trkpt>
      <trkpt lat="45.07705" lon="2.76709">
        <ele>1622.84</ele>
        <time>2019-07-10T09:08:15Z</time>
      </trkpt>
      <trkpt lat="45.07703" lon="2.7672">
        <ele>1626.21</ele>
        <time>2019-07-10T09:08:29Z</time>
      </trkpt>
      <trkpt lat="45.07701" lon="2.76724">
        <ele>1627.17</ele>
        <time>2019-07-10T09:08:39Z</time>
      </trkpt>
      <trkpt lat="45.07694" lon="2.76719">
        <ele>1629.09</ele>
        <time>2019-07-10T09:08:53Z</time>
      </trkpt>
      <trkpt lat="45.07687" lon="2.76719">
        <ele>1631.49</ele>
        <time>2019-07-10T09:09:06Z</time>
      </trkpt>
      <trkpt lat="45.07686" lon="2.76722">
        <ele>1632.94</ele>
        <time>2019-07-10T09:09:15Z</time>
      </trkpt>
      <trkpt lat="45.07687" lon="2.76729">
        <ele>1634.86</ele>
        <time>2019-07-10T09:09:27Z</time>
      </trkpt>
      <trkpt lat="45.07688" lon="2.76739">
        <ele>1636.78</ele>
        <time>2019-07-10T09:09:39Z</time>
      </trkpt>
      <trkpt lat="45.07686" lon="2.76748">
        <ele>1638.7</ele>
        <time>2019-07-10T09:09:51Z</time>
      </trkpt>
      <trkpt lat="45.07685" lon="2.76753">
        <ele>1639.67</ele>
        <time>2019-07-10T09:10:02Z</time>
      </trkpt>
      <trkpt lat="45.07682" lon="2.7676">
        <ele>1641.59</ele>
        <time>2019-07-10T09:10:13Z</time>
      </trkpt>
      <trkpt lat="45.07679" lon="2.76758">
        <ele>1642.07</ele>
        <time>2019-07-10T09:10:23Z</time>
      </trkpt>
      <trkpt lat="45.07676" lon="2.76755">
        <ele>1643.99</ele>
        <time>2019-07-10T09:10:32Z</time>
      </trkpt>
      <trkpt lat="45.07672" lon="2.76751">
        <ele>1645.91</ele>
        <time>2019-07-10T09:10:43Z</time>
      </trkpt>
      <trkpt lat="45.07668" lon="2.76746">
        <ele>1648.32</ele>
        <time>2019-07-10T09:10:54Z</time>
      </trkpt>
      <trkpt lat="45.07664" lon="2.76745">
        <ele>1650.24</ele>
        <time>2019-07-10T09:11:04Z</time>
      </trkpt>
      <trkpt lat="45.07663" lon="2.76747">
        <ele>1651.2</ele>
        <time>2019-07-10T09:11:08Z</time>
      </trkpt>
      <trkpt lat="45.07661" lon="2.76753">
        <ele>1651.2</ele>
        <time>2019-07-10T09:11:18Z</time>
      </trkpt>
      <trkpt lat="45.07659" lon="2.76759">
        <ele>1652.16</ele>
        <time>2019-07-10T09:11:24Z</time>
      </trkpt>
      <trkpt lat="45.07657" lon="2.76769">
        <ele>1654.09</ele>
        <time>2019-07-10T09:11:34Z</time>
      </trkpt>
      <trkpt lat="45.07657" lon="2.76769">
        <ele>1654.09</ele>
        <time>2019-07-10T09:11:35Z</time>
      </trkpt>
      <trkpt lat="45.07658" lon="2.76772">
        <ele>1655.05</ele>
        <time>2019-07-10T09:11:37Z</time>
      </trkpt>
      <trkpt lat="45.07657" lon="2.76781">
        <ele>1655.05</ele>
        <time>2019-07-10T09:11:47Z</time>
      </trkpt>
      <trkpt lat="45.07657" lon="2.76783">
        <ele>1656.01</ele>
        <time>2019-07-10T09:11:56Z</time>
      </trkpt>
      <trkpt lat="45.0766" lon="2.76793">
        <ele>1655.53</ele>
        <time>2019-07-10T09:12:09Z</time>
      </trkpt>
      <trkpt lat="45.07664" lon="2.76808">
        <ele>1655.53</ele>
        <time>2019-07-10T09:12:23Z</time>
      </trkpt>
      <trkpt lat="45.07666" lon="2.76819">
        <ele>1656.97</ele>
        <time>2019-07-10T09:12:33Z</time>
      </trkpt>
      <trkpt lat="45.07666" lon="2.76822">
        <ele>1656.49</ele>
        <time>2019-07-10T09:12:35Z</time>
      </trkpt>
      <trkpt lat="45.07669" lon="2.76829">
        <ele>1655.05</ele>
        <time>2019-07-10T09:12:42Z</time>
      </trkpt>
      <trkpt lat="45.07673" lon="2.76842">
        <ele>1656.01</ele>
        <time>2019-07-10T09:12:54Z</time>
      </trkpt>
      <trkpt lat="45.07677" lon="2.76856">
        <ele>1656.97</ele>
        <time>2019-07-10T09:13:07Z</time>
      </trkpt>
      <trkpt lat="45.07677" lon="2.76857">
        <ele>1656.97</ele>
        <time>2019-07-10T09:13:08Z</time>
      </trkpt>
      <trkpt lat="45.07681" lon="2.76869">
        <ele>1655.53</ele>
        <time>2019-07-10T09:13:19Z</time>
      </trkpt>
      <trkpt lat="45.07687" lon="2.7688">
        <ele>1654.57</ele>
        <time>2019-07-10T09:13:30Z</time>
      </trkpt>
      <trkpt lat="45.0769" lon="2.76894">
        <ele>1655.53</ele>
        <time>2019-07-10T09:13:42Z</time>
      </trkpt>
      <trkpt lat="45.07691" lon="2.76903">
        <ele>1655.53</ele>
        <time>2019-07-10T09:13:52Z</time>
      </trkpt>
      <trkpt lat="45.07697" lon="2.76916">
        <ele>1655.53</ele>
        <time>2019-07-10T09:14:06Z</time>
      </trkpt>
      <trkpt lat="45.07702" lon="2.76925">
        <ele>1655.53</ele>
        <time>2019-07-10T09:14:17Z</time>
      </trkpt>
      <trkpt lat="45.07704" lon="2.76932">
        <ele>1656.97</ele>
        <time>2019-07-10T09:14:24Z</time>
      </trkpt>
      <trkpt lat="45.07708" lon="2.76937">
        <ele>1656.97</ele>
        <time>2019-07-10T09:14:34Z</time>
      </trkpt>
      <trkpt lat="45.07709" lon="2.76937">
        <ele>1656.97</ele>
        <time>2019-07-10T09:14:36Z</time>
      </trkpt>
      <trkpt lat="45.07713" lon="2.76948">
        <ele>1657.93</ele>
        <time>2019-07-10T09:14:48Z</time>
      </trkpt>
      <trkpt lat="45.07716" lon="2.76953">
        <ele>1658.89</ele>
        <time>2019-07-10T09:14:54Z</time>
      </trkpt>
      <trkpt lat="45.07724" lon="2.76959">
        <ele>1657.93</ele>
        <time>2019-07-10T09:15:06Z</time>
      </trkpt>
      <trkpt lat="45.07731" lon="2.76968">
        <ele>1658.89</ele>
        <time>2019-07-10T09:15:19Z</time>
      </trkpt>
      <trkpt lat="45.07737" lon="2.76977">
        <ele>1659.37</ele>
        <time>2019-07-10T09:15:30Z</time>
      </trkpt>
      <trkpt lat="45.07741" lon="2.76986">
        <ele>1656.97</ele>
        <time>2019-07-10T09:15:41Z</time>
      </trkpt>
      <trkpt lat="45.07744" lon="2.76996">
        <ele>1656.97</ele>
        <time>2019-07-10T09:15:52Z</time>
      </trkpt>
      <trkpt lat="45.07745" lon="2.77005">
        <ele>1655.05</ele>
        <time>2019-07-10T09:16:05Z</time>
      </trkpt>
      <trkpt lat="45.07746" lon="2.77019">
        <ele>1653.12</ele>
        <time>2019-07-10T09:16:19Z</time>
      </trkpt>
      <trkpt lat="45.07746" lon="2.77037">
        <ele>1654.09</ele>
        <time>2019-07-10T09:16:35Z</time>
      </trkpt>
      <trkpt lat="45.07749" lon="2.77052">
        <ele>1653.6</ele>
        <time>2019-07-10T09:16:48Z</time>
      </trkpt>
      <trkpt lat="45.07748" lon="2.77066">
        <ele>1654.57</ele>
        <time>2019-07-10T09:17:03Z</time>
      </trkpt>
      <trkpt lat="45.07746" lon="2.77071">
        <ele>1654.09</ele>
        <time>2019-07-10T09:17:12Z</time>
      </trkpt>
      <trkpt lat="45.07746" lon="2.77071">
        <ele>1655.53</ele>
        <time>2019-07-10T09:18:53Z</time>
      </trkpt>
      <trkpt lat="45.07746" lon="2.77069">
        <ele>1655.05</ele>
        <time>2019-07-10T09:19:35Z</time>
      </trkpt>
      <trkpt lat="45.07745" lon="2.77067">
        <ele>1656.97</ele>
        <time>2019-07-10T09:19:53Z</time>
      </trkpt>
      <trkpt lat="45.07741" lon="2.77062">
        <ele>1658.89</ele>
        <time>2019-07-10T09:20:05Z</time>
      </trkpt>
      <trkpt lat="45.07739" lon="2.77057">
        <ele>1659.85</ele>
        <time>2019-07-10T09:20:16Z</time>
      </trkpt>
      <trkpt lat="45.07735" lon="2.77052">
        <ele>1662.74</ele>
        <time>2019-07-10T09:20:28Z</time>
      </trkpt>
      <trkpt lat="45.07734" lon="2.77048">
        <ele>1664.66</ele>
        <time>2019-07-10T09:20:39Z</time>
      </trkpt>
      <trkpt lat="45.07731" lon="2.77044">
        <ele>1666.1</ele>
        <time>2019-07-10T09:20:51Z</time>
      </trkpt>
      <trkpt lat="45.07728" lon="2.77036">
        <ele>1668.02</ele>
        <time>2019-07-10T09:21:00Z</time>
      </trkpt>
      <trkpt lat="45.07726" lon="2.7703">
        <ele>1669.47</ele>
        <time>2019-07-10T09:21:09Z</time>
      </trkpt>
      <trkpt lat="45.07726" lon="2.7703">
        <ele>1671.39</ele>
        <time>2019-07-10T09:21:13Z</time>
      </trkpt>
      <trkpt lat="45.07722" lon="2.77032">
        <ele>1672.83</ele>
        <time>2019-07-10T09:21:25Z</time>
      </trkpt>
      <trkpt lat="45.07718" lon="2.77027">
        <ele>1675.72</ele>
        <time>2019-07-10T09:21:33Z</time>
      </trkpt>
      <trkpt lat="45.07716" lon="2.77027">
        <ele>1675.72</ele>
        <time>2019-07-10T09:21:39Z</time>
      </trkpt>
      <trkpt lat="45.0771" lon="2.77027">
        <ele>1679.08</ele>
        <time>2019-07-10T09:21:50Z</time>
      </trkpt>
      <trkpt lat="45.07708" lon="2.77027">
        <ele>1681</ele>
        <time>2019-07-10T09:22:07Z</time>
      </trkpt>
      <trkpt lat="45.07702" lon="2.77026">
        <ele>1683.41</ele>
        <time>2019-07-10T09:22:20Z</time>
      </trkpt>
      <trkpt lat="45.07699" lon="2.77028">
        <ele>1685.33</ele>
        <time>2019-07-10T09:22:27Z</time>
      </trkpt>
      <trkpt lat="45.07696" lon="2.7703">
        <ele>1686.29</ele>
        <time>2019-07-10T09:22:38Z</time>
      </trkpt>
      <trkpt lat="45.07694" lon="2.77031">
        <ele>1686.29</ele>
        <time>2019-07-10T09:22:52Z</time>
      </trkpt>
      <trkpt lat="45.07689" lon="2.77032">
        <ele>1686.29</ele>
        <time>2019-07-10T09:23:02Z</time>
      </trkpt>
      <trkpt lat="45.07689" lon="2.77032">
        <ele>1689.65</ele>
        <time>2019-07-10T09:23:07Z</time>
      </trkpt>
      <trkpt lat="45.07689" lon="2.77032">
        <ele>1690.62</ele>
        <time>2019-07-10T09:23:09Z</time>
      </trkpt>
      <trkpt lat="45.07684" lon="2.77031">
        <ele>1691.1</ele>
        <time>2019-07-10T09:23:19Z</time>
      </trkpt>
      <trkpt lat="45.0768" lon="2.7703">
        <ele>1693.5</ele>
        <time>2019-07-10T09:23:29Z</time>
      </trkpt>
      <trkpt lat="45.07675" lon="2.77029">
        <ele>1695.9</ele>
        <time>2019-07-10T09:23:40Z</time>
      </trkpt>
      <trkpt lat="45.07672" lon="2.77029">
        <ele>1694.94</ele>
        <time>2019-07-10T09:23:44Z</time>
      </trkpt>
      <trkpt lat="45.07667" lon="2.77029">
        <ele>1696.38</ele>
        <time>2019-07-10T09:23:58Z</time>
      </trkpt>
      <trkpt lat="45.07667" lon="2.77029">
        <ele>1696.38</ele>
        <time>2019-07-10T09:24:12Z</time>
      </trkpt>
      <trkpt lat="45.07663" lon="2.77031">
        <ele>1695.42</ele>
        <time>2019-07-10T09:24:30Z</time>
      </trkpt>
      <trkpt lat="45.07661" lon="2.7703">
        <ele>1698.79</ele>
        <time>2019-07-10T09:24:39Z</time>
      </trkpt>
      <trkpt lat="45.0766" lon="2.77029">
        <ele>1697.34</ele>
        <time>2019-07-10T09:24:42Z</time>
      </trkpt>
      <trkpt lat="45.07653" lon="2.77026">
        <ele>1698.79</ele>
        <time>2019-07-10T09:24:53Z</time>
      </trkpt>
      <trkpt lat="45.07651" lon="2.77025">
        <ele>1700.71</ele>
        <time>2019-07-10T09:25:05Z</time>
      </trkpt>
      <trkpt lat="45.07651" lon="2.77024">
        <ele>1702.63</ele>
        <time>2019-07-10T09:25:15Z</time>
      </trkpt>
      <trkpt lat="45.07647" lon="2.77022">
        <ele>1703.11</ele>
        <time>2019-07-10T09:25:28Z</time>
      </trkpt>
      <trkpt lat="45.07645" lon="2.77022">
        <ele>1705.52</ele>
        <time>2019-07-10T09:25:40Z</time>
      </trkpt>
      <trkpt lat="45.07645" lon="2.77022">
        <ele>1706.48</ele>
        <time>2019-07-10T09:25:44Z</time>
      </trkpt>
      <trkpt lat="45.07639" lon="2.77019">
        <ele>1709.36</ele>
        <time>2019-07-10T09:25:50Z</time>
      </trkpt>
      <trkpt lat="45.07639" lon="2.77019">
        <ele>1709.84</ele>
        <time>2019-07-10T09:25:52Z</time>
      </trkpt>
      <trkpt lat="45.07631" lon="2.77011">
        <ele>1708.88</ele>
        <time>2019-07-10T09:26:00Z</time>
      </trkpt>
      <trkpt lat="45.0762" lon="2.77002">
        <ele>1709.84</ele>
        <time>2019-07-10T09:26:13Z</time>
      </trkpt>
      <trkpt lat="45.07613" lon="2.76991">
        <ele>1709.36</ele>
        <time>2019-07-10T09:26:25Z</time>
      </trkpt>
      <trkpt lat="45.07609" lon="2.76985">
        <ele>1711.76</ele>
        <time>2019-07-10T09:26:33Z</time>
      </trkpt>
      <trkpt lat="45.07608" lon="2.76984">
        <ele>1711.28</ele>
        <time>2019-07-10T09:26:35Z</time>
      </trkpt>
      <trkpt lat="45.07604" lon="2.76977">
        <ele>1712.25</ele>
        <time>2019-07-10T09:26:42Z</time>
      </trkpt>
      <trkpt lat="45.076" lon="2.76974">
        <ele>1716.57</ele>
        <time>2019-07-10T09:26:49Z</time>
      </trkpt>
      <trkpt lat="45.07597" lon="2.76971">
        <ele>1716.57</ele>
        <time>2019-07-10T09:26:55Z</time>
      </trkpt>
      <trkpt lat="45.07592" lon="2.76965">
        <ele>1716.57</ele>
        <time>2019-07-10T09:27:07Z</time>
      </trkpt>
      <trkpt lat="45.07592" lon="2.76965">
        <ele>1716.09</ele>
        <time>2019-07-10T09:27:10Z</time>
      </trkpt>
      <trkpt lat="45.07585" lon="2.76956">
        <ele>1718.01</ele>
        <time>2019-07-10T09:27:22Z</time>
      </trkpt>
      <trkpt lat="45.07578" lon="2.76946">
        <ele>1718.49</ele>
        <time>2019-07-10T09:27:35Z</time>
      </trkpt>
      <trkpt lat="45.07572" lon="2.76941">
        <ele>1716.57</ele>
        <time>2019-07-10T09:27:44Z</time>
      </trkpt>
      <trkpt lat="45.07565" lon="2.76937">
        <ele>1717.53</ele>
        <time>2019-07-10T09:27:55Z</time>
      </trkpt>
      <trkpt lat="45.0756" lon="2.76936">
        <ele>1717.05</ele>
        <time>2019-07-10T09:28:04Z</time>
      </trkpt>
      <trkpt lat="45.07552" lon="2.7694">
        <ele>1716.09</ele>
        <time>2019-07-10T09:28:15Z</time>
      </trkpt>
      <trkpt lat="45.07543" lon="2.76945">
        <ele>1716.57</ele>
        <time>2019-07-10T09:28:28Z</time>
      </trkpt>
      <trkpt lat="45.07541" lon="2.76948">
        <ele>1714.65</ele>
        <time>2019-07-10T09:28:32Z</time>
      </trkpt>
      <trkpt lat="45.07539" lon="2.76949">
        <ele>1716.09</ele>
        <time>2019-07-10T09:28:35Z</time>
      </trkpt>
      <trkpt lat="45.07531" lon="2.7695">
        <ele>1716.09</ele>
        <time>2019-07-10T09:28:47Z</time>
      </trkpt>
      <trkpt lat="45.07526" lon="2.76948">
        <ele>1717.05</ele>
        <time>2019-07-10T09:28:54Z</time>
      </trkpt>
      <trkpt lat="45.07517" lon="2.76944">
        <ele>1715.61</ele>
        <time>2019-07-10T09:29:06Z</time>
      </trkpt>
      <trkpt lat="45.07516" lon="2.76944">
        <ele>1715.61</ele>
        <time>2019-07-10T09:29:07Z</time>
      </trkpt>
      <trkpt lat="45.07509" lon="2.76939">
        <ele>1717.05</ele>
        <time>2019-07-10T09:29:18Z</time>
      </trkpt>
      <trkpt lat="45.07504" lon="2.76936">
        <ele>1718.97</ele>
        <time>2019-07-10T09:29:29Z</time>
      </trkpt>
      <trkpt lat="45.07501" lon="2.76938">
        <ele>1718.97</ele>
        <time>2019-07-10T09:29:39Z</time>
      </trkpt>
      <trkpt lat="45.07501" lon="2.76938">
        <ele>1717.05</ele>
        <time>2019-07-10T09:29:48Z</time>
      </trkpt>
      <trkpt lat="45.07497" lon="2.76936">
        <ele>1717.05</ele>
        <time>2019-07-10T09:30:02Z</time>
      </trkpt>
      <trkpt lat="45.07488" lon="2.76928">
        <ele>1716.09</ele>
        <time>2019-07-10T09:30:15Z</time>
      </trkpt>
      <trkpt lat="45.07477" lon="2.76927">
        <ele>1713.69</ele>
        <time>2019-07-10T09:30:28Z</time>
      </trkpt>
      <trkpt lat="45.07473" lon="2.76926">
        <ele>1714.65</ele>
        <time>2019-07-10T09:30:36Z</time>
      </trkpt>
      <trkpt lat="45.07465" lon="2.76923">
        <ele>1716.09</ele>
        <time>2019-07-10T09:30:44Z</time>
      </trkpt>
      <trkpt lat="45.07458" lon="2.76918">
        <ele>1717.05</ele>
        <time>2019-07-10T09:30:55Z</time>
      </trkpt>
      <trkpt lat="45.07457" lon="2.76917">
        <ele>1718.49</ele>
        <time>2019-07-10T09:30:57Z</time>
      </trkpt>
      <trkpt lat="45.07452" lon="2.76913">
        <ele>1720.42</ele>
        <time>2019-07-10T09:31:05Z</time>
      </trkpt>
      <trkpt lat="45.0745" lon="2.76912">
        <ele>1722.34</ele>
        <time>2019-07-10T09:31:12Z</time>
      </trkpt>
      <trkpt lat="45.07446" lon="2.7691">
        <ele>1722.34</ele>
        <time>2019-07-10T09:31:23Z</time>
      </trkpt>
      <trkpt lat="45.07442" lon="2.7691">
        <ele>1722.34</ele>
        <time>2019-07-10T09:31:33Z</time>
      </trkpt>
      <trkpt lat="45.0744" lon="2.76909">
        <ele>1724.74</ele>
        <time>2019-07-10T09:31:44Z</time>
      </trkpt>
      <trkpt lat="45.0744" lon="2.76909">
        <ele>1725.7</ele>
        <time>2019-07-10T09:31:53Z</time>
      </trkpt>
      <trkpt lat="45.07434" lon="2.76907">
        <ele>1725.7</ele>
        <time>2019-07-10T09:32:03Z</time>
      </trkpt>
      <trkpt lat="45.07433" lon="2.76906">
        <ele>1726.67</ele>
        <time>2019-07-10T09:32:05Z</time>
      </trkpt>
      <trkpt lat="45.07424" lon="2.76898">
        <ele>1727.63</ele>
        <time>2019-07-10T09:32:18Z</time>
      </trkpt>
      <trkpt lat="45.07422" lon="2.76898">
        <ele>1727.63</ele>
        <time>2019-07-10T09:32:29Z</time>
      </trkpt>
      <trkpt lat="45.07422" lon="2.76898">
        <ele>1727.15</ele>
        <time>2019-07-10T09:33:46Z</time>
      </trkpt>
      <trkpt lat="45.07421" lon="2.76897">
        <ele>1728.59</ele>
        <time>2019-07-10T09:34:45Z</time>
      </trkpt>
      <trkpt lat="45.07416" lon="2.76893">
        <ele>1729.07</ele>
        <time>2019-07-10T09:34:57Z</time>
      </trkpt>
      <trkpt lat="45.07408" lon="2.76884">
        <ele>1728.59</ele>
        <time>2019-07-10T09:35:10Z</time>
      </trkpt>
      <trkpt lat="45.07405" lon="2.76881">
        <ele>1727.63</ele>
        <time>2019-07-10T09:35:25Z</time>
      </trkpt>
      <trkpt lat="45.07402" lon="2.7688">
        <ele>1728.11</ele>
        <time>2019-07-10T09:35:40Z</time>
      </trkpt>
      <trkpt lat="45.07402" lon="2.76881">
        <ele>1729.07</ele>
        <time>2019-07-10T09:35:54Z</time>
      </trkpt>
      <trkpt lat="45.074" lon="2.7688">
        <ele>1729.07</ele>
        <time>2019-07-10T09:36:09Z</time>
      </trkpt>
      <trkpt lat="45.07398" lon="2.76878">
        <ele>1730.51</ele>
        <time>2019-07-10T09:36:25Z</time>
      </trkpt>
      <trkpt lat="45.07398" lon="2.76876">
        <ele>1730.99</ele>
        <time>2019-07-10T09:36:38Z</time>
      </trkpt>
      <trkpt lat="45.07397" lon="2.76875">
        <ele>1730.99</ele>
        <time>2019-07-10T09:36:49Z</time>
      </trkpt>
      <trkpt lat="45.07398" lon="2.76876">
        <ele>1730.51</ele>
        <time>2019-07-10T09:37:02Z</time>
      </trkpt>
      <trkpt lat="45.07399" lon="2.76874">
        <ele>1730.51</ele>
        <time>2019-07-10T09:37:16Z</time>
      </trkpt>
      <trkpt lat="45.07398" lon="2.76874">
        <ele>1731.95</ele>
        <time>2019-07-10T09:37:26Z</time>
      </trkpt>
      <trkpt lat="45.07399" lon="2.76874">
        <ele>1730.51</ele>
        <time>2019-07-10T09:37:41Z</time>
      </trkpt>
      <trkpt lat="45.07397" lon="2.76875">
        <ele>1731.95</ele>
        <time>2019-07-10T09:37:58Z</time>
      </trkpt>
      <trkpt lat="45.07396" lon="2.76875">
        <ele>1731.95</ele>
        <time>2019-07-10T09:38:13Z</time>
      </trkpt>
      <trkpt lat="45.07396" lon="2.76875">
        <ele>1731.95</ele>
        <time>2019-07-10T09:39:52Z</time>
      </trkpt>
      <trkpt lat="45.07395" lon="2.76875">
        <ele>1732.43</ele>
        <time>2019-07-10T09:41:28Z</time>
      </trkpt>
      <trkpt lat="45.07396" lon="2.76875">
        <ele>1733.39</ele>
        <time>2019-07-10T09:43:09Z</time>
      </trkpt>
      <trkpt lat="45.07395" lon="2.76875">
        <ele>1734.36</ele>
        <time>2019-07-10T09:43:13Z</time>
      </trkpt>
      <trkpt lat="45.07393" lon="2.76873">
        <ele>1734.84</ele>
        <time>2019-07-10T09:43:43Z</time>
      </trkpt>
      <trkpt lat="45.07391" lon="2.76877">
        <ele>1736.76</ele>
        <time>2019-07-10T09:43:52Z</time>
      </trkpt>
      <trkpt lat="45.0739" lon="2.76876">
        <ele>1734.84</ele>
        <time>2019-07-10T09:44:59Z</time>
      </trkpt>
      <trkpt lat="45.07388" lon="2.76875">
        <ele>1736.76</ele>
        <time>2019-07-10T09:45:06Z</time>
      </trkpt>
      <trkpt lat="45.07381" lon="2.76873">
        <ele>1735.8</ele>
        <time>2019-07-10T09:45:19Z</time>
      </trkpt>
      <trkpt lat="45.07373" lon="2.76871">
        <ele>1735.8</ele>
        <time>2019-07-10T09:45:31Z</time>
      </trkpt>
      <trkpt lat="45.07366" lon="2.76873">
        <ele>1737.24</ele>
        <time>2019-07-10T09:45:42Z</time>
      </trkpt>
      <trkpt lat="45.07362" lon="2.76873">
        <ele>1737.24</ele>
        <time>2019-07-10T09:45:57Z</time>
      </trkpt>
      <trkpt lat="45.0736" lon="2.76874">
        <ele>1738.2</ele>
        <time>2019-07-10T09:46:00Z</time>
      </trkpt>
      <trkpt lat="45.07356" lon="2.76874">
        <ele>1738.2</ele>
        <time>2019-07-10T09:46:04Z</time>
      </trkpt>
      <trkpt lat="45.07347" lon="2.76876">
        <ele>1739.16</ele>
        <time>2019-07-10T09:46:16Z</time>
      </trkpt>
      <trkpt lat="45.07344" lon="2.76876">
        <ele>1740.6</ele>
        <time>2019-07-10T09:46:20Z</time>
      </trkpt>
      <trkpt lat="45.07336" lon="2.76873">
        <ele>1742.05</ele>
        <time>2019-07-10T09:46:32Z</time>
      </trkpt>
      <trkpt lat="45.07334" lon="2.76871">
        <ele>1743.01</ele>
        <time>2019-07-10T09:46:36Z</time>
      </trkpt>
      <trkpt lat="45.07328" lon="2.76864">
        <ele>1744.93</ele>
        <time>2019-07-10T09:46:49Z</time>
      </trkpt>
      <trkpt lat="45.07323" lon="2.76856">
        <ele>1744.93</ele>
        <time>2019-07-10T09:47:02Z</time>
      </trkpt>
      <trkpt lat="45.07317" lon="2.7685">
        <ele>1746.37</ele>
        <time>2019-07-10T09:47:14Z</time>
      </trkpt>
      <trkpt lat="45.07314" lon="2.76846">
        <ele>1748.78</ele>
        <time>2019-07-10T09:47:26Z</time>
      </trkpt>
      <trkpt lat="45.07311" lon="2.76846">
        <ele>1750.7</ele>
        <time>2019-07-10T09:47:37Z</time>
      </trkpt>
      <trkpt lat="45.07308" lon="2.76845">
        <ele>1753.1</ele>
        <time>2019-07-10T09:47:48Z</time>
      </trkpt>
      <trkpt lat="45.07303" lon="2.76843">
        <ele>1755.02</ele>
        <time>2019-07-10T09:48:00Z</time>
      </trkpt>
      <trkpt lat="45.07301" lon="2.76842">
        <ele>1756.47</ele>
        <time>2019-07-10T09:48:09Z</time>
      </trkpt>
      <trkpt lat="45.07299" lon="2.76838">
        <ele>1758.39</ele>
        <time>2019-07-10T09:48:19Z</time>
      </trkpt>
      <trkpt lat="45.07296" lon="2.7684">
        <ele>1758.87</ele>
        <time>2019-07-10T09:48:30Z</time>
      </trkpt>
      <trkpt lat="45.07293" lon="2.76844">
        <ele>1761.75</ele>
        <time>2019-07-10T09:48:41Z</time>
      </trkpt>
      <trkpt lat="45.07293" lon="2.76853">
        <ele>1762.23</ele>
        <time>2019-07-10T09:48:51Z</time>
      </trkpt>
      <trkpt lat="45.07293" lon="2.76858">
        <ele>1763.2</ele>
        <time>2019-07-10T09:49:03Z</time>
      </trkpt>
      <trkpt lat="45.0729" lon="2.76861">
        <ele>1764.64</ele>
        <time>2019-07-10T09:49:16Z</time>
      </trkpt>
      <trkpt lat="45.07291" lon="2.76868">
        <ele>1766.08</ele>
        <time>2019-07-10T09:49:27Z</time>
      </trkpt>
      <trkpt lat="45.0729" lon="2.76868">
        <ele>1768</ele>
        <time>2019-07-10T09:49:29Z</time>
      </trkpt>
      <trkpt lat="45.07288" lon="2.76867">
        <ele>1769.44</ele>
        <time>2019-07-10T09:49:33Z</time>
      </trkpt>
      <trkpt lat="45.07285" lon="2.76864">
        <ele>1769.92</ele>
        <time>2019-07-10T09:49:43Z</time>
      </trkpt>
      <trkpt lat="45.07282" lon="2.7686">
        <ele>1771.85</ele>
        <time>2019-07-10T09:49:55Z</time>
      </trkpt>
      <trkpt lat="45.07275" lon="2.76859">
        <ele>1771.85</ele>
        <time>2019-07-10T09:50:07Z</time>
      </trkpt>
      <trkpt lat="45.07273" lon="2.76851">
        <ele>1773.29</ele>
        <time>2019-07-10T09:50:19Z</time>
      </trkpt>
      <trkpt lat="45.07271" lon="2.76844">
        <ele>1773.77</ele>
        <time>2019-07-10T09:50:29Z</time>
      </trkpt>
      <trkpt lat="45.07268" lon="2.76839">
        <ele>1774.73</ele>
        <time>2019-07-10T09:50:41Z</time>
      </trkpt>
      <trkpt lat="45.07268" lon="2.76839">
        <ele>1774.73</ele>
        <time>2019-07-10T09:50:42Z</time>
      </trkpt>
      <trkpt lat="45.07265" lon="2.76838">
        <ele>1776.65</ele>
        <time>2019-07-10T09:50:57Z</time>
      </trkpt>
      <trkpt lat="45.07265" lon="2.76838">
        <ele>1776.17</ele>
        <time>2019-07-10T09:51:40Z</time>
      </trkpt>
      <trkpt lat="45.07264" lon="2.76838">
        <ele>1777.61</ele>
        <time>2019-07-10T09:51:47Z</time>
      </trkpt>
      <trkpt lat="45.0726" lon="2.76838">
        <ele>1777.13</ele>
        <time>2019-07-10T09:51:53Z</time>
      </trkpt>
      <trkpt lat="45.07255" lon="2.76836">
        <ele>1777.13</ele>
        <time>2019-07-10T09:52:00Z</time>
      </trkpt>
      <trkpt lat="45.07248" lon="2.76829">
        <ele>1778.58</ele>
        <time>2019-07-10T09:52:13Z</time>
      </trkpt>
      <trkpt lat="45.07244" lon="2.76826">
        <ele>1780.02</ele>
        <time>2019-07-10T09:52:20Z</time>
      </trkpt>
      <trkpt lat="45.07236" lon="2.76818">
        <ele>1780.02</ele>
        <time>2019-07-10T09:52:32Z</time>
      </trkpt>
      <trkpt lat="45.07229" lon="2.76812">
        <ele>1780.98</ele>
        <time>2019-07-10T09:52:43Z</time>
      </trkpt>
      <trkpt lat="45.07222" lon="2.76809">
        <ele>1781.94</ele>
        <time>2019-07-10T09:52:54Z</time>
      </trkpt>
      <trkpt lat="45.0722" lon="2.76807">
        <ele>1783.38</ele>
        <time>2019-07-10T09:53:05Z</time>
      </trkpt>
      <trkpt lat="45.0722" lon="2.76807">
        <ele>1785.79</ele>
        <time>2019-07-10T09:53:17Z</time>
      </trkpt>
      <trkpt lat="45.0722" lon="2.76807">
        <ele>1786.75</ele>
        <time>2019-07-10T09:53:29Z</time>
      </trkpt>
      <trkpt lat="45.0722" lon="2.76807">
        <ele>1788.67</ele>
        <time>2019-07-10T09:53:41Z</time>
      </trkpt>
      <trkpt lat="45.07218" lon="2.76808">
        <ele>1788.19</ele>
        <time>2019-07-10T09:53:57Z</time>
      </trkpt>
      <trkpt lat="45.07218" lon="2.76808">
        <ele>1788.67</ele>
        <time>2019-07-10T09:54:10Z</time>
      </trkpt>
      <trkpt lat="45.07217" lon="2.76808">
        <ele>1787.23</ele>
        <time>2019-07-10T09:54:23Z</time>
      </trkpt>
      <trkpt lat="45.07217" lon="2.76808">
        <ele>1787.23</ele>
        <time>2019-07-10T09:54:54Z</time>
      </trkpt>
      <trkpt lat="45.07216" lon="2.76808">
        <ele>1787.71</ele>
        <time>2019-07-10T09:55:15Z</time>
      </trkpt>
      <trkpt lat="45.07213" lon="2.76806">
        <ele>1788.67</ele>
        <time>2019-07-10T09:55:31Z</time>
      </trkpt>
      <trkpt lat="45.07213" lon="2.76806">
        <ele>1788.19</ele>
        <time>2019-07-10T09:55:49Z</time>
      </trkpt>
      <trkpt lat="45.07203" lon="2.76807">
        <ele>1786.27</ele>
        <time>2019-07-10T09:56:03Z</time>
      </trkpt>
      <trkpt lat="45.07198" lon="2.76807">
        <ele>1786.27</ele>
        <time>2019-07-10T09:56:08Z</time>
      </trkpt>
      <trkpt lat="45.07184" lon="2.76809">
        <ele>1784.34</ele>
        <time>2019-07-10T09:56:23Z</time>
      </trkpt>
      <trkpt lat="45.07179" lon="2.76811">
        <ele>1782.9</ele>
        <time>2019-07-10T09:56:29Z</time>
      </trkpt>
      <trkpt lat="45.07169" lon="2.76821">
        <ele>1782.42</ele>
        <time>2019-07-10T09:56:42Z</time>
      </trkpt>
      <trkpt lat="45.07158" lon="2.76826">
        <ele>1783.86</ele>
        <time>2019-07-10T09:56:53Z</time>
      </trkpt>
      <trkpt lat="45.07154" lon="2.76829">
        <ele>1783.86</ele>
        <time>2019-07-10T09:56:58Z</time>
      </trkpt>
      <trkpt lat="45.07144" lon="2.76837">
        <ele>1784.82</ele>
        <time>2019-07-10T09:57:10Z</time>
      </trkpt>
      <trkpt lat="45.07138" lon="2.76838">
        <ele>1785.79</ele>
        <time>2019-07-10T09:57:22Z</time>
      </trkpt>
      <trkpt lat="45.07135" lon="2.76842">
        <ele>1787.71</ele>
        <time>2019-07-10T09:57:32Z</time>
      </trkpt>
      <trkpt lat="45.07132" lon="2.76844">
        <ele>1788.67</ele>
        <time>2019-07-10T09:57:40Z</time>
      </trkpt>
      <trkpt lat="45.0713" lon="2.76847">
        <ele>1790.59</ele>
        <time>2019-07-10T09:57:56Z</time>
      </trkpt>
      <trkpt lat="45.07129" lon="2.76847">
        <ele>1792.52</ele>
        <time>2019-07-10T09:58:06Z</time>
      </trkpt>
      <trkpt lat="45.07129" lon="2.76847">
        <ele>1793.96</ele>
        <time>2019-07-10T09:58:24Z</time>
      </trkpt>
      <trkpt lat="45.07127" lon="2.76846">
        <ele>1796.36</ele>
        <time>2019-07-10T09:58:28Z</time>
      </trkpt>
      <trkpt lat="45.07125" lon="2.76845">
        <ele>1798.28</ele>
        <time>2019-07-10T09:58:38Z</time>
      </trkpt>
      <trkpt lat="45.07125" lon="2.76845">
        <ele>1796.36</ele>
        <time>2019-07-10T09:58:52Z</time>
      </trkpt>
      <trkpt lat="45.07125" lon="2.76845">
        <ele>1793.48</ele>
        <time>2019-07-10T09:59:05Z</time>
      </trkpt>
      <trkpt lat="45.07123" lon="2.76847">
        <ele>1796.84</ele>
        <time>2019-07-10T09:59:07Z</time>
      </trkpt>
      <trkpt lat="45.07121" lon="2.76847">
        <ele>1795.4</ele>
        <time>2019-07-10T09:59:08Z</time>
      </trkpt>
      <trkpt lat="45.07111" lon="2.76854">
        <ele>1794.92</ele>
        <time>2019-07-10T09:59:22Z</time>
      </trkpt>
      <trkpt lat="45.07109" lon="2.76856">
        <ele>1793.48</ele>
        <time>2019-07-10T09:59:24Z</time>
      </trkpt>
      <trkpt lat="45.07097" lon="2.76863">
        <ele>1790.59</ele>
        <time>2019-07-10T09:59:37Z</time>
      </trkpt>
      <trkpt lat="45.07089" lon="2.76869">
        <ele>1791.55</ele>
        <time>2019-07-10T09:59:48Z</time>
      </trkpt>
      <trkpt lat="45.07085" lon="2.7687">
        <ele>1793</ele>
        <time>2019-07-10T09:59:57Z</time>
      </trkpt>
      <trkpt lat="45.07082" lon="2.76873">
        <ele>1794.44</ele>
        <time>2019-07-10T10:00:09Z</time>
      </trkpt>
      <trkpt lat="45.07079" lon="2.76875">
        <ele>1796.36</ele>
        <time>2019-07-10T10:00:19Z</time>
      </trkpt>
      <trkpt lat="45.07079" lon="2.76875">
        <ele>1799.24</ele>
        <time>2019-07-10T10:00:34Z</time>
      </trkpt>
      <trkpt lat="45.07079" lon="2.76876">
        <ele>1800.21</ele>
        <time>2019-07-10T10:00:53Z</time>
      </trkpt>
      <trkpt lat="45.07079" lon="2.76876">
        <ele>1800.69</ele>
        <time>2019-07-10T10:01:05Z</time>
      </trkpt>
      <trkpt lat="45.07077" lon="2.76877">
        <ele>1801.17</ele>
        <time>2019-07-10T10:01:15Z</time>
      </trkpt>
      <trkpt lat="45.07077" lon="2.76878">
        <ele>1800.21</ele>
        <time>2019-07-10T10:02:04Z</time>
      </trkpt>
      <trkpt lat="45.07076" lon="2.76878">
        <ele>1800.21</ele>
        <time>2019-07-10T10:03:02Z</time>
      </trkpt>
      <trkpt lat="45.07075" lon="2.7688">
        <ele>1800.69</ele>
        <time>2019-07-10T10:04:04Z</time>
      </trkpt>
      <trkpt lat="45.07074" lon="2.76881">
        <ele>1800.69</ele>
        <time>2019-07-10T10:04:39Z</time>
      </trkpt>
      <trkpt lat="45.07073" lon="2.76881">
        <ele>1801.17</ele>
        <time>2019-07-10T10:04:54Z</time>
      </trkpt>
      <trkpt lat="45.07065" lon="2.76885">
        <ele>1799.73</ele>
        <time>2019-07-10T10:05:02Z</time>
      </trkpt>
      <trkpt lat="45.07061" lon="2.76885">
        <ele>1801.17</ele>
        <time>2019-07-10T10:05:05Z</time>
      </trkpt>
      <trkpt lat="45.07057" lon="2.76885">
        <ele>1801.17</ele>
        <time>2019-07-10T10:05:09Z</time>
      </trkpt>
      <trkpt lat="45.07054" lon="2.76886">
        <ele>1800.69</ele>
        <time>2019-07-10T10:05:12Z</time>
      </trkpt>
      <trkpt lat="45.07042" lon="2.76887">
        <ele>1801.17</ele>
        <time>2019-07-10T10:05:24Z</time>
      </trkpt>
      <trkpt lat="45.07035" lon="2.76888">
        <ele>1802.13</ele>
        <time>2019-07-10T10:05:33Z</time>
      </trkpt>
      <trkpt lat="45.07029" lon="2.76892">
        <ele>1802.13</ele>
        <time>2019-07-10T10:05:45Z</time>
      </trkpt>
      <trkpt lat="45.07021" lon="2.76898">
        <ele>1802.13</ele>
        <time>2019-07-10T10:05:57Z</time>
      </trkpt>
      <trkpt lat="45.07011" lon="2.76903">
        <ele>1801.17</ele>
        <time>2019-07-10T10:06:09Z</time>
      </trkpt>
      <trkpt lat="45.07007" lon="2.76907">
        <ele>1800.21</ele>
        <time>2019-07-10T10:06:15Z</time>
      </trkpt>
      <trkpt lat="45.07001" lon="2.76912">
        <ele>1799.73</ele>
        <time>2019-07-10T10:06:22Z</time>
      </trkpt>
      <trkpt lat="45.06998" lon="2.76915">
        <ele>1800.21</ele>
        <time>2019-07-10T10:06:26Z</time>
      </trkpt>
      <trkpt lat="45.06995" lon="2.76918">
        <ele>1800.21</ele>
        <time>2019-07-10T10:06:30Z</time>
      </trkpt>
      <trkpt lat="45.06989" lon="2.76926">
        <ele>1799.73</ele>
        <time>2019-07-10T10:06:39Z</time>
      </trkpt>
      <trkpt lat="45.06983" lon="2.76934">
        <ele>1799.24</ele>
        <time>2019-07-10T10:06:51Z</time>
      </trkpt>
      <trkpt lat="45.06979" lon="2.7694">
        <ele>1798.28</ele>
        <time>2019-07-10T10:07:02Z</time>
      </trkpt>
      <trkpt lat="45.06972" lon="2.76944">
        <ele>1796.36</ele>
        <time>2019-07-10T10:07:15Z</time>
      </trkpt>
      <trkpt lat="45.06965" lon="2.76945">
        <ele>1793.96</ele>
        <time>2019-07-10T10:07:27Z</time>
      </trkpt>
      <trkpt lat="45.06963" lon="2.76949">
        <ele>1792.52</ele>
        <time>2019-07-10T10:07:32Z</time>
      </trkpt>
      <trkpt lat="45.06956" lon="2.76947">
        <ele>1791.07</ele>
        <time>2019-07-10T10:07:42Z</time>
      </trkpt>
      <trkpt lat="45.06954" lon="2.76943">
        <ele>1790.59</ele>
        <time>2019-07-10T10:07:46Z</time>
      </trkpt>
      <trkpt lat="45.0695" lon="2.76938">
        <ele>1790.59</ele>
        <time>2019-07-10T10:07:58Z</time>
      </trkpt>
      <trkpt lat="45.06949" lon="2.76938">
        <ele>1790.11</ele>
        <time>2019-07-10T10:08:00Z</time>
      </trkpt>
      <trkpt lat="45.06939" lon="2.76928">
        <ele>1789.63</ele>
        <time>2019-07-10T10:08:14Z</time>
      </trkpt>
      <trkpt lat="45.06929" lon="2.7692">
        <ele>1787.71</ele>
        <time>2019-07-10T10:08:29Z</time>
      </trkpt>
      <trkpt lat="45.06919" lon="2.76912">
        <ele>1786.75</ele>
        <time>2019-07-10T10:08:43Z</time>
      </trkpt>
      <trkpt lat="45.06908" lon="2.76905">
        <ele>1785.79</ele>
        <time>2019-07-10T10:08:56Z</time>
      </trkpt>
      <trkpt lat="45.069" lon="2.76898">
        <ele>1783.86</ele>
        <time>2019-07-10T10:09:08Z</time>
      </trkpt>
      <trkpt lat="45.06889" lon="2.7689">
        <ele>1782.42</ele>
        <time>2019-07-10T10:09:22Z</time>
      </trkpt>
      <trkpt lat="45.06881" lon="2.76885">
        <ele>1780.5</ele>
        <time>2019-07-10T10:09:35Z</time>
      </trkpt>
      <trkpt lat="45.06875" lon="2.76878">
        <ele>1779.06</ele>
        <time>2019-07-10T10:09:47Z</time>
      </trkpt>
      <trkpt lat="45.06868" lon="2.76872">
        <ele>1777.13</ele>
        <time>2019-07-10T10:10:01Z</time>
      </trkpt>
      <trkpt lat="45.06861" lon="2.76866">
        <ele>1773.77</ele>
        <time>2019-07-10T10:10:13Z</time>
      </trkpt>
      <trkpt lat="45.0685" lon="2.76856">
        <ele>1772.33</ele>
        <time>2019-07-10T10:10:27Z</time>
      </trkpt>
      <trkpt lat="45.06839" lon="2.76844">
        <ele>1770.41</ele>
        <time>2019-07-10T10:10:43Z</time>
      </trkpt>
      <trkpt lat="45.06835" lon="2.76842">
        <ele>1769.44</ele>
        <time>2019-07-10T10:10:47Z</time>
      </trkpt>
      <trkpt lat="45.06833" lon="2.76841">
        <ele>1769.44</ele>
        <time>2019-07-10T10:10:49Z</time>
      </trkpt>
      <trkpt lat="45.06831" lon="2.76837">
        <ele>1768.48</ele>
        <time>2019-07-10T10:10:53Z</time>
      </trkpt>
      <trkpt lat="45.06817" lon="2.76829">
        <ele>1767.52</ele>
        <time>2019-07-10T10:11:08Z</time>
      </trkpt>
      <trkpt lat="45.06807" lon="2.76822">
        <ele>1765.12</ele>
        <time>2019-07-10T10:11:23Z</time>
      </trkpt>
      <trkpt lat="45.06803" lon="2.76816">
        <ele>1764.64</ele>
        <time>2019-07-10T10:11:32Z</time>
      </trkpt>
      <trkpt lat="45.06796" lon="2.76809">
        <ele>1763.2</ele>
        <time>2019-07-10T10:11:42Z</time>
      </trkpt>
      <trkpt lat="45.06791" lon="2.76804">
        <ele>1763.2</ele>
        <time>2019-07-10T10:11:48Z</time>
      </trkpt>
      <trkpt lat="45.06781" lon="2.76797">
        <ele>1761.75</ele>
        <time>2019-07-10T10:12:02Z</time>
      </trkpt>
      <trkpt lat="45.06775" lon="2.76791">
        <ele>1760.31</ele>
        <time>2019-07-10T10:12:13Z</time>
      </trkpt>
      <trkpt lat="45.06765" lon="2.76783">
        <ele>1758.39</ele>
        <time>2019-07-10T10:12:27Z</time>
      </trkpt>
      <trkpt lat="45.06762" lon="2.7678">
        <ele>1757.91</ele>
        <time>2019-07-10T10:12:32Z</time>
      </trkpt>
      <trkpt lat="45.06759" lon="2.76777">
        <ele>1757.43</ele>
        <time>2019-07-10T10:12:35Z</time>
      </trkpt>
      <trkpt lat="45.06755" lon="2.76771">
        <ele>1756.95</ele>
        <time>2019-07-10T10:12:42Z</time>
      </trkpt>
      <trkpt lat="45.06745" lon="2.76761">
        <ele>1755.5</ele>
        <time>2019-07-10T10:12:56Z</time>
      </trkpt>
      <trkpt lat="45.0674" lon="2.76761">
        <ele>1755.02</ele>
        <time>2019-07-10T10:13:01Z</time>
      </trkpt>
      <trkpt lat="45.06727" lon="2.76758">
        <ele>1753.58</ele>
        <time>2019-07-10T10:13:15Z</time>
      </trkpt>
      <trkpt lat="45.06715" lon="2.76753">
        <ele>1752.62</ele>
        <time>2019-07-10T10:13:29Z</time>
      </trkpt>
      <trkpt lat="45.06709" lon="2.76749">
        <ele>1753.1</ele>
        <time>2019-07-10T10:13:36Z</time>
      </trkpt>
      <trkpt lat="45.06703" lon="2.76743">
        <ele>1751.18</ele>
        <time>2019-07-10T10:13:49Z</time>
      </trkpt>
      <trkpt lat="45.06701" lon="2.76739">
        <ele>1750.7</ele>
        <time>2019-07-10T10:14:20Z</time>
      </trkpt>
      <trkpt lat="45.06695" lon="2.76726">
        <ele>1749.74</ele>
        <time>2019-07-10T10:14:34Z</time>
      </trkpt>
      <trkpt lat="45.0669" lon="2.76714">
        <ele>1748.29</ele>
        <time>2019-07-10T10:14:47Z</time>
      </trkpt>
      <trkpt lat="45.06686" lon="2.76701">
        <ele>1746.85</ele>
        <time>2019-07-10T10:14:59Z</time>
      </trkpt>
      <trkpt lat="45.06683" lon="2.76685">
        <ele>1745.89</ele>
        <time>2019-07-10T10:15:10Z</time>
      </trkpt>
      <trkpt lat="45.06682" lon="2.76669">
        <ele>1745.89</ele>
        <time>2019-07-10T10:15:22Z</time>
      </trkpt>
      <trkpt lat="45.06679" lon="2.76657">
        <ele>1745.41</ele>
        <time>2019-07-10T10:15:31Z</time>
      </trkpt>
      <trkpt lat="45.06673" lon="2.76641">
        <ele>1744.93</ele>
        <time>2019-07-10T10:15:43Z</time>
      </trkpt>
      <trkpt lat="45.06668" lon="2.76626">
        <ele>1743.97</ele>
        <time>2019-07-10T10:15:57Z</time>
      </trkpt>
      <trkpt lat="45.06663" lon="2.76616">
        <ele>1743.97</ele>
        <time>2019-07-10T10:16:08Z</time>
      </trkpt>
      <trkpt lat="45.06661" lon="2.76612">
        <ele>1744.45</ele>
        <time>2019-07-10T10:16:27Z</time>
      </trkpt>
      <trkpt lat="45.06654" lon="2.76602">
        <ele>1745.41</ele>
        <time>2019-07-10T10:16:38Z</time>
      </trkpt>
      <trkpt lat="45.06644" lon="2.76591">
        <ele>1746.37</ele>
        <time>2019-07-10T10:16:52Z</time>
      </trkpt>
      <trkpt lat="45.06638" lon="2.76583">
        <ele>1748.29</ele>
        <time>2019-07-10T10:17:02Z</time>
      </trkpt>
      <trkpt lat="45.06635" lon="2.76579">
        <ele>1748.78</ele>
        <time>2019-07-10T10:17:06Z</time>
      </trkpt>
      <trkpt lat="45.06631" lon="2.76575">
        <ele>1749.26</ele>
        <time>2019-07-10T10:17:11Z</time>
      </trkpt>
      <trkpt lat="45.06625" lon="2.76568">
        <ele>1749.26</ele>
        <time>2019-07-10T10:17:19Z</time>
      </trkpt>
      <trkpt lat="45.0662" lon="2.76563">
        <ele>1750.22</ele>
        <time>2019-07-10T10:17:25Z</time>
      </trkpt>
      <trkpt lat="45.06616" lon="2.76559">
        <ele>1750.7</ele>
        <time>2019-07-10T10:17:30Z</time>
      </trkpt>
      <trkpt lat="45.06615" lon="2.76557">
        <ele>1750.7</ele>
        <time>2019-07-10T10:17:32Z</time>
      </trkpt>
      <trkpt lat="45.06613" lon="2.76555">
        <ele>1751.18</ele>
        <time>2019-07-10T10:17:34Z</time>
      </trkpt>
      <trkpt lat="45.06604" lon="2.76543">
        <ele>1751.66</ele>
        <time>2019-07-10T10:17:46Z</time>
      </trkpt>
      <trkpt lat="45.06602" lon="2.7654">
        <ele>1752.14</ele>
        <time>2019-07-10T10:17:49Z</time>
      </trkpt>
      <trkpt lat="45.06601" lon="2.76538">
        <ele>1752.62</ele>
        <time>2019-07-10T10:17:51Z</time>
      </trkpt>
      <trkpt lat="45.06599" lon="2.76536">
        <ele>1752.14</ele>
        <time>2019-07-10T10:17:53Z</time>
      </trkpt>
      <trkpt lat="45.06597" lon="2.76533">
        <ele>1753.1</ele>
        <time>2019-07-10T10:17:56Z</time>
      </trkpt>
      <trkpt lat="45.06596" lon="2.76531">
        <ele>1753.1</ele>
        <time>2019-07-10T10:17:58Z</time>
      </trkpt>
      <trkpt lat="45.06593" lon="2.76526">
        <ele>1754.06</ele>
        <time>2019-07-10T10:18:03Z</time>
      </trkpt>
      <trkpt lat="45.06591" lon="2.76524">
        <ele>1753.58</ele>
        <time>2019-07-10T10:18:05Z</time>
      </trkpt>
      <trkpt lat="45.06588" lon="2.7652">
        <ele>1754.54</ele>
        <time>2019-07-10T10:18:10Z</time>
      </trkpt>
      <trkpt lat="45.06584" lon="2.76512">
        <ele>1755.5</ele>
        <time>2019-07-10T10:18:17Z</time>
      </trkpt>
      <trkpt lat="45.06583" lon="2.7651">
        <ele>1756.47</ele>
        <time>2019-07-10T10:18:19Z</time>
      </trkpt>
      <trkpt lat="45.06582" lon="2.76508">
        <ele>1755.99</ele>
        <time>2019-07-10T10:18:21Z</time>
      </trkpt>
      <trkpt lat="45.06579" lon="2.76502">
        <ele>1756.95</ele>
        <time>2019-07-10T10:18:26Z</time>
      </trkpt>
      <trkpt lat="45.06573" lon="2.76489">
        <ele>1758.39</ele>
        <time>2019-07-10T10:18:38Z</time>
      </trkpt>
      <trkpt lat="45.06566" lon="2.76476">
        <ele>1759.35</ele>
        <time>2019-07-10T10:18:50Z</time>
      </trkpt>
      <trkpt lat="45.06565" lon="2.76471">
        <ele>1758.87</ele>
        <time>2019-07-10T10:18:54Z</time>
      </trkpt>
      <trkpt lat="45.06562" lon="2.76466">
        <ele>1759.35</ele>
        <time>2019-07-10T10:19:00Z</time>
      </trkpt>
      <trkpt lat="45.06559" lon="2.76459">
        <ele>1759.83</ele>
        <time>2019-07-10T10:19:05Z</time>
      </trkpt>
      <trkpt lat="45.06558" lon="2.76457">
        <ele>1760.31</ele>
        <time>2019-07-10T10:19:07Z</time>
      </trkpt>
      <trkpt lat="45.06557" lon="2.76454">
        <ele>1760.79</ele>
        <time>2019-07-10T10:19:09Z</time>
      </trkpt>
      <trkpt lat="45.06554" lon="2.76449">
        <ele>1760.79</ele>
        <time>2019-07-10T10:19:14Z</time>
      </trkpt>
      <trkpt lat="45.06553" lon="2.76445">
        <ele>1761.27</ele>
        <time>2019-07-10T10:19:17Z</time>
      </trkpt>
      <trkpt lat="45.06549" lon="2.76436">
        <ele>1761.75</ele>
        <time>2019-07-10T10:19:24Z</time>
      </trkpt>
      <trkpt lat="45.06546" lon="2.76432">
        <ele>1761.75</ele>
        <time>2019-07-10T10:19:28Z</time>
      </trkpt>
      <trkpt lat="45.06542" lon="2.76426">
        <ele>1762.71</ele>
        <time>2019-07-10T10:19:33Z</time>
      </trkpt>
      <trkpt lat="45.06539" lon="2.76417">
        <ele>1762.71</ele>
        <time>2019-07-10T10:19:41Z</time>
      </trkpt>
      <trkpt lat="45.06538" lon="2.76414">
        <ele>1763.2</ele>
        <time>2019-07-10T10:19:43Z</time>
      </trkpt>
      <trkpt lat="45.06536" lon="2.76408">
        <ele>1763.2</ele>
        <time>2019-07-10T10:19:48Z</time>
      </trkpt>
      <trkpt lat="45.06532" lon="2.764">
        <ele>1763.68</ele>
        <time>2019-07-10T10:19:55Z</time>
      </trkpt>
      <trkpt lat="45.06531" lon="2.76398">
        <ele>1763.2</ele>
        <time>2019-07-10T10:19:57Z</time>
      </trkpt>
      <trkpt lat="45.06528" lon="2.7639">
        <ele>1764.64</ele>
        <time>2019-07-10T10:20:03Z</time>
      </trkpt>
      <trkpt lat="45.06524" lon="2.76385">
        <ele>1764.64</ele>
        <time>2019-07-10T10:20:08Z</time>
      </trkpt>
      <trkpt lat="45.06521" lon="2.7638">
        <ele>1764.64</ele>
        <time>2019-07-10T10:20:12Z</time>
      </trkpt>
      <trkpt lat="45.06519" lon="2.76377">
        <ele>1764.64</ele>
        <time>2019-07-10T10:20:15Z</time>
      </trkpt>
      <trkpt lat="45.06514" lon="2.76369">
        <ele>1765.12</ele>
        <time>2019-07-10T10:20:22Z</time>
      </trkpt>
      <trkpt lat="45.06512" lon="2.76365">
        <ele>1765.6</ele>
        <time>2019-07-10T10:20:26Z</time>
      </trkpt>
      <trkpt lat="45.06511" lon="2.76363">
        <ele>1765.12</ele>
        <time>2019-07-10T10:20:28Z</time>
      </trkpt>
      <trkpt lat="45.0651" lon="2.7636">
        <ele>1765.6</ele>
        <time>2019-07-10T10:20:30Z</time>
      </trkpt>
      <trkpt lat="45.06506" lon="2.76354">
        <ele>1765.6</ele>
        <time>2019-07-10T10:20:36Z</time>
      </trkpt>
      <trkpt lat="45.06505" lon="2.76351">
        <ele>1765.6</ele>
        <time>2019-07-10T10:20:38Z</time>
      </trkpt>
      <trkpt lat="45.065" lon="2.76342">
        <ele>1766.08</ele>
        <time>2019-07-10T10:20:46Z</time>
      </trkpt>
      <trkpt lat="45.06492" lon="2.76328">
        <ele>1766.56</ele>
        <time>2019-07-10T10:20:58Z</time>
      </trkpt>
      <trkpt lat="45.06486" lon="2.76319">
        <ele>1767.04</ele>
        <time>2019-07-10T10:21:06Z</time>
      </trkpt>
      <trkpt lat="45.06484" lon="2.76317">
        <ele>1767.52</ele>
        <time>2019-07-10T10:21:08Z</time>
      </trkpt>
      <trkpt lat="45.06479" lon="2.76305">
        <ele>1768.48</ele>
        <time>2019-07-10T10:21:18Z</time>
      </trkpt>
      <trkpt lat="45.06477" lon="2.76304">
        <ele>1768.48</ele>
        <time>2019-07-10T10:21:20Z</time>
      </trkpt>
      <trkpt lat="45.06475" lon="2.763">
        <ele>1768.48</ele>
        <time>2019-07-10T10:21:23Z</time>
      </trkpt>
      <trkpt lat="45.06471" lon="2.76296">
        <ele>1769.44</ele>
        <time>2019-07-10T10:21:28Z</time>
      </trkpt>
      <trkpt lat="45.06469" lon="2.76293">
        <ele>1768.48</ele>
        <time>2019-07-10T10:21:30Z</time>
      </trkpt>
      <trkpt lat="45.06464" lon="2.76287">
        <ele>1768.48</ele>
        <time>2019-07-10T10:21:35Z</time>
      </trkpt>
      <trkpt lat="45.0646" lon="2.76284">
        <ele>1769.44</ele>
        <time>2019-07-10T10:21:40Z</time>
      </trkpt>
      <trkpt lat="45.06451" lon="2.76275">
        <ele>1769.44</ele>
        <time>2019-07-10T10:21:51Z</time>
      </trkpt>
      <trkpt lat="45.06449" lon="2.76273">
        <ele>1770.41</ele>
        <time>2019-07-10T10:21:53Z</time>
      </trkpt>
      <trkpt lat="45.06447" lon="2.76271">
        <ele>1770.41</ele>
        <time>2019-07-10T10:21:56Z</time>
      </trkpt>
      <trkpt lat="45.0644" lon="2.7626">
        <ele>1770.41</ele>
        <time>2019-07-10T10:22:06Z</time>
      </trkpt>
      <trkpt lat="45.06433" lon="2.76254">
        <ele>1771.85</ele>
        <time>2019-07-10T10:22:16Z</time>
      </trkpt>
      <trkpt lat="45.06431" lon="2.7625">
        <ele>1771.85</ele>
        <time>2019-07-10T10:22:19Z</time>
      </trkpt>
      <trkpt lat="45.06427" lon="2.76246">
        <ele>1771.37</ele>
        <time>2019-07-10T10:22:23Z</time>
      </trkpt>
      <trkpt lat="45.06423" lon="2.76242">
        <ele>1771.85</ele>
        <time>2019-07-10T10:22:28Z</time>
      </trkpt>
      <trkpt lat="45.06421" lon="2.7624">
        <ele>1771.85</ele>
        <time>2019-07-10T10:22:31Z</time>
      </trkpt>
      <trkpt lat="45.06415" lon="2.76237">
        <ele>1772.81</ele>
        <time>2019-07-10T10:22:36Z</time>
      </trkpt>
      <trkpt lat="45.06412" lon="2.76234">
        <ele>1773.29</ele>
        <time>2019-07-10T10:22:40Z</time>
      </trkpt>
      <trkpt lat="45.06401" lon="2.76227">
        <ele>1774.25</ele>
        <time>2019-07-10T10:22:53Z</time>
      </trkpt>
      <trkpt lat="45.0639" lon="2.76219">
        <ele>1776.65</ele>
        <time>2019-07-10T10:23:06Z</time>
      </trkpt>
      <trkpt lat="45.06381" lon="2.76213">
        <ele>1778.1</ele>
        <time>2019-07-10T10:23:17Z</time>
      </trkpt>
      <trkpt lat="45.06376" lon="2.76207">
        <ele>1779.06</ele>
        <time>2019-07-10T10:23:24Z</time>
      </trkpt>
      <trkpt lat="45.06371" lon="2.762">
        <ele>1780.5</ele>
        <time>2019-07-10T10:23:33Z</time>
      </trkpt>
      <trkpt lat="45.06367" lon="2.76191">
        <ele>1780.98</ele>
        <time>2019-07-10T10:23:41Z</time>
      </trkpt>
      <trkpt lat="45.06363" lon="2.76178">
        <ele>1783.38</ele>
        <time>2019-07-10T10:23:52Z</time>
      </trkpt>
      <trkpt lat="45.06361" lon="2.76175">
        <ele>1784.82</ele>
        <time>2019-07-10T10:24:04Z</time>
      </trkpt>
      <trkpt lat="45.06361" lon="2.76172">
        <ele>1784.82</ele>
        <time>2019-07-10T10:24:06Z</time>
      </trkpt>
      <trkpt lat="45.06359" lon="2.76165">
        <ele>1783.86</ele>
        <time>2019-07-10T10:24:10Z</time>
      </trkpt>
      <trkpt lat="45.06356" lon="2.76158">
        <ele>1785.31</ele>
        <time>2019-07-10T10:24:14Z</time>
      </trkpt>
      <trkpt lat="45.06352" lon="2.7615">
        <ele>1785.79</ele>
        <time>2019-07-10T10:24:20Z</time>
      </trkpt>
      <trkpt lat="45.06346" lon="2.76138">
        <ele>1787.23</ele>
        <time>2019-07-10T10:24:31Z</time>
      </trkpt>
      <trkpt lat="45.06344" lon="2.76135">
        <ele>1787.71</ele>
        <time>2019-07-10T10:24:33Z</time>
      </trkpt>
      <trkpt lat="45.06339" lon="2.76128">
        <ele>1788.19</ele>
        <time>2019-07-10T10:24:39Z</time>
      </trkpt>
      <trkpt lat="45.06328" lon="2.7612">
        <ele>1788.67</ele>
        <time>2019-07-10T10:24:50Z</time>
      </trkpt>
      <trkpt lat="45.06323" lon="2.76117">
        <ele>1789.15</ele>
        <time>2019-07-10T10:25:06Z</time>
      </trkpt>
      <trkpt lat="45.06324" lon="2.76117">
        <ele>1789.63</ele>
        <time>2019-07-10T10:25:59Z</time>
      </trkpt>
      <trkpt lat="45.06324" lon="2.76117">
        <ele>1790.11</ele>
        <time>2019-07-10T10:28:47Z</time>
      </trkpt>
      <trkpt lat="45.06322" lon="2.76112">
        <ele>1790.11</ele>
        <time>2019-07-10T10:29:38Z</time>
      </trkpt>
      <trkpt lat="45.06313" lon="2.7611">
        <ele>1791.07</ele>
        <time>2019-07-10T10:29:50Z</time>
      </trkpt>
      <trkpt lat="45.06311" lon="2.7611">
        <ele>1791.55</ele>
        <time>2019-07-10T10:29:52Z</time>
      </trkpt>
      <trkpt lat="45.06303" lon="2.76112">
        <ele>1791.55</ele>
        <time>2019-07-10T10:30:01Z</time>
      </trkpt>
      <trkpt lat="45.063" lon="2.76114">
        <ele>1792.03</ele>
        <time>2019-07-10T10:30:05Z</time>
      </trkpt>
      <trkpt lat="45.06298" lon="2.76115">
        <ele>1792.03</ele>
        <time>2019-07-10T10:30:07Z</time>
      </trkpt>
      <trkpt lat="45.06288" lon="2.76118">
        <ele>1792.03</ele>
        <time>2019-07-10T10:30:17Z</time>
      </trkpt>
      <trkpt lat="45.06283" lon="2.76119">
        <ele>1792.03</ele>
        <time>2019-07-10T10:30:22Z</time>
      </trkpt>
      <trkpt lat="45.06279" lon="2.76121">
        <ele>1792.52</ele>
        <time>2019-07-10T10:30:27Z</time>
      </trkpt>
      <trkpt lat="45.06274" lon="2.76123">
        <ele>1792.52</ele>
        <time>2019-07-10T10:30:33Z</time>
      </trkpt>
      <trkpt lat="45.06263" lon="2.76129">
        <ele>1792.52</ele>
        <time>2019-07-10T10:30:44Z</time>
      </trkpt>
      <trkpt lat="45.06262" lon="2.7613">
        <ele>1792.03</ele>
        <time>2019-07-10T10:30:46Z</time>
      </trkpt>
      <trkpt lat="45.06251" lon="2.76134">
        <ele>1791.55</ele>
        <time>2019-07-10T10:30:59Z</time>
      </trkpt>
      <trkpt lat="45.0625" lon="2.76133">
        <ele>1792.03</ele>
        <time>2019-07-10T10:31:00Z</time>
      </trkpt>
      <trkpt lat="45.06247" lon="2.76134">
        <ele>1792.03</ele>
        <time>2019-07-10T10:31:03Z</time>
      </trkpt>
      <trkpt lat="45.06237" lon="2.76133">
        <ele>1793.48</ele>
        <time>2019-07-10T10:31:15Z</time>
      </trkpt>
      <trkpt lat="45.06232" lon="2.76132">
        <ele>1793.48</ele>
        <time>2019-07-10T10:31:21Z</time>
      </trkpt>
      <trkpt lat="45.06223" lon="2.76131">
        <ele>1794.92</ele>
        <time>2019-07-10T10:31:32Z</time>
      </trkpt>
      <trkpt lat="45.06213" lon="2.7613">
        <ele>1795.88</ele>
        <time>2019-07-10T10:31:43Z</time>
      </trkpt>
      <trkpt lat="45.06204" lon="2.76126">
        <ele>1796.36</ele>
        <time>2019-07-10T10:31:54Z</time>
      </trkpt>
      <trkpt lat="45.06201" lon="2.76124">
        <ele>1796.84</ele>
        <time>2019-07-10T10:31:58Z</time>
      </trkpt>
      <trkpt lat="45.06192" lon="2.76118">
        <ele>1797.8</ele>
        <time>2019-07-10T10:32:10Z</time>
      </trkpt>
      <trkpt lat="45.06189" lon="2.76117">
        <ele>1798.28</ele>
        <time>2019-07-10T10:32:13Z</time>
      </trkpt>
      <trkpt lat="45.06182" lon="2.76123">
        <ele>1797.32</ele>
        <time>2019-07-10T10:32:25Z</time>
      </trkpt>
      <trkpt lat="45.06181" lon="2.76125">
        <ele>1797.8</ele>
        <time>2019-07-10T10:32:38Z</time>
      </trkpt>
      <trkpt lat="45.06175" lon="2.76133">
        <ele>1797.8</ele>
        <time>2019-07-10T10:32:49Z</time>
      </trkpt>
      <trkpt lat="45.06167" lon="2.7614">
        <ele>1799.24</ele>
        <time>2019-07-10T10:33:02Z</time>
      </trkpt>
      <trkpt lat="45.06163" lon="2.76143">
        <ele>1799.24</ele>
        <time>2019-07-10T10:33:13Z</time>
      </trkpt>
      <trkpt lat="45.06153" lon="2.76145">
        <ele>1799.24</ele>
        <time>2019-07-10T10:33:26Z</time>
      </trkpt>
      <trkpt lat="45.06144" lon="2.76151">
        <ele>1801.17</ele>
        <time>2019-07-10T10:33:37Z</time>
      </trkpt>
      <trkpt lat="45.0614" lon="2.76153">
        <ele>1801.17</ele>
        <time>2019-07-10T10:33:42Z</time>
      </trkpt>
      <trkpt lat="45.06132" lon="2.76156">
        <ele>1802.13</ele>
        <time>2019-07-10T10:33:50Z</time>
      </trkpt>
      <trkpt lat="45.06128" lon="2.76157">
        <ele>1803.09</ele>
        <time>2019-07-10T10:34:05Z</time>
      </trkpt>
      <trkpt lat="45.0612" lon="2.76159">
        <ele>1802.61</ele>
        <time>2019-07-10T10:34:42Z</time>
      </trkpt>
      <trkpt lat="45.06115" lon="2.7616">
        <ele>1803.09</ele>
        <time>2019-07-10T10:34:49Z</time>
      </trkpt>
      <trkpt lat="45.06107" lon="2.76159">
        <ele>1804.05</ele>
        <time>2019-07-10T10:34:56Z</time>
      </trkpt>
      <trkpt lat="45.06094" lon="2.76162">
        <ele>1805.01</ele>
        <time>2019-07-10T10:35:08Z</time>
      </trkpt>
      <trkpt lat="45.0609" lon="2.76162">
        <ele>1805.97</ele>
        <time>2019-07-10T10:35:12Z</time>
      </trkpt>
      <trkpt lat="45.06081" lon="2.76166">
        <ele>1805.97</ele>
        <time>2019-07-10T10:35:21Z</time>
      </trkpt>
      <trkpt lat="45.06076" lon="2.76166">
        <ele>1805.97</ele>
        <time>2019-07-10T10:35:25Z</time>
      </trkpt>
      <trkpt lat="45.0607" lon="2.76167">
        <ele>1806.45</ele>
        <time>2019-07-10T10:35:31Z</time>
      </trkpt>
      <trkpt lat="45.06068" lon="2.76167">
        <ele>1806.45</ele>
        <time>2019-07-10T10:35:33Z</time>
      </trkpt>
      <trkpt lat="45.06062" lon="2.76169">
        <ele>1807.42</ele>
        <time>2019-07-10T10:35:39Z</time>
      </trkpt>
      <trkpt lat="45.0606" lon="2.7617">
        <ele>1806.94</ele>
        <time>2019-07-10T10:35:41Z</time>
      </trkpt>
      <trkpt lat="45.06048" lon="2.76172">
        <ele>1807.42</ele>
        <time>2019-07-10T10:35:54Z</time>
      </trkpt>
      <trkpt lat="45.06039" lon="2.76175">
        <ele>1808.86</ele>
        <time>2019-07-10T10:36:04Z</time>
      </trkpt>
      <trkpt lat="45.06029" lon="2.76174">
        <ele>1809.82</ele>
        <time>2019-07-10T10:36:15Z</time>
      </trkpt>
      <trkpt lat="45.06023" lon="2.76174">
        <ele>1810.78</ele>
        <time>2019-07-10T10:36:22Z</time>
      </trkpt>
      <trkpt lat="45.0602" lon="2.76174">
        <ele>1811.26</ele>
        <time>2019-07-10T10:36:25Z</time>
      </trkpt>
      <trkpt lat="45.06016" lon="2.76175">
        <ele>1812.7</ele>
        <time>2019-07-10T10:36:30Z</time>
      </trkpt>
      <trkpt lat="45.06005" lon="2.76176">
        <ele>1813.66</ele>
        <time>2019-07-10T10:36:42Z</time>
      </trkpt>
      <trkpt lat="45.05995" lon="2.76177">
        <ele>1814.63</ele>
        <time>2019-07-10T10:36:51Z</time>
      </trkpt>
      <trkpt lat="45.05987" lon="2.76175">
        <ele>1817.51</ele>
        <time>2019-07-10T10:37:03Z</time>
      </trkpt>
      <trkpt lat="45.05981" lon="2.76176">
        <ele>1817.99</ele>
        <time>2019-07-10T10:37:13Z</time>
      </trkpt>
      <trkpt lat="45.05973" lon="2.76175">
        <ele>1819.43</ele>
        <time>2019-07-10T10:37:25Z</time>
      </trkpt>
      <trkpt lat="45.05967" lon="2.76174">
        <ele>1821.84</ele>
        <time>2019-07-10T10:37:36Z</time>
      </trkpt>
      <trkpt lat="45.05962" lon="2.76173">
        <ele>1824.72</ele>
        <time>2019-07-10T10:37:48Z</time>
      </trkpt>
      <trkpt lat="45.05956" lon="2.76174">
        <ele>1823.76</ele>
        <time>2019-07-10T10:38:03Z</time>
      </trkpt>
      <trkpt lat="45.05949" lon="2.76176">
        <ele>1825.68</ele>
        <time>2019-07-10T10:38:14Z</time>
      </trkpt>
      <trkpt lat="45.05946" lon="2.76175">
        <ele>1827.6</ele>
        <time>2019-07-10T10:38:24Z</time>
      </trkpt>
      <trkpt lat="45.05941" lon="2.76179">
        <ele>1828.56</ele>
        <time>2019-07-10T10:38:35Z</time>
      </trkpt>
      <trkpt lat="45.05938" lon="2.76182">
        <ele>1829.53</ele>
        <time>2019-07-10T10:38:41Z</time>
      </trkpt>
      <trkpt lat="45.0593" lon="2.7619">
        <ele>1831.93</ele>
        <time>2019-07-10T10:38:54Z</time>
      </trkpt>
      <trkpt lat="45.05927" lon="2.76192">
        <ele>1832.89</ele>
        <time>2019-07-10T10:39:01Z</time>
      </trkpt>
      <trkpt lat="45.05922" lon="2.7619">
        <ele>1834.33</ele>
        <time>2019-07-10T10:39:13Z</time>
      </trkpt>
      <trkpt lat="45.0592" lon="2.76189">
        <ele>1836.26</ele>
        <time>2019-07-10T10:39:24Z</time>
      </trkpt>
      <trkpt lat="45.05919" lon="2.76189">
        <ele>1837.7</ele>
        <time>2019-07-10T10:39:35Z</time>
      </trkpt>
      <trkpt lat="45.05919" lon="2.76189">
        <ele>1839.14</ele>
        <time>2019-07-10T10:39:47Z</time>
      </trkpt>
      <trkpt lat="45.05913" lon="2.76179">
        <ele>1841.06</ele>
        <time>2019-07-10T10:39:58Z</time>
      </trkpt>
      <trkpt lat="45.05908" lon="2.76172">
        <ele>1842.5</ele>
        <time>2019-07-10T10:40:08Z</time>
      </trkpt>
      <trkpt lat="45.05902" lon="2.76164">
        <ele>1843.95</ele>
        <time>2019-07-10T10:40:18Z</time>
      </trkpt>
      <trkpt lat="45.05897" lon="2.76157">
        <ele>1845.87</ele>
        <time>2019-07-10T10:40:28Z</time>
      </trkpt>
      <trkpt lat="45.05892" lon="2.76149">
        <ele>1847.31</ele>
        <time>2019-07-10T10:40:40Z</time>
      </trkpt>
      <trkpt lat="45.05889" lon="2.76142">
        <ele>1847.79</ele>
        <time>2019-07-10T10:40:49Z</time>
      </trkpt>
      <trkpt lat="45.05888" lon="2.76138">
        <ele>1848.75</ele>
        <time>2019-07-10T10:41:01Z</time>
      </trkpt>
      <trkpt lat="45.05888" lon="2.76137">
        <ele>1847.79</ele>
        <time>2019-07-10T10:41:41Z</time>
      </trkpt>
      <trkpt lat="45.05888" lon="2.76137">
        <ele>1849.71</ele>
        <time>2019-07-10T10:42:02Z</time>
      </trkpt>
      <trkpt lat="45.05888" lon="2.76137">
        <ele>1847.31</ele>
        <time>2019-07-10T10:42:13Z</time>
      </trkpt>
      <trkpt lat="45.05885" lon="2.76138">
        <ele>1847.31</ele>
        <time>2019-07-10T10:42:25Z</time>
      </trkpt>
      <trkpt lat="45.05878" lon="2.76134">
        <ele>1847.31</ele>
        <time>2019-07-10T10:42:37Z</time>
      </trkpt>
      <trkpt lat="45.05878" lon="2.76135">
        <ele>1847.31</ele>
        <time>2019-07-10T10:42:39Z</time>
      </trkpt>
      <trkpt lat="45.05873" lon="2.76138">
        <ele>1846.35</ele>
        <time>2019-07-10T10:42:51Z</time>
      </trkpt>
      <trkpt lat="45.05876" lon="2.76139">
        <ele>1846.83</ele>
        <time>2019-07-10T10:42:55Z</time>
      </trkpt>
      <trkpt lat="45.05884" lon="2.7614">
        <ele>1846.83</ele>
        <time>2019-07-10T10:43:06Z</time>
      </trkpt>
      <trkpt lat="45.0589" lon="2.76137">
        <ele>1847.31</ele>
        <time>2019-07-10T10:43:18Z</time>
      </trkpt>
      <trkpt lat="45.05892" lon="2.7614">
        <ele>1846.83</ele>
        <time>2019-07-10T10:43:45Z</time>
      </trkpt>
      <trkpt lat="45.05899" lon="2.76139">
        <ele>1846.35</ele>
        <time>2019-07-10T10:43:57Z</time>
      </trkpt>
      <trkpt lat="45.05903" lon="2.76136">
        <ele>1846.83</ele>
        <time>2019-07-10T10:44:09Z</time>
      </trkpt>
      <trkpt lat="45.05903" lon="2.76135">
        <ele>1847.31</ele>
        <time>2019-07-10T10:44:44Z</time>
      </trkpt>
      <trkpt lat="45.05903" lon="2.76135">
        <ele>1847.31</ele>
        <time>2019-07-10T10:45:22Z</time>
      </trkpt>
      <trkpt lat="45.05903" lon="2.76136">
        <ele>1846.35</ele>
        <time>2019-07-10T10:45:37Z</time>
      </trkpt>
      <trkpt lat="45.05902" lon="2.76137">
        <ele>1847.31</ele>
        <time>2019-07-10T10:46:06Z</time>
      </trkpt>
      <trkpt lat="45.05901" lon="2.76133">
        <ele>1846.83</ele>
        <time>2019-07-10T10:46:24Z</time>
      </trkpt>
      <trkpt lat="45.05901" lon="2.76133">
        <ele>1846.83</ele>
        <time>2019-07-10T10:46:37Z</time>
      </trkpt>
      <trkpt lat="45.059" lon="2.76134">
        <ele>1847.31</ele>
        <time>2019-07-10T10:47:14Z</time>
      </trkpt>
      <trkpt lat="45.05899" lon="2.76136">
        <ele>1847.79</ele>
        <time>2019-07-10T10:47:26Z</time>
      </trkpt>
      <trkpt lat="45.05899" lon="2.76135">
        <ele>1847.79</ele>
        <time>2019-07-10T10:47:55Z</time>
      </trkpt>
      <trkpt lat="45.05897" lon="2.76141">
        <ele>1847.79</ele>
        <time>2019-07-10T10:48:21Z</time>
      </trkpt>
      <trkpt lat="45.05896" lon="2.76142">
        <ele>1847.79</ele>
        <time>2019-07-10T10:48:23Z</time>
      </trkpt>
      <trkpt lat="45.05888" lon="2.76144">
        <ele>1846.35</ele>
        <time>2019-07-10T10:48:37Z</time>
      </trkpt>
      <trkpt lat="45.05891" lon="2.76155">
        <ele>1845.87</ele>
        <time>2019-07-10T10:48:49Z</time>
      </trkpt>
      <trkpt lat="45.05892" lon="2.76156">
        <ele>1844.91</ele>
        <time>2019-07-10T10:48:50Z</time>
      </trkpt>
      <trkpt lat="45.05894" lon="2.76161">
        <ele>1842.02</ele>
        <time>2019-07-10T10:48:57Z</time>
      </trkpt>
      <trkpt lat="45.05894" lon="2.76161">
        <ele>1842.02</ele>
        <time>2019-07-10T10:48:58Z</time>
      </trkpt>
      <trkpt lat="45.05899" lon="2.76171">
        <ele>1841.06</ele>
        <time>2019-07-10T10:49:11Z</time>
      </trkpt>
      <trkpt lat="45.05905" lon="2.7618">
        <ele>1839.14</ele>
        <time>2019-07-10T10:49:25Z</time>
      </trkpt>
      <trkpt lat="45.05911" lon="2.76185">
        <ele>1836.74</ele>
        <time>2019-07-10T10:49:39Z</time>
      </trkpt>
      <trkpt lat="45.05915" lon="2.76188">
        <ele>1835.29</ele>
        <time>2019-07-10T10:49:51Z</time>
      </trkpt>
      <trkpt lat="45.05923" lon="2.7619">
        <ele>1832.41</ele>
        <time>2019-07-10T10:50:05Z</time>
      </trkpt>
      <trkpt lat="45.05931" lon="2.76185">
        <ele>1830.97</ele>
        <time>2019-07-10T10:50:19Z</time>
      </trkpt>
      <trkpt lat="45.05937" lon="2.76178">
        <ele>1829.05</ele>
        <time>2019-07-10T10:50:31Z</time>
      </trkpt>
      <trkpt lat="45.05942" lon="2.76174">
        <ele>1828.56</ele>
        <time>2019-07-10T10:50:38Z</time>
      </trkpt>
      <trkpt lat="45.05945" lon="2.76172">
        <ele>1827.6</ele>
        <time>2019-07-10T10:50:42Z</time>
      </trkpt>
      <trkpt lat="45.05946" lon="2.76171">
        <ele>1827.12</ele>
        <time>2019-07-10T10:50:44Z</time>
      </trkpt>
      <trkpt lat="45.05947" lon="2.7617">
        <ele>1827.6</ele>
        <time>2019-07-10T10:50:46Z</time>
      </trkpt>
      <trkpt lat="45.05958" lon="2.76168">
        <ele>1824.24</ele>
        <time>2019-07-10T10:51:00Z</time>
      </trkpt>
      <trkpt lat="45.05958" lon="2.76166">
        <ele>1824.72</ele>
        <time>2019-07-10T10:51:04Z</time>
      </trkpt>
      <trkpt lat="45.0596" lon="2.76162">
        <ele>1824.72</ele>
        <time>2019-07-10T10:51:07Z</time>
      </trkpt>
      <trkpt lat="45.0597" lon="2.76148">
        <ele>1822.32</ele>
        <time>2019-07-10T10:51:22Z</time>
      </trkpt>
      <trkpt lat="45.05977" lon="2.76142">
        <ele>1820.87</ele>
        <time>2019-07-10T10:51:34Z</time>
      </trkpt>
      <trkpt lat="45.05983" lon="2.7614">
        <ele>1819.43</ele>
        <time>2019-07-10T10:51:46Z</time>
      </trkpt>
      <trkpt lat="45.05988" lon="2.76137">
        <ele>1817.51</ele>
        <time>2019-07-10T10:51:58Z</time>
      </trkpt>
      <trkpt lat="45.0599" lon="2.76131">
        <ele>1816.55</ele>
        <time>2019-07-10T10:52:04Z</time>
      </trkpt>
      <trkpt lat="45.05993" lon="2.76113">
        <ele>1816.55</ele>
        <time>2019-07-10T10:52:18Z</time>
      </trkpt>
      <trkpt lat="45.05995" lon="2.76111">
        <ele>1814.63</ele>
        <time>2019-07-10T10:52:30Z</time>
      </trkpt>
      <trkpt lat="45.05996" lon="2.76113">
        <ele>1816.55</ele>
        <time>2019-07-10T10:52:43Z</time>
      </trkpt>
      <trkpt lat="45.05997" lon="2.76106">
        <ele>1813.66</ele>
        <time>2019-07-10T10:52:53Z</time>
      </trkpt>
      <trkpt lat="45.05997" lon="2.76094">
        <ele>1813.66</ele>
        <time>2019-07-10T10:53:04Z</time>
      </trkpt>
      <trkpt lat="45.05995" lon="2.76097">
        <ele>1813.66</ele>
        <time>2019-07-10T10:53:15Z</time>
      </trkpt>
      <trkpt lat="45.05995" lon="2.761">
        <ele>1814.15</ele>
        <time>2019-07-10T10:53:31Z</time>
      </trkpt>
      <trkpt lat="45.05994" lon="2.76101">
        <ele>1814.63</ele>
        <time>2019-07-10T10:53:51Z</time>
      </trkpt>
      <trkpt lat="45.05992" lon="2.76102">
        <ele>1813.66</ele>
        <time>2019-07-10T10:53:58Z</time>
      </trkpt>
      <trkpt lat="45.05988" lon="2.76102">
        <ele>1814.15</ele>
        <time>2019-07-10T10:54:03Z</time>
      </trkpt>
      <trkpt lat="45.05977" lon="2.76099">
        <ele>1814.15</ele>
        <time>2019-07-10T10:54:14Z</time>
      </trkpt>
      <trkpt lat="45.05971" lon="2.76098">
        <ele>1814.63</ele>
        <time>2019-07-10T10:54:25Z</time>
      </trkpt>
      <trkpt lat="45.0597" lon="2.76099">
        <ele>1815.11</ele>
        <time>2019-07-10T10:54:38Z</time>
      </trkpt>
      <trkpt lat="45.05971" lon="2.76098">
        <ele>1815.11</ele>
        <time>2019-07-10T10:54:58Z</time>
      </trkpt>
      <trkpt lat="45.05971" lon="2.76098">
        <ele>1814.63</ele>
        <time>2019-07-10T10:55:12Z</time>
      </trkpt>
      <trkpt lat="45.05971" lon="2.76098">
        <ele>1814.15</ele>
        <time>2019-07-10T10:55:54Z</time>
      </trkpt>
      <trkpt lat="45.05971" lon="2.76098">
        <ele>1814.63</ele>
        <time>2019-07-10T10:56:57Z</time>
      </trkpt>
      <trkpt lat="45.0597" lon="2.76098">
        <ele>1814.63</ele>
        <time>2019-07-10T10:57:43Z</time>
      </trkpt>
      <trkpt lat="45.0597" lon="2.76098">
        <ele>1814.63</ele>
        <time>2019-07-10T10:58:20Z</time>
      </trkpt>
      <trkpt lat="45.0597" lon="2.76094">
        <ele>1815.59</ele>
        <time>2019-07-10T11:01:04Z</time>
      </trkpt>
      <trkpt lat="45.0597" lon="2.76094">
        <ele>1815.59</ele>
        <time>2019-07-10T11:02:01Z</time>
      </trkpt>
      <trkpt lat="45.05971" lon="2.76094">
        <ele>1815.59</ele>
        <time>2019-07-10T11:02:33Z</time>
      </trkpt>
      <trkpt lat="45.05971" lon="2.76094">
        <ele>1815.59</ele>
        <time>2019-07-10T11:03:03Z</time>
      </trkpt>
      <trkpt lat="45.05968" lon="2.76095">
        <ele>1816.07</ele>
        <time>2019-07-10T11:03:34Z</time>
      </trkpt>
      <trkpt lat="45.05968" lon="2.76094">
        <ele>1816.07</ele>
        <time>2019-07-10T11:04:02Z</time>
      </trkpt>
      <trkpt lat="45.05968" lon="2.76094">
        <ele>1816.55</ele>
        <time>2019-07-10T11:04:44Z</time>
      </trkpt>
      <trkpt lat="45.05968" lon="2.76095">
        <ele>1816.55</ele>
        <time>2019-07-10T11:06:47Z</time>
      </trkpt>
      <trkpt lat="45.05969" lon="2.76095">
        <ele>1817.99</ele>
        <time>2019-07-10T11:12:26Z</time>
      </trkpt>
      <trkpt lat="45.0597" lon="2.76097">
        <ele>1818.95</ele>
        <time>2019-07-10T11:25:19Z</time>
      </trkpt>
      <trkpt lat="45.05971" lon="2.76098">
        <ele>1818.47</ele>
        <time>2019-07-10T11:28:30Z</time>
      </trkpt>
      <trkpt lat="45.05971" lon="2.76096">
        <ele>1817.51</ele>
        <time>2019-07-10T11:32:55Z</time>
      </trkpt>
      <trkpt lat="45.05972" lon="2.76096">
        <ele>1817.03</ele>
        <time>2019-07-10T11:35:27Z</time>
      </trkpt>
      <trkpt lat="45.05972" lon="2.76096">
        <ele>1817.51</ele>
        <time>2019-07-10T11:36:35Z</time>
      </trkpt>
      <trkpt lat="45.05973" lon="2.76096">
        <ele>1817.51</ele>
        <time>2019-07-10T11:40:44Z</time>
      </trkpt>
      <trkpt lat="45.05974" lon="2.76097">
        <ele>1818.47</ele>
        <time>2019-07-10T11:41:06Z</time>
      </trkpt>
      <trkpt lat="45.05973" lon="2.76096">
        <ele>1817.99</ele>
        <time>2019-07-10T11:41:45Z</time>
      </trkpt>
      <trkpt lat="45.05972" lon="2.76094">
        <ele>1817.99</ele>
        <time>2019-07-10T11:41:58Z</time>
      </trkpt>
      <trkpt lat="45.05973" lon="2.76097">
        <ele>1817.99</ele>
        <time>2019-07-10T11:42:13Z</time>
      </trkpt>
      <trkpt lat="45.05972" lon="2.76095">
        <ele>1817.99</ele>
        <time>2019-07-10T11:42:38Z</time>
      </trkpt>
      <trkpt lat="45.05971" lon="2.76092">
        <ele>1817.99</ele>
        <time>2019-07-10T11:42:51Z</time>
      </trkpt>
      <trkpt lat="45.0597" lon="2.76091">
        <ele>1817.03</ele>
        <time>2019-07-10T11:43:43Z</time>
      </trkpt>
      <trkpt lat="45.05972" lon="2.76093">
        <ele>1817.99</ele>
        <time>2019-07-10T11:43:58Z</time>
      </trkpt>
      <trkpt lat="45.05972" lon="2.76095">
        <ele>1818.47</ele>
        <time>2019-07-10T11:44:11Z</time>
      </trkpt>
      <trkpt lat="45.05974" lon="2.76094">
        <ele>1818.47</ele>
        <time>2019-07-10T11:44:25Z</time>
      </trkpt>
      <trkpt lat="45.05979" lon="2.76097">
        <ele>1818.95</ele>
        <time>2019-07-10T11:44:41Z</time>
      </trkpt>
      <trkpt lat="45.05981" lon="2.76098">
        <ele>1818.47</ele>
        <time>2019-07-10T11:44:54Z</time>
      </trkpt>
      <trkpt lat="45.05984" lon="2.76102">
        <ele>1817.99</ele>
        <time>2019-07-10T11:44:58Z</time>
      </trkpt>
      <trkpt lat="45.05995" lon="2.76106">
        <ele>1817.03</ele>
        <time>2019-07-10T11:45:11Z</time>
      </trkpt>
      <trkpt lat="45.06" lon="2.76106">
        <ele>1817.03</ele>
        <time>2019-07-10T11:45:22Z</time>
      </trkpt>
      <trkpt lat="45.06008" lon="2.76106">
        <ele>1816.07</ele>
        <time>2019-07-10T11:45:34Z</time>
      </trkpt>
      <trkpt lat="45.06015" lon="2.7611">
        <ele>1815.59</ele>
        <time>2019-07-10T11:45:45Z</time>
      </trkpt>
      <trkpt lat="45.06016" lon="2.76112">
        <ele>1816.07</ele>
        <time>2019-07-10T11:45:47Z</time>
      </trkpt>
      <trkpt lat="45.06018" lon="2.76115">
        <ele>1816.55</ele>
        <time>2019-07-10T11:45:50Z</time>
      </trkpt>
      <trkpt lat="45.0602" lon="2.7612">
        <ele>1816.07</ele>
        <time>2019-07-10T11:45:54Z</time>
      </trkpt>
      <trkpt lat="45.06023" lon="2.76125">
        <ele>1816.07</ele>
        <time>2019-07-10T11:45:59Z</time>
      </trkpt>
      <trkpt lat="45.06024" lon="2.76129">
        <ele>1816.55</ele>
        <time>2019-07-10T11:46:02Z</time>
      </trkpt>
      <trkpt lat="45.06016" lon="2.76142">
        <ele>1816.55</ele>
        <time>2019-07-10T11:46:16Z</time>
      </trkpt>
      <trkpt lat="45.06017" lon="2.76143">
        <ele>1816.07</ele>
        <time>2019-07-10T11:46:17Z</time>
      </trkpt>
      <trkpt lat="45.06018" lon="2.76147">
        <ele>1816.07</ele>
        <time>2019-07-10T11:46:20Z</time>
      </trkpt>
      <trkpt lat="45.06022" lon="2.76155">
        <ele>1815.11</ele>
        <time>2019-07-10T11:46:28Z</time>
      </trkpt>
      <trkpt lat="45.06026" lon="2.76159">
        <ele>1814.63</ele>
        <time>2019-07-10T11:46:33Z</time>
      </trkpt>
      <trkpt lat="45.06035" lon="2.76168">
        <ele>1813.66</ele>
        <time>2019-07-10T11:46:46Z</time>
      </trkpt>
      <trkpt lat="45.06039" lon="2.76172">
        <ele>1813.18</ele>
        <time>2019-07-10T11:46:53Z</time>
      </trkpt>
      <trkpt lat="45.06047" lon="2.76175">
        <ele>1811.74</ele>
        <time>2019-07-10T11:47:05Z</time>
      </trkpt>
      <trkpt lat="45.06052" lon="2.76174">
        <ele>1810.78</ele>
        <time>2019-07-10T11:47:10Z</time>
      </trkpt>
      <trkpt lat="45.06066" lon="2.7617">
        <ele>1810.3</ele>
        <time>2019-07-10T11:47:25Z</time>
      </trkpt>
      <trkpt lat="45.06078" lon="2.76169">
        <ele>1809.82</ele>
        <time>2019-07-10T11:47:37Z</time>
      </trkpt>
      <trkpt lat="45.06093" lon="2.76166">
        <ele>1809.34</ele>
        <time>2019-07-10T11:47:52Z</time>
      </trkpt>
      <trkpt lat="45.06105" lon="2.76163">
        <ele>1807.42</ele>
        <time>2019-07-10T11:48:04Z</time>
      </trkpt>
      <trkpt lat="45.0611" lon="2.76162">
        <ele>1807.9</ele>
        <time>2019-07-10T11:48:09Z</time>
      </trkpt>
      <trkpt lat="45.06113" lon="2.76161">
        <ele>1807.42</ele>
        <time>2019-07-10T11:48:12Z</time>
      </trkpt>
      <trkpt lat="45.06118" lon="2.76162">
        <ele>1806.45</ele>
        <time>2019-07-10T11:48:17Z</time>
      </trkpt>
      <trkpt lat="45.06119" lon="2.7616">
        <ele>1806.94</ele>
        <time>2019-07-10T11:48:19Z</time>
      </trkpt>
      <trkpt lat="45.06126" lon="2.76159">
        <ele>1805.97</ele>
        <time>2019-07-10T11:48:26Z</time>
      </trkpt>
      <trkpt lat="45.06135" lon="2.76155">
        <ele>1805.97</ele>
        <time>2019-07-10T11:48:36Z</time>
      </trkpt>
      <trkpt lat="45.06138" lon="2.76154">
        <ele>1805.97</ele>
        <time>2019-07-10T11:48:38Z</time>
      </trkpt>
      <trkpt lat="45.06139" lon="2.76153">
        <ele>1805.49</ele>
        <time>2019-07-10T11:48:40Z</time>
      </trkpt>
      <trkpt lat="45.06152" lon="2.76148">
        <ele>1804.05</ele>
        <time>2019-07-10T11:48:53Z</time>
      </trkpt>
      <trkpt lat="45.0616" lon="2.76145">
        <ele>1803.09</ele>
        <time>2019-07-10T11:49:01Z</time>
      </trkpt>
      <trkpt lat="45.06164" lon="2.76143">
        <ele>1802.61</ele>
        <time>2019-07-10T11:49:06Z</time>
      </trkpt>
      <trkpt lat="45.06166" lon="2.76143">
        <ele>1802.61</ele>
        <time>2019-07-10T11:49:08Z</time>
      </trkpt>
      <trkpt lat="45.06168" lon="2.76142">
        <ele>1802.13</ele>
        <time>2019-07-10T11:49:10Z</time>
      </trkpt>
      <trkpt lat="45.06169" lon="2.76141">
        <ele>1802.61</ele>
        <time>2019-07-10T11:49:12Z</time>
      </trkpt>
      <trkpt lat="45.06171" lon="2.7614">
        <ele>1802.61</ele>
        <time>2019-07-10T11:49:15Z</time>
      </trkpt>
      <trkpt lat="45.0618" lon="2.76131">
        <ele>1802.61</ele>
        <time>2019-07-10T11:49:26Z</time>
      </trkpt>
      <trkpt lat="45.06192" lon="2.76125">
        <ele>1802.13</ele>
        <time>2019-07-10T11:49:40Z</time>
      </trkpt>
      <trkpt lat="45.06193" lon="2.76125">
        <ele>1802.13</ele>
        <time>2019-07-10T11:49:41Z</time>
      </trkpt>
      <trkpt lat="45.06201" lon="2.76125">
        <ele>1801.65</ele>
        <time>2019-07-10T11:49:49Z</time>
      </trkpt>
      <trkpt lat="45.06213" lon="2.76131">
        <ele>1799.73</ele>
        <time>2019-07-10T11:50:02Z</time>
      </trkpt>
      <trkpt lat="45.06216" lon="2.76132">
        <ele>1799.73</ele>
        <time>2019-07-10T11:50:05Z</time>
      </trkpt>
      <trkpt lat="45.06222" lon="2.76132">
        <ele>1799.73</ele>
        <time>2019-07-10T11:50:11Z</time>
      </trkpt>
      <trkpt lat="45.06233" lon="2.76135">
        <ele>1798.28</ele>
        <time>2019-07-10T11:50:24Z</time>
      </trkpt>
      <trkpt lat="45.06235" lon="2.76135">
        <ele>1797.8</ele>
        <time>2019-07-10T11:50:26Z</time>
      </trkpt>
      <trkpt lat="45.06246" lon="2.76133">
        <ele>1796.84</ele>
        <time>2019-07-10T11:50:39Z</time>
      </trkpt>
      <trkpt lat="45.06256" lon="2.76133">
        <ele>1795.88</ele>
        <time>2019-07-10T11:50:49Z</time>
      </trkpt>
      <trkpt lat="45.06269" lon="2.7613">
        <ele>1796.84</ele>
        <time>2019-07-10T11:51:02Z</time>
      </trkpt>
      <trkpt lat="45.06274" lon="2.76127">
        <ele>1796.36</ele>
        <time>2019-07-10T11:51:08Z</time>
      </trkpt>
      <trkpt lat="45.06283" lon="2.76122">
        <ele>1796.36</ele>
        <time>2019-07-10T11:51:18Z</time>
      </trkpt>
      <trkpt lat="45.0629" lon="2.76118">
        <ele>1796.36</ele>
        <time>2019-07-10T11:51:26Z</time>
      </trkpt>
      <trkpt lat="45.06301" lon="2.76116">
        <ele>1796.36</ele>
        <time>2019-07-10T11:51:37Z</time>
      </trkpt>
      <trkpt lat="45.06302" lon="2.76115">
        <ele>1795.88</ele>
        <time>2019-07-10T11:51:39Z</time>
      </trkpt>
      <trkpt lat="45.06314" lon="2.76113">
        <ele>1795.4</ele>
        <time>2019-07-10T11:51:53Z</time>
      </trkpt>
      <trkpt lat="45.06323" lon="2.76111">
        <ele>1794.44</ele>
        <time>2019-07-10T11:52:05Z</time>
      </trkpt>
      <trkpt lat="45.06329" lon="2.76113">
        <ele>1794.44</ele>
        <time>2019-07-10T11:52:16Z</time>
      </trkpt>
      <trkpt lat="45.06329" lon="2.76113">
        <ele>1794.44</ele>
        <time>2019-07-10T11:52:29Z</time>
      </trkpt>
      <trkpt lat="45.06328" lon="2.76112">
        <ele>1793.96</ele>
        <time>2019-07-10T11:53:11Z</time>
      </trkpt>
      <trkpt lat="45.06328" lon="2.76112">
        <ele>1793.96</ele>
        <time>2019-07-10T11:54:14Z</time>
      </trkpt>
      <trkpt lat="45.06328" lon="2.76112">
        <ele>1793.96</ele>
        <time>2019-07-10T11:55:13Z</time>
      </trkpt>
      <trkpt lat="45.06331" lon="2.76114">
        <ele>1793.48</ele>
        <time>2019-07-10T11:55:44Z</time>
      </trkpt>
      <trkpt lat="45.06338" lon="2.76124">
        <ele>1793</ele>
        <time>2019-07-10T11:55:57Z</time>
      </trkpt>
      <trkpt lat="45.06339" lon="2.76127">
        <ele>1792.52</ele>
        <time>2019-07-10T11:56:00Z</time>
      </trkpt>
      <trkpt lat="45.0634" lon="2.76129">
        <ele>1792.52</ele>
        <time>2019-07-10T11:56:02Z</time>
      </trkpt>
      <trkpt lat="45.06344" lon="2.76135">
        <ele>1791.55</ele>
        <time>2019-07-10T11:56:08Z</time>
      </trkpt>
      <trkpt lat="45.06351" lon="2.76148">
        <ele>1789.15</ele>
        <time>2019-07-10T11:56:23Z</time>
      </trkpt>
      <trkpt lat="45.06354" lon="2.76155">
        <ele>1788.67</ele>
        <time>2019-07-10T11:56:29Z</time>
      </trkpt>
      <trkpt lat="45.0636" lon="2.76166">
        <ele>1789.15</ele>
        <time>2019-07-10T11:56:43Z</time>
      </trkpt>
      <trkpt lat="45.06366" lon="2.76184">
        <ele>1786.27</ele>
        <time>2019-07-10T11:56:58Z</time>
      </trkpt>
      <trkpt lat="45.06374" lon="2.76201">
        <ele>1783.86</ele>
        <time>2019-07-10T11:57:15Z</time>
      </trkpt>
      <trkpt lat="45.06383" lon="2.76212">
        <ele>1782.9</ele>
        <time>2019-07-10T11:57:29Z</time>
      </trkpt>
      <trkpt lat="45.06396" lon="2.76219">
        <ele>1780.5</ele>
        <time>2019-07-10T11:57:44Z</time>
      </trkpt>
      <trkpt lat="45.06407" lon="2.76227">
        <ele>1777.61</ele>
        <time>2019-07-10T11:57:58Z</time>
      </trkpt>
      <trkpt lat="45.06415" lon="2.76234">
        <ele>1776.65</ele>
        <time>2019-07-10T11:58:10Z</time>
      </trkpt>
      <trkpt lat="45.06424" lon="2.76241">
        <ele>1776.17</ele>
        <time>2019-07-10T11:58:20Z</time>
      </trkpt>
      <trkpt lat="45.06426" lon="2.76243">
        <ele>1776.17</ele>
        <time>2019-07-10T11:58:23Z</time>
      </trkpt>
      <trkpt lat="45.06434" lon="2.76251">
        <ele>1776.17</ele>
        <time>2019-07-10T11:58:32Z</time>
      </trkpt>
      <trkpt lat="45.06436" lon="2.76252">
        <ele>1775.69</ele>
        <time>2019-07-10T11:58:34Z</time>
      </trkpt>
      <trkpt lat="45.0644" lon="2.76257">
        <ele>1776.17</ele>
        <time>2019-07-10T11:58:39Z</time>
      </trkpt>
      <trkpt lat="45.06446" lon="2.76261">
        <ele>1775.21</ele>
        <time>2019-07-10T11:58:46Z</time>
      </trkpt>
      <trkpt lat="45.06449" lon="2.76262">
        <ele>1775.21</ele>
        <time>2019-07-10T11:58:50Z</time>
      </trkpt>
      <trkpt lat="45.06459" lon="2.76266">
        <ele>1775.21</ele>
        <time>2019-07-10T11:58:58Z</time>
      </trkpt>
      <trkpt lat="45.06461" lon="2.76266">
        <ele>1775.69</ele>
        <time>2019-07-10T11:59:00Z</time>
      </trkpt>
      <trkpt lat="45.06468" lon="2.76273">
        <ele>1774.73</ele>
        <time>2019-07-10T11:59:09Z</time>
      </trkpt>
      <trkpt lat="45.06477" lon="2.76283">
        <ele>1775.21</ele>
        <time>2019-07-10T11:59:22Z</time>
      </trkpt>
      <trkpt lat="45.06477" lon="2.76284">
        <ele>1775.21</ele>
        <time>2019-07-10T11:59:23Z</time>
      </trkpt>
      <trkpt lat="45.0649" lon="2.76293">
        <ele>1774.25</ele>
        <time>2019-07-10T11:59:38Z</time>
      </trkpt>
      <trkpt lat="45.06501" lon="2.76299">
        <ele>1773.29</ele>
        <time>2019-07-10T11:59:49Z</time>
      </trkpt>
      <trkpt lat="45.06504" lon="2.763">
        <ele>1773.29</ele>
        <time>2019-07-10T11:59:52Z</time>
      </trkpt>
      <trkpt lat="45.06508" lon="2.76304">
        <ele>1773.29</ele>
        <time>2019-07-10T11:59:57Z</time>
      </trkpt>
      <trkpt lat="45.06521" lon="2.76313">
        <ele>1774.25</ele>
        <time>2019-07-10T12:00:11Z</time>
      </trkpt>
      <trkpt lat="45.06525" lon="2.76322">
        <ele>1773.77</ele>
        <time>2019-07-10T12:00:19Z</time>
      </trkpt>
      <trkpt lat="45.06534" lon="2.76335">
        <ele>1773.29</ele>
        <time>2019-07-10T12:00:31Z</time>
      </trkpt>
      <trkpt lat="45.06535" lon="2.76335">
        <ele>1773.77</ele>
        <time>2019-07-10T12:00:32Z</time>
      </trkpt>
      <trkpt lat="45.06541" lon="2.76338">
        <ele>1773.77</ele>
        <time>2019-07-10T12:00:41Z</time>
      </trkpt>
      <trkpt lat="45.06541" lon="2.76335">
        <ele>1773.77</ele>
        <time>2019-07-10T12:00:44Z</time>
      </trkpt>
      <trkpt lat="45.06538" lon="2.76322">
        <ele>1774.25</ele>
        <time>2019-07-10T12:00:53Z</time>
      </trkpt>
      <trkpt lat="45.06538" lon="2.76308">
        <ele>1773.77</ele>
        <time>2019-07-10T12:01:07Z</time>
      </trkpt>
      <trkpt lat="45.06538" lon="2.76308">
        <ele>1773.77</ele>
        <time>2019-07-10T12:01:08Z</time>
      </trkpt>
      <trkpt lat="45.06545" lon="2.76307">
        <ele>1773.29</ele>
        <time>2019-07-10T12:01:20Z</time>
      </trkpt>
      <trkpt lat="45.06549" lon="2.76304">
        <ele>1772.81</ele>
        <time>2019-07-10T12:01:34Z</time>
      </trkpt>
      <trkpt lat="45.0655" lon="2.76298">
        <ele>1772.33</ele>
        <time>2019-07-10T12:01:45Z</time>
      </trkpt>
      <trkpt lat="45.06551" lon="2.76284">
        <ele>1770.41</ele>
        <time>2019-07-10T12:02:00Z</time>
      </trkpt>
      <trkpt lat="45.06551" lon="2.76279">
        <ele>1769.92</ele>
        <time>2019-07-10T12:02:05Z</time>
      </trkpt>
      <trkpt lat="45.06543" lon="2.76266">
        <ele>1767.52</ele>
        <time>2019-07-10T12:02:21Z</time>
      </trkpt>
      <trkpt lat="45.06535" lon="2.76256">
        <ele>1765.12</ele>
        <time>2019-07-10T12:02:36Z</time>
      </trkpt>
      <trkpt lat="45.06533" lon="2.76248">
        <ele>1762.23</ele>
        <time>2019-07-10T12:02:46Z</time>
      </trkpt>
      <trkpt lat="45.06539" lon="2.76237">
        <ele>1759.83</ele>
        <time>2019-07-10T12:02:59Z</time>
      </trkpt>
      <trkpt lat="45.06545" lon="2.76236">
        <ele>1759.35</ele>
        <time>2019-07-10T12:03:08Z</time>
      </trkpt>
      <trkpt lat="45.06551" lon="2.76233">
        <ele>1758.87</ele>
        <time>2019-07-10T12:03:20Z</time>
      </trkpt>
      <trkpt lat="45.06551" lon="2.76233">
        <ele>1757.43</ele>
        <time>2019-07-10T12:03:39Z</time>
      </trkpt>
      <trkpt lat="45.06559" lon="2.76237">
        <ele>1756.47</ele>
        <time>2019-07-10T12:03:53Z</time>
      </trkpt>
      <trkpt lat="45.06571" lon="2.76242">
        <ele>1755.02</ele>
        <time>2019-07-10T12:04:07Z</time>
      </trkpt>
      <trkpt lat="45.0658" lon="2.76247">
        <ele>1753.1</ele>
        <time>2019-07-10T12:04:20Z</time>
      </trkpt>
      <trkpt lat="45.06589" lon="2.7625">
        <ele>1751.66</ele>
        <time>2019-07-10T12:04:32Z</time>
      </trkpt>
      <trkpt lat="45.06593" lon="2.76253">
        <ele>1750.22</ele>
        <time>2019-07-10T12:04:40Z</time>
      </trkpt>
      <trkpt lat="45.06602" lon="2.76259">
        <ele>1748.29</ele>
        <time>2019-07-10T12:04:52Z</time>
      </trkpt>
      <trkpt lat="45.06611" lon="2.76264">
        <ele>1746.85</ele>
        <time>2019-07-10T12:05:05Z</time>
      </trkpt>
      <trkpt lat="45.06619" lon="2.76268">
        <ele>1745.89</ele>
        <time>2019-07-10T12:05:17Z</time>
      </trkpt>
      <trkpt lat="45.06621" lon="2.76269">
        <ele>1745.41</ele>
        <time>2019-07-10T12:05:20Z</time>
      </trkpt>
      <trkpt lat="45.06627" lon="2.76272">
        <ele>1744.45</ele>
        <time>2019-07-10T12:05:28Z</time>
      </trkpt>
      <trkpt lat="45.06635" lon="2.76276">
        <ele>1743.01</ele>
        <time>2019-07-10T12:05:40Z</time>
      </trkpt>
      <trkpt lat="45.0664" lon="2.7628">
        <ele>1742.53</ele>
        <time>2019-07-10T12:05:48Z</time>
      </trkpt>
      <trkpt lat="45.06652" lon="2.76285">
        <ele>1743.49</ele>
        <time>2019-07-10T12:06:03Z</time>
      </trkpt>
      <trkpt lat="45.0666" lon="2.76285">
        <ele>1741.08</ele>
        <time>2019-07-10T12:06:15Z</time>
      </trkpt>
      <trkpt lat="45.06665" lon="2.76279">
        <ele>1738.68</ele>
        <time>2019-07-10T12:06:27Z</time>
      </trkpt>
      <trkpt lat="45.06661" lon="2.76272">
        <ele>1736.76</ele>
        <time>2019-07-10T12:06:42Z</time>
      </trkpt>
      <trkpt lat="45.06655" lon="2.76263">
        <ele>1734.36</ele>
        <time>2019-07-10T12:06:55Z</time>
      </trkpt>
      <trkpt lat="45.06651" lon="2.76253">
        <ele>1732.43</ele>
        <time>2019-07-10T12:07:07Z</time>
      </trkpt>
      <trkpt lat="45.06641" lon="2.76242">
        <ele>1730.03</ele>
        <time>2019-07-10T12:07:22Z</time>
      </trkpt>
      <trkpt lat="45.06632" lon="2.76232">
        <ele>1728.11</ele>
        <time>2019-07-10T12:07:39Z</time>
      </trkpt>
      <trkpt lat="45.06626" lon="2.76222">
        <ele>1726.18</ele>
        <time>2019-07-10T12:07:53Z</time>
      </trkpt>
      <trkpt lat="45.0662" lon="2.76214">
        <ele>1725.22</ele>
        <time>2019-07-10T12:08:05Z</time>
      </trkpt>
      <trkpt lat="45.06613" lon="2.762">
        <ele>1722.82</ele>
        <time>2019-07-10T12:08:20Z</time>
      </trkpt>
      <trkpt lat="45.06612" lon="2.76197">
        <ele>1722.34</ele>
        <time>2019-07-10T12:08:23Z</time>
      </trkpt>
      <trkpt lat="45.06604" lon="2.76182">
        <ele>1720.42</ele>
        <time>2019-07-10T12:08:39Z</time>
      </trkpt>
      <trkpt lat="45.06599" lon="2.76165">
        <ele>1718.01</ele>
        <time>2019-07-10T12:08:55Z</time>
      </trkpt>
      <trkpt lat="45.06596" lon="2.76159">
        <ele>1716.09</ele>
        <time>2019-07-10T12:09:02Z</time>
      </trkpt>
      <trkpt lat="45.06593" lon="2.76149">
        <ele>1715.13</ele>
        <time>2019-07-10T12:09:12Z</time>
      </trkpt>
      <trkpt lat="45.06588" lon="2.76135">
        <ele>1713.21</ele>
        <time>2019-07-10T12:09:28Z</time>
      </trkpt>
      <trkpt lat="45.06587" lon="2.76134">
        <ele>1712.73</ele>
        <time>2019-07-10T12:09:29Z</time>
      </trkpt>
      <trkpt lat="45.0658" lon="2.76125">
        <ele>1711.28</ele>
        <time>2019-07-10T12:09:43Z</time>
      </trkpt>
      <trkpt lat="45.06569" lon="2.76118">
        <ele>1708.88</ele>
        <time>2019-07-10T12:09:57Z</time>
      </trkpt>
      <trkpt lat="45.06558" lon="2.76108">
        <ele>1706.96</ele>
        <time>2019-07-10T12:10:13Z</time>
      </trkpt>
      <trkpt lat="45.06551" lon="2.76101">
        <ele>1705.52</ele>
        <time>2019-07-10T12:10:26Z</time>
      </trkpt>
      <trkpt lat="45.06542" lon="2.76097">
        <ele>1704.07</ele>
        <time>2019-07-10T12:10:39Z</time>
      </trkpt>
      <trkpt lat="45.06533" lon="2.76094">
        <ele>1703.11</ele>
        <time>2019-07-10T12:10:50Z</time>
      </trkpt>
      <trkpt lat="45.06528" lon="2.76084">
        <ele>1700.71</ele>
        <time>2019-07-10T12:11:03Z</time>
      </trkpt>
      <trkpt lat="45.06527" lon="2.7607">
        <ele>1698.79</ele>
        <time>2019-07-10T12:11:14Z</time>
      </trkpt>
      <trkpt lat="45.06535" lon="2.76056">
        <ele>1696.38</ele>
        <time>2019-07-10T12:11:27Z</time>
      </trkpt>
      <trkpt lat="45.06544" lon="2.7606">
        <ele>1693.98</ele>
        <time>2019-07-10T12:11:41Z</time>
      </trkpt>
      <trkpt lat="45.06554" lon="2.76066">
        <ele>1692.06</ele>
        <time>2019-07-10T12:11:55Z</time>
      </trkpt>
      <trkpt lat="45.06562" lon="2.76066">
        <ele>1691.58</ele>
        <time>2019-07-10T12:12:07Z</time>
      </trkpt>
      <trkpt lat="45.06571" lon="2.76067">
        <ele>1688.69</ele>
        <time>2019-07-10T12:12:19Z</time>
      </trkpt>
      <trkpt lat="45.06582" lon="2.76068">
        <ele>1686.29</ele>
        <time>2019-07-10T12:12:32Z</time>
      </trkpt>
      <trkpt lat="45.06593" lon="2.76069">
        <ele>1685.81</ele>
        <time>2019-07-10T12:12:47Z</time>
      </trkpt>
      <trkpt lat="45.06601" lon="2.76072">
        <ele>1682.93</ele>
        <time>2019-07-10T12:13:00Z</time>
      </trkpt>
      <trkpt lat="45.0661" lon="2.76074">
        <ele>1681.96</ele>
        <time>2019-07-10T12:13:12Z</time>
      </trkpt>
      <trkpt lat="45.0662" lon="2.76079">
        <ele>1680.04</ele>
        <time>2019-07-10T12:13:24Z</time>
      </trkpt>
      <trkpt lat="45.06629" lon="2.76089">
        <ele>1679.08</ele>
        <time>2019-07-10T12:13:39Z</time>
      </trkpt>
      <trkpt lat="45.06636" lon="2.76095">
        <ele>1677.16</ele>
        <time>2019-07-10T12:13:52Z</time>
      </trkpt>
      <trkpt lat="45.06645" lon="2.76101">
        <ele>1674.27</ele>
        <time>2019-07-10T12:14:06Z</time>
      </trkpt>
      <trkpt lat="45.06651" lon="2.76107">
        <ele>1673.31</ele>
        <time>2019-07-10T12:14:18Z</time>
      </trkpt>
      <trkpt lat="45.06658" lon="2.76112">
        <ele>1670.43</ele>
        <time>2019-07-10T12:14:32Z</time>
      </trkpt>
      <trkpt lat="45.06666" lon="2.76113">
        <ele>1668.51</ele>
        <time>2019-07-10T12:14:44Z</time>
      </trkpt>
      <trkpt lat="45.06673" lon="2.76112">
        <ele>1666.1</ele>
        <time>2019-07-10T12:14:57Z</time>
      </trkpt>
      <trkpt lat="45.06674" lon="2.76108">
        <ele>1665.62</ele>
        <time>2019-07-10T12:15:13Z</time>
      </trkpt>
      <trkpt lat="45.06674" lon="2.76106">
        <ele>1664.18</ele>
        <time>2019-07-10T12:16:00Z</time>
      </trkpt>
      <trkpt lat="45.06674" lon="2.76104">
        <ele>1664.18</ele>
        <time>2019-07-10T12:16:20Z</time>
      </trkpt>
      <trkpt lat="45.06672" lon="2.76098">
        <ele>1662.26</ele>
        <time>2019-07-10T12:16:34Z</time>
      </trkpt>
      <trkpt lat="45.0667" lon="2.76095">
        <ele>1660.81</ele>
        <time>2019-07-10T12:16:39Z</time>
      </trkpt>
      <trkpt lat="45.06665" lon="2.76088">
        <ele>1659.85</ele>
        <time>2019-07-10T12:16:52Z</time>
      </trkpt>
      <trkpt lat="45.06665" lon="2.76077">
        <ele>1657.45</ele>
        <time>2019-07-10T12:17:05Z</time>
      </trkpt>
      <trkpt lat="45.06663" lon="2.7607">
        <ele>1654.09</ele>
        <time>2019-07-10T12:17:19Z</time>
      </trkpt>
      <trkpt lat="45.06659" lon="2.76058">
        <ele>1651.68</ele>
        <time>2019-07-10T12:17:37Z</time>
      </trkpt>
      <trkpt lat="45.06659" lon="2.7605">
        <ele>1649.76</ele>
        <time>2019-07-10T12:17:50Z</time>
      </trkpt>
      <trkpt lat="45.06658" lon="2.76044">
        <ele>1647.84</ele>
        <time>2019-07-10T12:18:04Z</time>
      </trkpt>
      <trkpt lat="45.06659" lon="2.76037">
        <ele>1645.43</ele>
        <time>2019-07-10T12:18:18Z</time>
      </trkpt>
      <trkpt lat="45.0666" lon="2.76035">
        <ele>1644.95</ele>
        <time>2019-07-10T12:18:29Z</time>
      </trkpt>
      <trkpt lat="45.06655" lon="2.76029">
        <ele>1644.47</ele>
        <time>2019-07-10T12:18:44Z</time>
      </trkpt>
      <trkpt lat="45.0665" lon="2.76021">
        <ele>1642.55</ele>
        <time>2019-07-10T12:18:58Z</time>
      </trkpt>
      <trkpt lat="45.06649" lon="2.76015">
        <ele>1641.11</ele>
        <time>2019-07-10T12:19:10Z</time>
      </trkpt>
      <trkpt lat="45.06647" lon="2.76009">
        <ele>1638.7</ele>
        <time>2019-07-10T12:19:21Z</time>
      </trkpt>
      <trkpt lat="45.06644" lon="2.76002">
        <ele>1636.78</ele>
        <time>2019-07-10T12:19:33Z</time>
      </trkpt>
      <trkpt lat="45.06641" lon="2.75991">
        <ele>1634.38</ele>
        <time>2019-07-10T12:19:46Z</time>
      </trkpt>
      <trkpt lat="45.06639" lon="2.75986">
        <ele>1632.46</ele>
        <time>2019-07-10T12:19:59Z</time>
      </trkpt>
      <trkpt lat="45.06638" lon="2.75983">
        <ele>1630.53</ele>
        <time>2019-07-10T12:20:02Z</time>
      </trkpt>
      <trkpt lat="45.06635" lon="2.75972">
        <ele>1630.05</ele>
        <time>2019-07-10T12:20:15Z</time>
      </trkpt>
      <trkpt lat="45.06632" lon="2.7597">
        <ele>1628.61</ele>
        <time>2019-07-10T12:20:19Z</time>
      </trkpt>
      <trkpt lat="45.06627" lon="2.7596">
        <ele>1625.73</ele>
        <time>2019-07-10T12:20:32Z</time>
      </trkpt>
      <trkpt lat="45.06625" lon="2.75948">
        <ele>1622.84</ele>
        <time>2019-07-10T12:20:44Z</time>
      </trkpt>
      <trkpt lat="45.06622" lon="2.75937">
        <ele>1621.4</ele>
        <time>2019-07-10T12:20:57Z</time>
      </trkpt>
      <trkpt lat="45.06622" lon="2.75936">
        <ele>1622.36</ele>
        <time>2019-07-10T12:21:39Z</time>
      </trkpt>
      <trkpt lat="45.06619" lon="2.7593">
        <ele>1620.92</ele>
        <time>2019-07-10T12:22:00Z</time>
      </trkpt>
      <trkpt lat="45.06618" lon="2.75923">
        <ele>1619.96</ele>
        <time>2019-07-10T12:22:11Z</time>
      </trkpt>
      <trkpt lat="45.06618" lon="2.75919">
        <ele>1618.04</ele>
        <time>2019-07-10T12:22:23Z</time>
      </trkpt>
      <trkpt lat="45.06619" lon="2.75911">
        <ele>1616.59</ele>
        <time>2019-07-10T12:22:37Z</time>
      </trkpt>
      <trkpt lat="45.0662" lon="2.75909">
        <ele>1615.15</ele>
        <time>2019-07-10T12:22:58Z</time>
      </trkpt>
      <trkpt lat="45.0662" lon="2.75902">
        <ele>1613.71</ele>
        <time>2019-07-10T12:23:10Z</time>
      </trkpt>
      <trkpt lat="45.06623" lon="2.75896">
        <ele>1610.83</ele>
        <time>2019-07-10T12:23:23Z</time>
      </trkpt>
      <trkpt lat="45.06627" lon="2.75896">
        <ele>1609.38</ele>
        <time>2019-07-10T12:23:35Z</time>
      </trkpt>
      <trkpt lat="45.06628" lon="2.75892">
        <ele>1608.42</ele>
        <time>2019-07-10T12:23:50Z</time>
      </trkpt>
      <trkpt lat="45.0663" lon="2.75891">
        <ele>1607.46</ele>
        <time>2019-07-10T12:24:01Z</time>
      </trkpt>
      <trkpt lat="45.06633" lon="2.75889">
        <ele>1606.02</ele>
        <time>2019-07-10T12:24:14Z</time>
      </trkpt>
      <trkpt lat="45.06632" lon="2.75881">
        <ele>1603.14</ele>
        <time>2019-07-10T12:24:27Z</time>
      </trkpt>
      <trkpt lat="45.06635" lon="2.75875">
        <ele>1601.21</ele>
        <time>2019-07-10T12:24:39Z</time>
      </trkpt>
      <trkpt lat="45.06636" lon="2.75869">
        <ele>1598.81</ele>
        <time>2019-07-10T12:24:48Z</time>
      </trkpt>
      <trkpt lat="45.06639" lon="2.75864">
        <ele>1597.37</ele>
        <time>2019-07-10T12:24:59Z</time>
      </trkpt>
      <trkpt lat="45.06643" lon="2.7586">
        <ele>1594.96</ele>
        <time>2019-07-10T12:25:10Z</time>
      </trkpt>
      <trkpt lat="45.06644" lon="2.75857">
        <ele>1593.52</ele>
        <time>2019-07-10T12:25:23Z</time>
      </trkpt>
      <trkpt lat="45.06644" lon="2.75855">
        <ele>1592.08</ele>
        <time>2019-07-10T12:25:28Z</time>
      </trkpt>
      <trkpt lat="45.06648" lon="2.75844">
        <ele>1589.68</ele>
        <time>2019-07-10T12:25:41Z</time>
      </trkpt>
      <trkpt lat="45.06651" lon="2.75839">
        <ele>1588.24</ele>
        <time>2019-07-10T12:25:51Z</time>
      </trkpt>
      <trkpt lat="45.06651" lon="2.75837">
        <ele>1586.79</ele>
        <time>2019-07-10T12:25:54Z</time>
      </trkpt>
      <trkpt lat="45.06655" lon="2.75832">
        <ele>1584.87</ele>
        <time>2019-07-10T12:26:03Z</time>
      </trkpt>
      <trkpt lat="45.06656" lon="2.75831">
        <ele>1584.87</ele>
        <time>2019-07-10T12:26:04Z</time>
      </trkpt>
      <trkpt lat="45.06664" lon="2.75824">
        <ele>1582.47</ele>
        <time>2019-07-10T12:26:18Z</time>
      </trkpt>
      <trkpt lat="45.06669" lon="2.7582">
        <ele>1579.58</ele>
        <time>2019-07-10T12:26:29Z</time>
      </trkpt>
      <trkpt lat="45.06675" lon="2.75814">
        <ele>1577.18</ele>
        <time>2019-07-10T12:26:42Z</time>
      </trkpt>
      <trkpt lat="45.06679" lon="2.75807">
        <ele>1574.3</ele>
        <time>2019-07-10T12:26:53Z</time>
      </trkpt>
      <trkpt lat="45.0668" lon="2.75805">
        <ele>1572.85</ele>
        <time>2019-07-10T12:26:58Z</time>
      </trkpt>
      <trkpt lat="45.06683" lon="2.75799">
        <ele>1570.93</ele>
        <time>2019-07-10T12:27:09Z</time>
      </trkpt>
      <trkpt lat="45.06685" lon="2.75791">
        <ele>1568.05</ele>
        <time>2019-07-10T12:27:20Z</time>
      </trkpt>
      <trkpt lat="45.06687" lon="2.75787">
        <ele>1566.12</ele>
        <time>2019-07-10T12:27:32Z</time>
      </trkpt>
      <trkpt lat="45.06688" lon="2.75787">
        <ele>1565.16</ele>
        <time>2019-07-10T12:27:50Z</time>
      </trkpt>
      <trkpt lat="45.06688" lon="2.75788">
        <ele>1565.64</ele>
        <time>2019-07-10T12:28:32Z</time>
      </trkpt>
      <trkpt lat="45.06687" lon="2.75788">
        <ele>1566.12</ele>
        <time>2019-07-10T12:29:13Z</time>
      </trkpt>
      <trkpt lat="45.06688" lon="2.75788">
        <ele>1565.16</ele>
        <time>2019-07-10T12:30:23Z</time>
      </trkpt>
      <trkpt lat="45.06688" lon="2.75788">
        <ele>1565.16</ele>
        <time>2019-07-10T12:31:29Z</time>
      </trkpt>
      <trkpt lat="45.06693" lon="2.75784">
        <ele>1561.8</ele>
        <time>2019-07-10T12:32:56Z</time>
      </trkpt>
      <trkpt lat="45.06697" lon="2.75781">
        <ele>1559.88</ele>
        <time>2019-07-10T12:33:07Z</time>
      </trkpt>
      <trkpt lat="45.06701" lon="2.75779">
        <ele>1557.95</ele>
        <time>2019-07-10T12:33:19Z</time>
      </trkpt>
      <trkpt lat="45.06701" lon="2.75779">
        <ele>1556.51</ele>
        <time>2019-07-10T12:33:31Z</time>
      </trkpt>
      <trkpt lat="45.06704" lon="2.75777">
        <ele>1554.59</ele>
        <time>2019-07-10T12:33:42Z</time>
      </trkpt>
      <trkpt lat="45.0671" lon="2.75772">
        <ele>1552.19</ele>
        <time>2019-07-10T12:33:55Z</time>
      </trkpt>
      <trkpt lat="45.06719" lon="2.75762">
        <ele>1550.26</ele>
        <time>2019-07-10T12:34:08Z</time>
      </trkpt>
      <trkpt lat="45.06726" lon="2.75753">
        <ele>1548.82</ele>
        <time>2019-07-10T12:34:20Z</time>
      </trkpt>
      <trkpt lat="45.06732" lon="2.75742">
        <ele>1546.9</ele>
        <time>2019-07-10T12:34:32Z</time>
      </trkpt>
      <trkpt lat="45.06735" lon="2.75741">
        <ele>1545.94</ele>
        <time>2019-07-10T12:34:36Z</time>
      </trkpt>
      <trkpt lat="45.06745" lon="2.75739">
        <ele>1544.5</ele>
        <time>2019-07-10T12:34:51Z</time>
      </trkpt>
      <trkpt lat="45.06749" lon="2.75735">
        <ele>1543.05</ele>
        <time>2019-07-10T12:34:57Z</time>
      </trkpt>
      <trkpt lat="45.06757" lon="2.75725">
        <ele>1540.65</ele>
        <time>2019-07-10T12:35:12Z</time>
      </trkpt>
      <trkpt lat="45.06765" lon="2.75716">
        <ele>1539.69</ele>
        <time>2019-07-10T12:35:24Z</time>
      </trkpt>
      <trkpt lat="45.06772" lon="2.75709">
        <ele>1538.25</ele>
        <time>2019-07-10T12:35:36Z</time>
      </trkpt>
      <trkpt lat="45.06784" lon="2.75697">
        <ele>1534.88</ele>
        <time>2019-07-10T12:35:53Z</time>
      </trkpt>
      <trkpt lat="45.06791" lon="2.75688">
        <ele>1532.96</ele>
        <time>2019-07-10T12:36:07Z</time>
      </trkpt>
      <trkpt lat="45.06797" lon="2.75678">
        <ele>1530.08</ele>
        <time>2019-07-10T12:36:20Z</time>
      </trkpt>
      <trkpt lat="45.06803" lon="2.75669">
        <ele>1528.63</ele>
        <time>2019-07-10T12:36:32Z</time>
      </trkpt>
      <trkpt lat="45.06806" lon="2.75662">
        <ele>1527.19</ele>
        <time>2019-07-10T12:36:38Z</time>
      </trkpt>
      <trkpt lat="45.0681" lon="2.75653">
        <ele>1524.79</ele>
        <time>2019-07-10T12:36:47Z</time>
      </trkpt>
      <trkpt lat="45.06812" lon="2.7565">
        <ele>1524.79</ele>
        <time>2019-07-10T12:36:51Z</time>
      </trkpt>
      <trkpt lat="45.06812" lon="2.75647">
        <ele>1523.83</ele>
        <time>2019-07-10T12:36:53Z</time>
      </trkpt>
      <trkpt lat="45.06814" lon="2.75636">
        <ele>1521.42</ele>
        <time>2019-07-10T12:37:06Z</time>
      </trkpt>
      <trkpt lat="45.06809" lon="2.75628">
        <ele>1519.98</ele>
        <time>2019-07-10T12:37:17Z</time>
      </trkpt>
      <trkpt lat="45.06803" lon="2.75621">
        <ele>1517.1</ele>
        <time>2019-07-10T12:37:30Z</time>
      </trkpt>
      <trkpt lat="45.06801" lon="2.75614">
        <ele>1515.18</ele>
        <time>2019-07-10T12:37:38Z</time>
      </trkpt>
      <trkpt lat="45.068" lon="2.75603">
        <ele>1513.25</ele>
        <time>2019-07-10T12:37:50Z</time>
      </trkpt>
      <trkpt lat="45.068" lon="2.75593">
        <ele>1511.33</ele>
        <time>2019-07-10T12:38:01Z</time>
      </trkpt>
      <trkpt lat="45.068" lon="2.75579">
        <ele>1510.37</ele>
        <time>2019-07-10T12:38:13Z</time>
      </trkpt>
      <trkpt lat="45.06802" lon="2.75572">
        <ele>1510.85</ele>
        <time>2019-07-10T12:38:25Z</time>
      </trkpt>
      <trkpt lat="45.06801" lon="2.75572">
        <ele>1510.37</ele>
        <time>2019-07-10T12:39:28Z</time>
      </trkpt>
      <trkpt lat="45.06804" lon="2.75562">
        <ele>1508.93</ele>
        <time>2019-07-10T12:39:44Z</time>
      </trkpt>
      <trkpt lat="45.06809" lon="2.75552">
        <ele>1507.97</ele>
        <time>2019-07-10T12:39:56Z</time>
      </trkpt>
      <trkpt lat="45.06813" lon="2.75545">
        <ele>1506.52</ele>
        <time>2019-07-10T12:40:07Z</time>
      </trkpt>
      <trkpt lat="45.06818" lon="2.75535">
        <ele>1505.08</ele>
        <time>2019-07-10T12:40:19Z</time>
      </trkpt>
      <trkpt lat="45.06823" lon="2.75523">
        <ele>1502.2</ele>
        <time>2019-07-10T12:40:33Z</time>
      </trkpt>
      <trkpt lat="45.06828" lon="2.75508">
        <ele>1499.31</ele>
        <time>2019-07-10T12:40:49Z</time>
      </trkpt>
      <trkpt lat="45.06837" lon="2.75497">
        <ele>1496.91</ele>
        <time>2019-07-10T12:41:04Z</time>
      </trkpt>
      <trkpt lat="45.06841" lon="2.7549">
        <ele>1494.99</ele>
        <time>2019-07-10T12:41:12Z</time>
      </trkpt>
      <trkpt lat="45.0685" lon="2.75482">
        <ele>1492.1</ele>
        <time>2019-07-10T12:41:26Z</time>
      </trkpt>
      <trkpt lat="45.06857" lon="2.75472">
        <ele>1490.18</ele>
        <time>2019-07-10T12:41:39Z</time>
      </trkpt>
      <trkpt lat="45.06858" lon="2.75469">
        <ele>1489.22</ele>
        <time>2019-07-10T12:41:42Z</time>
      </trkpt>
      <trkpt lat="45.0686" lon="2.75464">
        <ele>1488.26</ele>
        <time>2019-07-10T12:41:57Z</time>
      </trkpt>
      <trkpt lat="45.06864" lon="2.75456">
        <ele>1486.34</ele>
        <time>2019-07-10T12:42:11Z</time>
      </trkpt>
      <trkpt lat="45.0687" lon="2.75442">
        <ele>1483.93</ele>
        <time>2019-07-10T12:42:24Z</time>
      </trkpt>
      <trkpt lat="45.06875" lon="2.75431">
        <ele>1482.01</ele>
        <time>2019-07-10T12:42:36Z</time>
      </trkpt>
      <trkpt lat="45.0688" lon="2.75421">
        <ele>1480.09</ele>
        <time>2019-07-10T12:42:50Z</time>
      </trkpt>
      <trkpt lat="45.06887" lon="2.75408">
        <ele>1478.16</ele>
        <time>2019-07-10T12:43:04Z</time>
      </trkpt>
      <trkpt lat="45.06893" lon="2.75395">
        <ele>1477.2</ele>
        <time>2019-07-10T12:43:17Z</time>
      </trkpt>
      <trkpt lat="45.06898" lon="2.75383">
        <ele>1474.8</ele>
        <time>2019-07-10T12:43:29Z</time>
      </trkpt>
      <trkpt lat="45.06906" lon="2.7537">
        <ele>1473.36</ele>
        <time>2019-07-10T12:43:42Z</time>
      </trkpt>
      <trkpt lat="45.06915" lon="2.75355">
        <ele>1471.92</ele>
        <time>2019-07-10T12:43:57Z</time>
      </trkpt>
      <trkpt lat="45.06924" lon="2.75346">
        <ele>1468.07</ele>
        <time>2019-07-10T12:44:10Z</time>
      </trkpt>
      <trkpt lat="45.06925" lon="2.75345">
        <ele>1468.55</ele>
        <time>2019-07-10T12:44:11Z</time>
      </trkpt>
      <trkpt lat="45.06934" lon="2.7534">
        <ele>1468.07</ele>
        <time>2019-07-10T12:44:21Z</time>
      </trkpt>
      <trkpt lat="45.06937" lon="2.75339">
        <ele>1468.55</ele>
        <time>2019-07-10T12:44:24Z</time>
      </trkpt>
      <trkpt lat="45.06951" lon="2.75329">
        <ele>1468.07</ele>
        <time>2019-07-10T12:44:40Z</time>
      </trkpt>
      <trkpt lat="45.06966" lon="2.75315">
        <ele>1465.67</ele>
        <time>2019-07-10T12:44:58Z</time>
      </trkpt>
      <trkpt lat="45.06978" lon="2.75306">
        <ele>1464.71</ele>
        <time>2019-07-10T12:45:12Z</time>
      </trkpt>
      <trkpt lat="45.06982" lon="2.75303">
        <ele>1465.19</ele>
        <time>2019-07-10T12:45:26Z</time>
      </trkpt>
      <trkpt lat="45.06983" lon="2.75301">
        <ele>1465.67</ele>
        <time>2019-07-10T12:45:36Z</time>
      </trkpt>
      <trkpt lat="45.06985" lon="2.753">
        <ele>1465.67</ele>
        <time>2019-07-10T12:45:50Z</time>
      </trkpt>
      <trkpt lat="45.06985" lon="2.753">
        <ele>1465.19</ele>
        <time>2019-07-10T12:47:03Z</time>
      </trkpt>
      <trkpt lat="45.06992" lon="2.75291">
        <ele>1464.23</ele>
        <time>2019-07-10T12:47:26Z</time>
      </trkpt>
      <trkpt lat="45.07005" lon="2.75278">
        <ele>1462.3</ele>
        <time>2019-07-10T12:47:41Z</time>
      </trkpt>
      <trkpt lat="45.07007" lon="2.75274">
        <ele>1461.82</ele>
        <time>2019-07-10T12:47:45Z</time>
      </trkpt>
      <trkpt lat="45.07011" lon="2.75271">
        <ele>1460.86</ele>
        <time>2019-07-10T12:47:49Z</time>
      </trkpt>
      <trkpt lat="45.07021" lon="2.75255">
        <ele>1458.94</ele>
        <time>2019-07-10T12:48:05Z</time>
      </trkpt>
      <trkpt lat="45.07028" lon="2.75239">
        <ele>1457.98</ele>
        <time>2019-07-10T12:48:17Z</time>
      </trkpt>
      <trkpt lat="45.07033" lon="2.75222">
        <ele>1457.5</ele>
        <time>2019-07-10T12:48:30Z</time>
      </trkpt>
      <trkpt lat="45.07037" lon="2.75211">
        <ele>1455.57</ele>
        <time>2019-07-10T12:48:38Z</time>
      </trkpt>
      <trkpt lat="45.07045" lon="2.75195">
        <ele>1455.09</ele>
        <time>2019-07-10T12:48:52Z</time>
      </trkpt>
      <trkpt lat="45.0705" lon="2.75183">
        <ele>1454.61</ele>
        <time>2019-07-10T12:49:06Z</time>
      </trkpt>
      <trkpt lat="45.07048" lon="2.7518">
        <ele>1454.61</ele>
        <time>2019-07-10T12:49:24Z</time>
      </trkpt>
      <trkpt lat="45.07048" lon="2.7518">
        <ele>1453.65</ele>
        <time>2019-07-10T12:50:10Z</time>
      </trkpt>
      <trkpt lat="45.07049" lon="2.75179">
        <ele>1453.65</ele>
        <time>2019-07-10T12:50:23Z</time>
      </trkpt>
      <trkpt lat="45.07049" lon="2.75177">
        <ele>1453.65</ele>
        <time>2019-07-10T12:50:40Z</time>
      </trkpt>
      <trkpt lat="45.07054" lon="2.75178">
        <ele>1453.65</ele>
        <time>2019-07-10T12:50:55Z</time>
      </trkpt>
      <trkpt lat="45.07062" lon="2.75177">
        <ele>1453.17</ele>
        <time>2019-07-10T12:51:07Z</time>
      </trkpt>
      <trkpt lat="45.07064" lon="2.75178">
        <ele>1452.21</ele>
        <time>2019-07-10T12:51:09Z</time>
      </trkpt>
      <trkpt lat="45.07069" lon="2.75177">
        <ele>1452.21</ele>
        <time>2019-07-10T12:51:15Z</time>
      </trkpt>
      <trkpt lat="45.07072" lon="2.75176">
        <ele>1451.73</ele>
        <time>2019-07-10T12:51:19Z</time>
      </trkpt>
      <trkpt lat="45.07079" lon="2.75172">
        <ele>1450.29</ele>
        <time>2019-07-10T12:51:28Z</time>
      </trkpt>
      <trkpt lat="45.07092" lon="2.7517">
        <ele>1449.81</ele>
        <time>2019-07-10T12:51:42Z</time>
      </trkpt>
      <trkpt lat="45.07101" lon="2.75168">
        <ele>1448.36</ele>
        <time>2019-07-10T12:51:54Z</time>
      </trkpt>
      <trkpt lat="45.07105" lon="2.75164">
        <ele>1446.92</ele>
        <time>2019-07-10T12:52:01Z</time>
      </trkpt>
      <trkpt lat="45.07115" lon="2.75154">
        <ele>1446.92</ele>
        <time>2019-07-10T12:52:16Z</time>
      </trkpt>
      <trkpt lat="45.07122" lon="2.75145">
        <ele>1444.52</ele>
        <time>2019-07-10T12:52:30Z</time>
      </trkpt>
      <trkpt lat="45.07126" lon="2.75135">
        <ele>1442.11</ele>
        <time>2019-07-10T12:52:42Z</time>
      </trkpt>
      <trkpt lat="45.0713" lon="2.75123">
        <ele>1439.71</ele>
        <time>2019-07-10T12:52:54Z</time>
      </trkpt>
      <trkpt lat="45.07139" lon="2.75109">
        <ele>1438.27</ele>
        <time>2019-07-10T12:53:08Z</time>
      </trkpt>
      <trkpt lat="45.07141" lon="2.75107">
        <ele>1437.79</ele>
        <time>2019-07-10T12:53:10Z</time>
      </trkpt>
      <trkpt lat="45.07149" lon="2.75094">
        <ele>1439.71</ele>
        <time>2019-07-10T12:53:24Z</time>
      </trkpt>
      <trkpt lat="45.0715" lon="2.75081">
        <ele>1442.11</ele>
        <time>2019-07-10T12:53:36Z</time>
      </trkpt>
      <trkpt lat="45.07151" lon="2.75068">
        <ele>1442.11</ele>
        <time>2019-07-10T12:53:49Z</time>
      </trkpt>
      <trkpt lat="45.07148" lon="2.75065">
        <ele>1442.6</ele>
        <time>2019-07-10T12:54:06Z</time>
      </trkpt>
      <trkpt lat="45.07151" lon="2.75064">
        <ele>1442.6</ele>
        <time>2019-07-10T12:54:47Z</time>
      </trkpt>
      <trkpt lat="45.07152" lon="2.75064">
        <ele>1440.19</ele>
        <time>2019-07-10T12:55:31Z</time>
      </trkpt>
      <trkpt lat="45.07153" lon="2.75064">
        <ele>1443.08</ele>
        <time>2019-07-10T12:55:33Z</time>
      </trkpt>
      <trkpt lat="45.07153" lon="2.75064">
        <ele>1442.6</ele>
        <time>2019-07-10T12:55:34Z</time>
      </trkpt>
      <trkpt lat="45.07153" lon="2.75064">
        <ele>1441.63</ele>
        <time>2019-07-10T12:57:18Z</time>
      </trkpt>
      <trkpt lat="45.07156" lon="2.75063">
        <ele>1441.15</ele>
        <time>2019-07-10T12:57:52Z</time>
      </trkpt>
      <trkpt lat="45.0716" lon="2.75063">
        <ele>1441.15</ele>
        <time>2019-07-10T12:57:56Z</time>
      </trkpt>
      <trkpt lat="45.07172" lon="2.75063">
        <ele>1440.19</ele>
        <time>2019-07-10T12:58:09Z</time>
      </trkpt>
      <trkpt lat="45.07176" lon="2.75063">
        <ele>1440.19</ele>
        <time>2019-07-10T12:58:13Z</time>
      </trkpt>
      <trkpt lat="45.07184" lon="2.75062">
        <ele>1439.71</ele>
        <time>2019-07-10T12:58:20Z</time>
      </trkpt>
      <trkpt lat="45.07199" lon="2.75062">
        <ele>1440.19</ele>
        <time>2019-07-10T12:58:35Z</time>
      </trkpt>
      <trkpt lat="45.0721" lon="2.75063">
        <ele>1440.67</ele>
        <time>2019-07-10T12:58:47Z</time>
      </trkpt>
      <trkpt lat="45.07224" lon="2.75058">
        <ele>1442.11</ele>
        <time>2019-07-10T12:59:01Z</time>
      </trkpt>
      <trkpt lat="45.07228" lon="2.75054">
        <ele>1442.11</ele>
        <time>2019-07-10T12:59:06Z</time>
      </trkpt>
      <trkpt lat="45.07231" lon="2.7505">
        <ele>1443.08</ele>
        <time>2019-07-10T12:59:10Z</time>
      </trkpt>
      <trkpt lat="45.07231" lon="2.75047">
        <ele>1442.6</ele>
        <time>2019-07-10T12:59:12Z</time>
      </trkpt>
      <trkpt lat="45.07233" lon="2.75045">
        <ele>1442.6</ele>
        <time>2019-07-10T12:59:14Z</time>
      </trkpt>
      <trkpt lat="45.07235" lon="2.7504">
        <ele>1444.04</ele>
        <time>2019-07-10T12:59:19Z</time>
      </trkpt>
      <trkpt lat="45.07236" lon="2.75038">
        <ele>1444.04</ele>
        <time>2019-07-10T12:59:21Z</time>
      </trkpt>
      <trkpt lat="45.07237" lon="2.75036">
        <ele>1444.04</ele>
        <time>2019-07-10T12:59:23Z</time>
      </trkpt>
      <trkpt lat="45.07239" lon="2.75034">
        <ele>1444.52</ele>
        <time>2019-07-10T12:59:25Z</time>
      </trkpt>
      <trkpt lat="45.07245" lon="2.75028">
        <ele>1445</ele>
        <time>2019-07-10T12:59:33Z</time>
      </trkpt>
      <trkpt lat="45.07254" lon="2.75015">
        <ele>1443.56</ele>
        <time>2019-07-10T12:59:47Z</time>
      </trkpt>
      <trkpt lat="45.07261" lon="2.75005">
        <ele>1441.63</ele>
        <time>2019-07-10T13:00:00Z</time>
      </trkpt>
      <trkpt lat="45.07268" lon="2.74993">
        <ele>1440.67</ele>
        <time>2019-07-10T13:00:13Z</time>
      </trkpt>
      <trkpt lat="45.07277" lon="2.74981">
        <ele>1438.27</ele>
        <time>2019-07-10T13:00:28Z</time>
      </trkpt>
      <trkpt lat="45.0728" lon="2.74978">
        <ele>1436.83</ele>
        <time>2019-07-10T13:00:33Z</time>
      </trkpt>
      <trkpt lat="45.07289" lon="2.74973">
        <ele>1434.42</ele>
        <time>2019-07-10T13:00:46Z</time>
      </trkpt>
      <trkpt lat="45.07292" lon="2.74973">
        <ele>1432.5</ele>
        <time>2019-07-10T13:00:51Z</time>
      </trkpt>
      <trkpt lat="45.07304" lon="2.74965">
        <ele>1431.54</ele>
        <time>2019-07-10T13:01:07Z</time>
      </trkpt>
      <trkpt lat="45.07314" lon="2.74957">
        <ele>1428.18</ele>
        <time>2019-07-10T13:01:20Z</time>
      </trkpt>
      <trkpt lat="45.07323" lon="2.74949">
        <ele>1425.29</ele>
        <time>2019-07-10T13:01:36Z</time>
      </trkpt>
      <trkpt lat="45.07332" lon="2.74944">
        <ele>1421.93</ele>
        <time>2019-07-10T13:01:48Z</time>
      </trkpt>
      <trkpt lat="45.07344" lon="2.74938">
        <ele>1418.56</ele>
        <time>2019-07-10T13:02:05Z</time>
      </trkpt>
      <trkpt lat="45.07352" lon="2.74939">
        <ele>1417.6</ele>
        <time>2019-07-10T13:02:13Z</time>
      </trkpt>
      <trkpt lat="45.07363" lon="2.74946">
        <ele>1414.24</ele>
        <time>2019-07-10T13:02:29Z</time>
      </trkpt>
      <trkpt lat="45.07364" lon="2.74948">
        <ele>1413.28</ele>
        <time>2019-07-10T13:02:32Z</time>
      </trkpt>
      <trkpt lat="45.07376" lon="2.7496">
        <ele>1411.83</ele>
        <time>2019-07-10T13:02:48Z</time>
      </trkpt>
      <trkpt lat="45.07381" lon="2.74966">
        <ele>1411.35</ele>
        <time>2019-07-10T13:02:55Z</time>
      </trkpt>
      <trkpt lat="45.07383" lon="2.7497">
        <ele>1409.91</ele>
        <time>2019-07-10T13:02:59Z</time>
      </trkpt>
      <trkpt lat="45.07389" lon="2.74979">
        <ele>1407.03</ele>
        <time>2019-07-10T13:03:09Z</time>
      </trkpt>
      <trkpt lat="45.07396" lon="2.74991">
        <ele>1406.07</ele>
        <time>2019-07-10T13:03:20Z</time>
      </trkpt>
      <trkpt lat="45.07403" lon="2.75002">
        <ele>1403.66</ele>
        <time>2019-07-10T13:03:33Z</time>
      </trkpt>
      <trkpt lat="45.07409" lon="2.75008">
        <ele>1401.74</ele>
        <time>2019-07-10T13:03:49Z</time>
      </trkpt>
      <trkpt lat="45.07415" lon="2.75015">
        <ele>1401.26</ele>
        <time>2019-07-10T13:04:02Z</time>
      </trkpt>
      <trkpt lat="45.07422" lon="2.75023">
        <ele>1400.3</ele>
        <time>2019-07-10T13:04:12Z</time>
      </trkpt>
      <trkpt lat="45.07424" lon="2.75026">
        <ele>1399.82</ele>
        <time>2019-07-10T13:04:15Z</time>
      </trkpt>
      <trkpt lat="45.07427" lon="2.75027">
        <ele>1398.86</ele>
        <time>2019-07-10T13:04:18Z</time>
      </trkpt>
      <trkpt lat="45.0743" lon="2.75031">
        <ele>1398.37</ele>
        <time>2019-07-10T13:04:22Z</time>
      </trkpt>
      <trkpt lat="45.07441" lon="2.75037">
        <ele>1397.89</ele>
        <time>2019-07-10T13:04:35Z</time>
      </trkpt>
      <trkpt lat="45.07447" lon="2.75041">
        <ele>1396.45</ele>
        <time>2019-07-10T13:04:41Z</time>
      </trkpt>
      <trkpt lat="45.07456" lon="2.75048">
        <ele>1395.01</ele>
        <time>2019-07-10T13:04:51Z</time>
      </trkpt>
      <trkpt lat="45.07467" lon="2.75054">
        <ele>1392.61</ele>
        <time>2019-07-10T13:05:07Z</time>
      </trkpt>
      <trkpt lat="45.07478" lon="2.75057">
        <ele>1389.24</ele>
        <time>2019-07-10T13:05:22Z</time>
      </trkpt>
      <trkpt lat="45.07488" lon="2.75056">
        <ele>1388.28</ele>
        <time>2019-07-10T13:05:35Z</time>
      </trkpt>
      <trkpt lat="45.07499" lon="2.75051">
        <ele>1386.36</ele>
        <time>2019-07-10T13:05:50Z</time>
      </trkpt>
      <trkpt lat="45.07503" lon="2.75045">
        <ele>1385.4</ele>
        <time>2019-07-10T13:05:56Z</time>
      </trkpt>
      <trkpt lat="45.07505" lon="2.75031">
        <ele>1384.92</ele>
        <time>2019-07-10T13:06:10Z</time>
      </trkpt>
      <trkpt lat="45.07506" lon="2.75028">
        <ele>1384.44</ele>
        <time>2019-07-10T13:06:12Z</time>
      </trkpt>
      <trkpt lat="45.07506" lon="2.75026">
        <ele>1384.44</ele>
        <time>2019-07-10T13:06:14Z</time>
      </trkpt>
      <trkpt lat="45.07506" lon="2.75017">
        <ele>1384.44</ele>
        <time>2019-07-10T13:06:20Z</time>
      </trkpt>
      <trkpt lat="45.07502" lon="2.74994">
        <ele>1383.47</ele>
        <time>2019-07-10T13:06:36Z</time>
      </trkpt>
      <trkpt lat="45.07501" lon="2.74973">
        <ele>1381.07</ele>
        <time>2019-07-10T13:06:51Z</time>
      </trkpt>
      <trkpt lat="45.07501" lon="2.74972">
        <ele>1380.59</ele>
        <time>2019-07-10T13:06:52Z</time>
      </trkpt>
      <trkpt lat="45.07501" lon="2.74954">
        <ele>1381.07</ele>
        <time>2019-07-10T13:07:06Z</time>
      </trkpt>
      <trkpt lat="45.07501" lon="2.74952">
        <ele>1380.11</ele>
        <time>2019-07-10T13:07:08Z</time>
      </trkpt>
      <trkpt lat="45.07501" lon="2.74949">
        <ele>1379.63</ele>
        <time>2019-07-10T13:07:10Z</time>
      </trkpt>
      <trkpt lat="45.07505" lon="2.74935">
        <ele>1377.23</ele>
        <time>2019-07-10T13:07:25Z</time>
      </trkpt>
      <trkpt lat="45.07503" lon="2.74918">
        <ele>1374.34</ele>
        <time>2019-07-10T13:07:40Z</time>
      </trkpt>
      <trkpt lat="45.07501" lon="2.74901">
        <ele>1372.42</ele>
        <time>2019-07-10T13:07:55Z</time>
      </trkpt>
      <trkpt lat="45.07499" lon="2.74884">
        <ele>1370.5</ele>
        <time>2019-07-10T13:08:07Z</time>
      </trkpt>
      <trkpt lat="45.07497" lon="2.74876">
        <ele>1370.5</ele>
        <time>2019-07-10T13:08:12Z</time>
      </trkpt>
      <trkpt lat="45.07494" lon="2.7486">
        <ele>1370.98</ele>
        <time>2019-07-10T13:08:24Z</time>
      </trkpt>
      <trkpt lat="45.07489" lon="2.7485">
        <ele>1369.54</ele>
        <time>2019-07-10T13:08:36Z</time>
      </trkpt>
      <trkpt lat="45.07483" lon="2.74837">
        <ele>1368.09</ele>
        <time>2019-07-10T13:08:51Z</time>
      </trkpt>
      <trkpt lat="45.07481" lon="2.74831">
        <ele>1368.09</ele>
        <time>2019-07-10T13:09:06Z</time>
      </trkpt>
      <trkpt lat="45.07481" lon="2.74822">
        <ele>1367.61</ele>
        <time>2019-07-10T13:09:18Z</time>
      </trkpt>
      <trkpt lat="45.07485" lon="2.74814">
        <ele>1367.61</ele>
        <time>2019-07-10T13:09:30Z</time>
      </trkpt>
      <trkpt lat="45.07492" lon="2.74802">
        <ele>1367.61</ele>
        <time>2019-07-10T13:09:43Z</time>
      </trkpt>
      <trkpt lat="45.07497" lon="2.74804">
        <ele>1368.09</ele>
        <time>2019-07-10T13:09:56Z</time>
      </trkpt>
      <trkpt lat="45.07497" lon="2.74804">
        <ele>1368.09</ele>
        <time>2019-07-10T13:09:58Z</time>
      </trkpt>
      <trkpt lat="45.07503" lon="2.74803">
        <ele>1367.13</ele>
        <time>2019-07-10T13:10:09Z</time>
      </trkpt>
      <trkpt lat="45.07514" lon="2.74803">
        <ele>1366.65</ele>
        <time>2019-07-10T13:10:22Z</time>
      </trkpt>
      <trkpt lat="45.07522" lon="2.74806">
        <ele>1365.21</ele>
        <time>2019-07-10T13:10:33Z</time>
      </trkpt>
      <trkpt lat="45.07536" lon="2.74813">
        <ele>1363.77</ele>
        <time>2019-07-10T13:10:48Z</time>
      </trkpt>
      <trkpt lat="45.07545" lon="2.74817">
        <ele>1361.84</ele>
        <time>2019-07-10T13:11:01Z</time>
      </trkpt>
      <trkpt lat="45.07555" lon="2.74822">
        <ele>1360.4</ele>
        <time>2019-07-10T13:11:12Z</time>
      </trkpt>
      <trkpt lat="45.07558" lon="2.74821">
        <ele>1360.4</ele>
        <time>2019-07-10T13:11:17Z</time>
      </trkpt>
      <trkpt lat="45.0756" lon="2.74818">
        <ele>1359.44</ele>
        <time>2019-07-10T13:11:24Z</time>
      </trkpt>
      <trkpt lat="45.07577" lon="2.74825">
        <ele>1357.04</ele>
        <time>2019-07-10T13:11:38Z</time>
      </trkpt>
      <trkpt lat="45.07576" lon="2.74826">
        <ele>1357.04</ele>
        <time>2019-07-10T13:11:58Z</time>
      </trkpt>
      <trkpt lat="45.07576" lon="2.74826">
        <ele>1356.56</ele>
        <time>2019-07-10T13:12:29Z</time>
      </trkpt>
      <trkpt lat="45.07578" lon="2.74824">
        <ele>1356.08</ele>
        <time>2019-07-10T13:12:33Z</time>
      </trkpt>
      <trkpt lat="45.07589" lon="2.74818">
        <ele>1355.12</ele>
        <time>2019-07-10T13:12:47Z</time>
      </trkpt>
      <trkpt lat="45.07589" lon="2.74818">
        <ele>1354.63</ele>
        <time>2019-07-10T13:13:02Z</time>
      </trkpt>
      <trkpt lat="45.07589" lon="2.74818">
        <ele>1354.15</ele>
        <time>2019-07-10T13:13:52Z</time>
      </trkpt>
      <trkpt lat="45.07589" lon="2.74818">
        <ele>1354.63</ele>
        <time>2019-07-10T13:14:13Z</time>
      </trkpt>
      <trkpt lat="45.07589" lon="2.74819">
        <ele>1354.63</ele>
        <time>2019-07-10T13:15:34Z</time>
      </trkpt>
      <trkpt lat="45.0759" lon="2.74819">
        <ele>1354.15</ele>
        <time>2019-07-10T13:16:10Z</time>
      </trkpt>
      <trkpt lat="45.07594" lon="2.74816">
        <ele>1352.71</ele>
        <time>2019-07-10T13:16:51Z</time>
      </trkpt>
      <trkpt lat="45.07601" lon="2.74811">
        <ele>1350.79</ele>
        <time>2019-07-10T13:17:03Z</time>
      </trkpt>
      <trkpt lat="45.07617" lon="2.7481">
        <ele>1347.43</ele>
        <time>2019-07-10T13:17:20Z</time>
      </trkpt>
      <trkpt lat="45.07631" lon="2.74809">
        <ele>1344.54</ele>
        <time>2019-07-10T13:17:35Z</time>
      </trkpt>
      <trkpt lat="45.07636" lon="2.74812">
        <ele>1343.58</ele>
        <time>2019-07-10T13:17:41Z</time>
      </trkpt>
      <trkpt lat="45.07649" lon="2.74819">
        <ele>1340.22</ele>
        <time>2019-07-10T13:17:58Z</time>
      </trkpt>
      <trkpt lat="45.07658" lon="2.74826">
        <ele>1337.33</ele>
        <time>2019-07-10T13:18:11Z</time>
      </trkpt>
      <trkpt lat="45.07671" lon="2.74832">
        <ele>1334.45</ele>
        <time>2019-07-10T13:18:24Z</time>
      </trkpt>
      <trkpt lat="45.07678" lon="2.74834">
        <ele>1332.04</ele>
        <time>2019-07-10T13:18:33Z</time>
      </trkpt>
      <trkpt lat="45.07686" lon="2.74846">
        <ele>1330.12</ele>
        <time>2019-07-10T13:18:44Z</time>
      </trkpt>
      <trkpt lat="45.07693" lon="2.74859">
        <ele>1327.72</ele>
        <time>2019-07-10T13:18:55Z</time>
      </trkpt>
      <trkpt lat="45.07694" lon="2.74861">
        <ele>1327.24</ele>
        <time>2019-07-10T13:18:58Z</time>
      </trkpt>
      <trkpt lat="45.07701" lon="2.7487">
        <ele>1324.35</ele>
        <time>2019-07-10T13:19:09Z</time>
      </trkpt>
      <trkpt lat="45.07701" lon="2.74871">
        <ele>1324.35</ele>
        <time>2019-07-10T13:19:11Z</time>
      </trkpt>
      <trkpt lat="45.07711" lon="2.74884">
        <ele>1322.43</ele>
        <time>2019-07-10T13:19:22Z</time>
      </trkpt>
      <trkpt lat="45.07723" lon="2.74896">
        <ele>1320.51</ele>
        <time>2019-07-10T13:19:35Z</time>
      </trkpt>
      <trkpt lat="45.07731" lon="2.74906">
        <ele>1319.07</ele>
        <time>2019-07-10T13:19:45Z</time>
      </trkpt>
      <trkpt lat="45.07734" lon="2.7491">
        <ele>1318.59</ele>
        <time>2019-07-10T13:19:50Z</time>
      </trkpt>
      <trkpt lat="45.0774" lon="2.74924">
        <ele>1316.66</ele>
        <time>2019-07-10T13:20:02Z</time>
      </trkpt>
      <trkpt lat="45.07749" lon="2.74936">
        <ele>1314.26</ele>
        <time>2019-07-10T13:20:14Z</time>
      </trkpt>
      <trkpt lat="45.07757" lon="2.74948">
        <ele>1312.82</ele>
        <time>2019-07-10T13:20:27Z</time>
      </trkpt>
      <trkpt lat="45.07758" lon="2.74951">
        <ele>1313.3</ele>
        <time>2019-07-10T13:20:29Z</time>
      </trkpt>
      <trkpt lat="45.07763" lon="2.7496">
        <ele>1310.9</ele>
        <time>2019-07-10T13:20:37Z</time>
      </trkpt>
      <trkpt lat="45.0777" lon="2.74968">
        <ele>1309.45</ele>
        <time>2019-07-10T13:20:45Z</time>
      </trkpt>
      <trkpt lat="45.07779" lon="2.74978">
        <ele>1307.53</ele>
        <time>2019-07-10T13:20:57Z</time>
      </trkpt>
      <trkpt lat="45.07786" lon="2.74989">
        <ele>1306.57</ele>
        <time>2019-07-10T13:21:04Z</time>
      </trkpt>
      <trkpt lat="45.07797" lon="2.74998">
        <ele>1303.69</ele>
        <time>2019-07-10T13:21:13Z</time>
      </trkpt>
      <trkpt lat="45.07798" lon="2.74999">
        <ele>1303.2</ele>
        <time>2019-07-10T13:21:14Z</time>
      </trkpt>
      <trkpt lat="45.07801" lon="2.75004">
        <ele>1301.76</ele>
        <time>2019-07-10T13:21:18Z</time>
      </trkpt>
      <trkpt lat="45.07806" lon="2.75008">
        <ele>1301.76</ele>
        <time>2019-07-10T13:21:22Z</time>
      </trkpt>
      <trkpt lat="45.07807" lon="2.75011">
        <ele>1302.24</ele>
        <time>2019-07-10T13:21:24Z</time>
      </trkpt>
      <trkpt lat="45.07808" lon="2.75014">
        <ele>1301.76</ele>
        <time>2019-07-10T13:21:26Z</time>
      </trkpt>
      <trkpt lat="45.07814" lon="2.75024">
        <ele>1299.36</ele>
        <time>2019-07-10T13:21:37Z</time>
      </trkpt>
      <trkpt lat="45.07817" lon="2.75029">
        <ele>1298.88</ele>
        <time>2019-07-10T13:21:42Z</time>
      </trkpt>
      <trkpt lat="45.07823" lon="2.75041">
        <ele>1297.44</ele>
        <time>2019-07-10T13:21:52Z</time>
      </trkpt>
      <trkpt lat="45.07826" lon="2.75052">
        <ele>1294.07</ele>
        <time>2019-07-10T13:22:04Z</time>
      </trkpt>
      <trkpt lat="45.07828" lon="2.75055">
        <ele>1293.59</ele>
        <time>2019-07-10T13:22:07Z</time>
      </trkpt>
      <trkpt lat="45.07831" lon="2.75056">
        <ele>1293.11</ele>
        <time>2019-07-10T13:22:11Z</time>
      </trkpt>
      <trkpt lat="45.07838" lon="2.75067">
        <ele>1290.71</ele>
        <time>2019-07-10T13:22:25Z</time>
      </trkpt>
      <trkpt lat="45.07844" lon="2.7507">
        <ele>1289.27</ele>
        <time>2019-07-10T13:22:32Z</time>
      </trkpt>
      <trkpt lat="45.07859" lon="2.75068">
        <ele>1288.78</ele>
        <time>2019-07-10T13:22:48Z</time>
      </trkpt>
      <trkpt lat="45.0786" lon="2.75069">
        <ele>1288.3</ele>
        <time>2019-07-10T13:23:00Z</time>
      </trkpt>
      <trkpt lat="45.07862" lon="2.75068">
        <ele>1289.75</ele>
        <time>2019-07-10T13:23:21Z</time>
      </trkpt>
      <trkpt lat="45.07862" lon="2.7507">
        <ele>1288.78</ele>
        <time>2019-07-10T13:23:49Z</time>
      </trkpt>
      <trkpt lat="45.07862" lon="2.7507">
        <ele>1288.3</ele>
        <time>2019-07-10T13:24:14Z</time>
      </trkpt>
      <trkpt lat="45.0787" lon="2.75071">
        <ele>1287.34</ele>
        <time>2019-07-10T13:24:37Z</time>
      </trkpt>
      <trkpt lat="45.07881" lon="2.75072">
        <ele>1286.86</ele>
        <time>2019-07-10T13:24:50Z</time>
      </trkpt>
      <trkpt lat="45.07889" lon="2.75073">
        <ele>1285.9</ele>
        <time>2019-07-10T13:25:00Z</time>
      </trkpt>
      <trkpt lat="45.07897" lon="2.75076">
        <ele>1284.94</ele>
        <time>2019-07-10T13:25:07Z</time>
      </trkpt>
      <trkpt lat="45.07904" lon="2.75078">
        <ele>1284.46</ele>
        <time>2019-07-10T13:25:13Z</time>
      </trkpt>
      <trkpt lat="45.07906" lon="2.7508">
        <ele>1284.46</ele>
        <time>2019-07-10T13:25:16Z</time>
      </trkpt>
      <trkpt lat="45.0791" lon="2.75084">
        <ele>1283.98</ele>
        <time>2019-07-10T13:25:20Z</time>
      </trkpt>
      <trkpt lat="45.07915" lon="2.75101">
        <ele>1282.06</ele>
        <time>2019-07-10T13:25:34Z</time>
      </trkpt>
      <trkpt lat="45.07914" lon="2.75107">
        <ele>1281.57</ele>
        <time>2019-07-10T13:25:40Z</time>
      </trkpt>
      <trkpt lat="45.07917" lon="2.75125">
        <ele>1278.69</ele>
        <time>2019-07-10T13:25:52Z</time>
      </trkpt>
      <trkpt lat="45.07917" lon="2.75128">
        <ele>1279.17</ele>
        <time>2019-07-10T13:25:55Z</time>
      </trkpt>
      <trkpt lat="45.07919" lon="2.7513">
        <ele>1279.17</ele>
        <time>2019-07-10T13:25:57Z</time>
      </trkpt>
      <trkpt lat="45.07928" lon="2.75141">
        <ele>1277.25</ele>
        <time>2019-07-10T13:26:10Z</time>
      </trkpt>
      <trkpt lat="45.0794" lon="2.75145">
        <ele>1275.81</ele>
        <time>2019-07-10T13:26:24Z</time>
      </trkpt>
      <trkpt lat="45.07943" lon="2.75144">
        <ele>1274.36</ele>
        <time>2019-07-10T13:26:27Z</time>
      </trkpt>
      <trkpt lat="45.07952" lon="2.75138">
        <ele>1272.44</ele>
        <time>2019-07-10T13:26:40Z</time>
      </trkpt>
      <trkpt lat="45.07953" lon="2.75139">
        <ele>1272.92</ele>
        <time>2019-07-10T13:26:50Z</time>
      </trkpt>
      <trkpt lat="45.07953" lon="2.75138">
        <ele>1271.96</ele>
        <time>2019-07-10T13:27:15Z</time>
      </trkpt>
      <trkpt lat="45.07951" lon="2.75146">
        <ele>1275.33</ele>
        <time>2019-07-10T13:27:28Z</time>
      </trkpt>
      <trkpt lat="45.07952" lon="2.75151">
        <ele>1275.81</ele>
        <time>2019-07-10T13:27:32Z</time>
      </trkpt>
      <trkpt lat="45.07953" lon="2.75155">
        <ele>1275.81</ele>
        <time>2019-07-10T13:27:36Z</time>
      </trkpt>
      <trkpt lat="45.07958" lon="2.7516">
        <ele>1276.29</ele>
        <time>2019-07-10T13:27:42Z</time>
      </trkpt>
      <trkpt lat="45.0797" lon="2.75173">
        <ele>1276.29</ele>
        <time>2019-07-10T13:27:57Z</time>
      </trkpt>
      <trkpt lat="45.07982" lon="2.75178">
        <ele>1274.85</ele>
        <time>2019-07-10T13:28:11Z</time>
      </trkpt>
      <trkpt lat="45.07993" lon="2.75176">
        <ele>1274.85</ele>
        <time>2019-07-10T13:28:24Z</time>
      </trkpt>
      <trkpt lat="45.08004" lon="2.75173">
        <ele>1274.36</ele>
        <time>2019-07-10T13:28:35Z</time>
      </trkpt>
      <trkpt lat="45.08011" lon="2.75169">
        <ele>1273.4</ele>
        <time>2019-07-10T13:28:42Z</time>
      </trkpt>
      <trkpt lat="45.08023" lon="2.7516">
        <ele>1272.44</ele>
        <time>2019-07-10T13:28:57Z</time>
      </trkpt>
      <trkpt lat="45.08025" lon="2.75159">
        <ele>1272.44</ele>
        <time>2019-07-10T13:28:59Z</time>
      </trkpt>
      <trkpt lat="45.08029" lon="2.75157">
        <ele>1270.52</ele>
        <time>2019-07-10T13:29:04Z</time>
      </trkpt>
      <trkpt lat="45.0803" lon="2.75155">
        <ele>1271.48</ele>
        <time>2019-07-10T13:29:06Z</time>
      </trkpt>
      <trkpt lat="45.08044" lon="2.75146">
        <ele>1270.04</ele>
        <time>2019-07-10T13:29:21Z</time>
      </trkpt>
      <trkpt lat="45.08055" lon="2.75138">
        <ele>1267.64</ele>
        <time>2019-07-10T13:29:35Z</time>
      </trkpt>
      <trkpt lat="45.08066" lon="2.75129">
        <ele>1265.23</ele>
        <time>2019-07-10T13:29:49Z</time>
      </trkpt>
      <trkpt lat="45.08067" lon="2.75128">
        <ele>1265.71</ele>
        <time>2019-07-10T13:29:50Z</time>
      </trkpt>
      <trkpt lat="45.08082" lon="2.75124">
        <ele>1264.27</ele>
        <time>2019-07-10T13:30:06Z</time>
      </trkpt>
      <trkpt lat="45.0809" lon="2.75119">
        <ele>1262.35</ele>
        <time>2019-07-10T13:30:14Z</time>
      </trkpt>
      <trkpt lat="45.08099" lon="2.75114">
        <ele>1260.91</ele>
        <time>2019-07-10T13:30:23Z</time>
      </trkpt>
      <trkpt lat="45.08101" lon="2.75113">
        <ele>1260.43</ele>
        <time>2019-07-10T13:30:25Z</time>
      </trkpt>
      <trkpt lat="45.08109" lon="2.75108">
        <ele>1258.98</ele>
        <time>2019-07-10T13:30:33Z</time>
      </trkpt>
      <trkpt lat="45.08123" lon="2.75102">
        <ele>1258.02</ele>
        <time>2019-07-10T13:30:49Z</time>
      </trkpt>
      <trkpt lat="45.08133" lon="2.75096">
        <ele>1255.62</ele>
        <time>2019-07-10T13:31:01Z</time>
      </trkpt>
      <trkpt lat="45.08143" lon="2.75091">
        <ele>1253.22</ele>
        <time>2019-07-10T13:31:12Z</time>
      </trkpt>
      <trkpt lat="45.08154" lon="2.75087">
        <ele>1252.74</ele>
        <time>2019-07-10T13:31:24Z</time>
      </trkpt>
      <trkpt lat="45.08167" lon="2.7508">
        <ele>1252.25</ele>
        <time>2019-07-10T13:31:37Z</time>
      </trkpt>
      <trkpt lat="45.08171" lon="2.7508">
        <ele>1251.77</ele>
        <time>2019-07-10T13:31:41Z</time>
      </trkpt>
      <trkpt lat="45.08178" lon="2.75071">
        <ele>1251.29</ele>
        <time>2019-07-10T13:31:54Z</time>
      </trkpt>
      <trkpt lat="45.08185" lon="2.7506">
        <ele>1251.29</ele>
        <time>2019-07-10T13:32:05Z</time>
      </trkpt>
      <trkpt lat="45.08191" lon="2.75046">
        <ele>1250.33</ele>
        <time>2019-07-10T13:32:18Z</time>
      </trkpt>
      <trkpt lat="45.08198" lon="2.75033">
        <ele>1249.37</ele>
        <time>2019-07-10T13:32:31Z</time>
      </trkpt>
      <trkpt lat="45.08208" lon="2.75022">
        <ele>1248.89</ele>
        <time>2019-07-10T13:32:43Z</time>
      </trkpt>
      <trkpt lat="45.08218" lon="2.75012">
        <ele>1248.41</ele>
        <time>2019-07-10T13:32:57Z</time>
      </trkpt>
      <trkpt lat="45.08227" lon="2.75001">
        <ele>1247.45</ele>
        <time>2019-07-10T13:33:10Z</time>
      </trkpt>
      <trkpt lat="45.08235" lon="2.74984">
        <ele>1246.49</ele>
        <time>2019-07-10T13:33:25Z</time>
      </trkpt>
      <trkpt lat="45.08237" lon="2.74973">
        <ele>1246.01</ele>
        <time>2019-07-10T13:33:36Z</time>
      </trkpt>
      <trkpt lat="45.08237" lon="2.74972">
        <ele>1244.56</ele>
        <time>2019-07-10T13:33:54Z</time>
      </trkpt>
      <trkpt lat="45.08237" lon="2.74972">
        <ele>1245.04</ele>
        <time>2019-07-10T13:34:09Z</time>
      </trkpt>
      <trkpt lat="45.08237" lon="2.74972">
        <ele>1243.12</ele>
        <time>2019-07-10T13:34:58Z</time>
      </trkpt>
    </trkseg>
  </trk>
</gpx>